[[{"header":{"parameterUnit":"m.s-1","parameterCategory":1,"la1":31.0,"la2":29.5877,"lo1":-88.7671,"lo2":-86.6584,"dy":0.0162,"dx":0.0185,"nx":115,"ny":88,"refTime":"2023-10-04T06:00:00:Z","depth":0,"parameterNumber":2,"parameterNumberName":"U-component_of_WINDS"},"data":[0.0,0.0,0.0,0.0,0.0,0.0,0.0,0.0,0.0,0.0,0.0,0.0,0.0,0.0,0.0,0.0,0.0,0.0,0.0,0.0,0.0,0.0,0.0,0.0,0.0,0.0,0.0,0.0,0.0,0.0,0.0,0.0,0.0,0.0,0.0,0.0,0.0,0.0,0.0,0.0,0.0,0.0,0.0,0.0,0.0,0.0,0.0,0.0,0.0,0.0,0.0,0.0,0.0,0.0,0.0,0.0,0.0,0.0,0.0,0.0,0.0,0.0,0.0,0.0,0.0,0.0,0.0,0.0,0.0,0.0,0.0,0.0,0.0,0.0,0.0,0.0,0.0,0.0,0.0,0.0,0.0,0.0,0.0,0.0,0.0,0.0,0.0,0.0,0.0,0.0,0.0,0.0,0.0,0.0,0.0,0.0,0.0,0.0,0.0,0.0,0.0,0.0,0.0,0.0,0.0,0.0,0.0,0.0,0.0,0.0,0.0,0.0,0.0,0.0,0.0,0.0,0.0,0.0,0.0,0.0,0.0,0.0,0.0,0.0,0.0,0.0,0.0,0.0,0.0,0.0,0.0,0.0,0.0,0.0,0.0,0.0,0.0,0.0,0.0,0.0,0.0,0.0,0.0,0.0,0.0,0.0,0.0,0.0,0.0,0.0,0.0,0.0,0.0,0.0,0.0,0.0,0.0,0.0,0.0,0.0,0.0,0.0,0.0,0.0,0.0,0.0,0.0,0.0,0.0,0.0,0.0,0.0,0.0,0.0,0.0,0.0,0.0,0.0,0.0,0.0,0.0,0.0,0.0,0.0,0.0,0.0,0.0,0.0,0.0,0.0,0.0,0.0,0.0,0.0,0.0,0.0,0.0,0.0,0.0,0.0,0.0,0.0,0.0,0.0,0.0,0.0,0.0,0.0,0.0,0.0,0.0,0.0,0.0,0.0,0.0,0.0,0.0,0.0,0.0,0.0,0.0,0.0,0.0,0.0,0.0,0.0,0.0,0.0,0.0,0.0,0.0,0.0,0.0,0.0,0.0,0.0,0.0,0.0,0.0,0.0,0.0,0.0,0.0,0.0,0.0,0.0,0.0,0.0,0.0,0.0,0.0,0.0,0.0,0.0,0.0,0.0,0.0,0.0,0.0,0.0,0.0,0.0,0.0,0.0,0.0,0.0,0.0,0.0,0.0,0.0,0.0,0.0,0.0,0.0,0.0,0.0,0.0,0.0,0.0,0.0,0.0,0.0,0.0,0.0,0.0,0.0,0.0,0.0,0.0,0.0,0.0,0.0,0.0,0.0,0.0,0.0,0.0,0.0,0.0,0.0,0.0,0.0,0.0,0.0,0.0,0.0,0.0,0.0,0.0,0.0,0.0,0.0,0.0,0.0,0.0,0.0,0.0,0.0,0.0,0.0,0.0,0.0,0.0,0.0,0.0,0.0,0.0,0.0,0.0,0.0,0.0,0.0,0.0,0.0,0.0,0.0,0.0,0.0,0.0,0.0,0.0,0.0,0.0,0.0,0.0,0.0,0.0,0.0,0.0,0.0,0.0,0.0,0.0,0.0,0.0,0.0,0.0,0.0,0.0,0.0,0.0,0.0,0.0,0.0,0.0,0.0,0.0,0.0,0.0,0.0,0.0,0.0,0.0,0.0,0.0,0.0,0.0,0.0,0.0,0.0,0.0,0.0,0.0,0.0,0.0,0.0,0.0,0.0,0.0,0.0,0.0,0.0,0.0,0.0,0.0,0.0,0.0,0.0,0.0,0.0,0.0,0.0,0.0,0.0,0.0,0.0,0.0,0.0,0.0,0.0,0.0,0.0,0.0,0.0,0.0,0.0,0.0,0.0,0.0,0.0,0.0,0.0,0.0,0.0,0.0,0.0,0.0,0.0,0.0,0.0,0.0,0.0,0.0,0.0,0.0,0.0,0.0,0.0,0.0,0.0,0.0,0.0,0.0,0.0,0.0,0.0,0.0,0.0,0.0,0.0,0.0,0.0,0.0,0.0,0.0,0.0,0.0,0.0,0.0,0.0,0.0,0.0,0.0,0.0,0.0,0.0,0.0,0.0,0.0,0.0,0.0,0.0,0.0,0.0,0.0,0.0,0.0,0.0,0.0,0.0,0.0,0.0,0.0,0.0,0.0,0.0,0.0,0.0,0.0,0.0,0.0,0.0,0.0,0.0,0.0,0.0,0.0,0.0,0.0,0.0,0.0,0.0,0.0,0.0,0.0,0.0,0.0,0.0,0.0,0.0,0.0,0.0,0.0,0.0,0.0,0.0,0.0,0.0,0.0,0.0,0.0,0.0,0.0,0.0,0.0,0.0,0.0,0.0,0.0,0.0,0.0,0.0,0.0,0.0,0.0,0.0,0.0,0.0,0.0,0.0,0.0,0.0,0.0,0.0,0.0,0.0,0.0,0.0,0.0,0.0,0.0,0.0,0.0,0.0,0.0,0.0,0.0,0.0,0.0,0.0,0.0,0.0,0.0,0.0,0.0,0.0,0.0,0.0,0.0,0.0,0.0,0.0,0.0,0.0,0.0,0.0,0.0,0.0,0.0,0.0,0.0,0.0,0.0,0.0,0.0,0.0,0.0,0.0,0.0,0.0,0.0,0.0,0.0,0.0,0.0,0.0,0.0,0.0,0.0,0.0,0.0,0.0,0.0,0.0,0.0,0.0,0.0,0.0,0.0,0.0,0.0,0.0,0.0,0.0,0.0,0.0,0.0,0.0,0.0,0.0,0.0,0.0,0.0,0.0,0.0,0.0,0.0,0.0,0.0,0.0,0.0,0.0,0.0,0.0,0.0,0.0,0.0,0.0,0.0,0.0,0.0,0.0,0.0,0.0,0.0,0.0,0.0,0.0,0.0,0.0,0.0,0.0,0.0,0.0,0.0,0.0,0.0,0.0,0.0,0.0,0.0,0.0,0.0,0.0,0.0,0.0,0.0,0.0,0.0,0.0,0.0,0.0,0.0,0.0,0.0,0.0,0.0,0.0,0.0,0.0,0.0,0.0,0.0,0.0,0.0,0.0,0.0,0.0,0.0,0.0,0.0,0.0,0.0,0.0,0.0,0.0,0.0,0.0,0.0,0.0,0.0,0.0,0.0,0.0,0.0,0.0,0.0,0.0,0.0,0.0,0.0,0.0,0.0,0.0,0.0,0.0,0.0,0.0,0.0,0.0,0.0,0.0,0.0,0.0,0.0,0.0,0.0,0.0,0.0,0.0,0.0,0.0,0.0,0.0,0.0,0.0,0.0,0.0,0.0,0.0,0.0,0.0,0.0,0.0,0.0,0.0,0.0,0.0,0.0,0.0,0.0,0.0,0.0,0.0,0.0,0.0,0.0,0.0,0.0,0.0,0.0,0.0,0.0,0.0,0.0,0.0,0.0,0.0,0.0,0.0,0.0,0.0,0.0,0.0,0.0,0.0,0.0,0.0,0.0,0.0,0.0,0.0,0.0,0.0,0.0,0.0,0.0,0.0,0.0,0.0,0.0,0.0,0.0,0.0,0.0,0.0,0.0,0.0,0.0,0.0,0.0,0.0,0.0,0.0,0.0,0.0,0.0,0.0,0.0,0.0,0.0,0.0,0.0,0.0,0.0,0.0,0.0,0.0,0.0,0.0,0.0,0.0,0.0,0.0,0.0,0.0,0.0,0.0,0.0,0.0,0.0,0.0,0.0,0.0,0.0,0.0,0.0,0.0,0.0,0.0,0.0,0.0,0.0,0.0,0.0,0.0,0.0,0.0,0.0,0.0,0.0,0.0,0.0,0.0,0.0,0.0,0.0,0.0,0.0,0.0,0.0,0.0,0.0,0.0,0.0,0.0,0.0,0.0,0.0,0.0,0.0,0.0,0.0,0.0,0.0,0.0,0.0,0.0,0.0,0.0,0.0,0.0,0.0,0.0,0.0,0.0,0.0,0.0,0.0,0.0,0.0,0.0,0.0,0.0,0.0,0.0,0.0,0.0,0.0,0.0,0.0,0.0,0.0,0.0,0.0,0.0,0.0,0.0,0.0,0.0,0.0,0.0,0.0,0.0,0.0,0.0,0.0,0.0,0.0,0.0,0.0,0.0,0.0,0.0,0.0,0.0,0.0,0.0,0.0,0.0,0.0,0.0,0.0,0.0,0.0,0.0,0.0,0.0,0.0,0.0,0.0,0.0,0.0,0.0,0.0,0.0,0.0,0.0,0.0,0.0,0.0,0.0,0.0,0.0,0.0,0.0,0.0,0.0,0.0,0.0,0.0,0.0,0.0,0.0,0.0,0.0,-0.7125,0.0,0.0,0.0,0.0,0.0,0.0,0.0,0.0,0.0,0.0,0.0,0.0,0.0,0.0,0.0,0.0,0.0,0.0,0.0,0.0,0.0,0.0,0.0,0.0,0.0,0.0,0.0,0.0,0.0,0.0,0.0,0.0,0.0,0.0,0.0,0.0,0.0,0.0,0.0,0.0,0.0,0.0,0.0,0.0,0.0,0.0,0.0,0.0,0.0,0.0,0.0,0.0,0.0,0.0,0.0,0.0,0.0,0.0,0.0,0.0,0.0,0.0,0.0,0.0,0.0,0.0,0.0,0.0,0.0,0.0,0.0,0.0,0.0,0.0,0.0,0.0,0.0,0.0,0.0,0.0,0.0,0.0,0.0,0.0,0.0,0.0,0.0,0.0,0.0,0.0,0.0,0.0,0.0,0.0,0.0,0.0,0.0,0.0,0.0,0.0,0.0,0.0,0.0,0.0,0.0,0.0,0.0,0.0,0.0,0.0,-0.6535,-0.6773,-0.686,-0.7,-0.72,0.0,0.0,0.0,0.0,0.0,0.0,0.0,0.0,0.0,0.0,0.0,0.0,0.0,0.0,0.0,0.0,0.0,0.0,0.0,0.0,0.0,0.0,0.0,0.0,0.0,0.0,0.0,0.0,0.0,0.0,0.0,0.0,0.0,0.0,0.0,0.0,0.0,0.0,0.0,0.0,0.0,0.0,0.0,0.0,0.0,0.0,0.0,0.0,0.0,0.0,0.0,0.0,0.0,0.0,0.0,0.0,0.0,0.0,0.0,0.0,0.0,0.0,0.0,0.0,0.0,0.0,0.0,0.0,0.0,0.0,0.0,0.0,0.0,0.0,0.0,0.0,0.0,0.0,0.0,0.0,0.0,0.0,0.0,0.0,0.0,0.0,0.0,0.0,0.0,0.0,0.0,0.0,0.0,0.0,0.0,0.0,0.0,0.0,0.0,0.0,0.0,0.0,0.0,0.0,0.0,0.0,0.0,0.0,0.0,0.0,0.0,0.0,-0.679,-0.6958,-0.719,0.0,0.0,0.0,0.0,0.0,0.0,0.0,0.0,0.0,0.0,0.0,0.0,0.0,0.0,0.0,0.0,0.0,0.0,0.0,0.0,0.0,0.0,0.0,0.0,0.0,0.0,0.0,0.0,0.0,0.0,0.0,0.0,0.0,0.0,0.0,0.0,0.0,0.0,0.0,0.0,0.0,0.0,0.0,0.0,0.0,0.0,0.0,0.0,0.0,0.0,0.0,0.0,0.0,0.0,0.0,0.0,0.0,0.0,0.0,0.0,0.0,0.0,0.0,0.0,0.0,0.0,0.0,0.0,0.0,0.0,0.0,0.0,0.0,0.0,0.0,0.0,0.0,0.0,0.0,0.0,0.0,0.0,0.0,0.0,0.0,0.0,0.0,0.0,0.0,0.0,0.0,0.0,0.0,0.0,0.0,0.0,0.0,0.0,0.0,0.0,0.0,0.0,0.0,0.0,0.0,0.0,0.0,0.0,0.0,0.0,-0.6498,-0.6708,-0.6704,0.0,-0.7144,0.0,0.0,0.0,0.0,0.0,0.0,0.0,0.0,0.0,0.0,0.0,0.0,0.0,0.0,0.0,0.0,0.0,0.0,0.0,0.0,0.0,0.0,0.0,0.0,0.0,0.0,0.0,0.0,0.0,0.0,0.0,0.0,0.0,0.0,0.0,0.0,0.0,0.0,0.0,0.0,0.0,0.0,0.0,0.0,0.0,0.0,0.0,0.0,0.0,0.0,0.0,0.0,0.0,0.0,0.0,0.0,0.0,0.0,0.0,0.0,0.0,0.0,0.0,0.0,0.0,0.0,0.0,0.0,0.0,0.0,0.0,0.0,0.0,0.0,0.0,0.0,0.0,0.0,0.0,0.0,0.0,0.0,0.0,0.0,0.0,0.0,0.0,0.0,0.0,0.0,0.0,0.0,0.0,0.0,0.0,0.0,0.0,0.0,0.0,0.0,0.0,0.0,0.0,0.0,0.0,0.0,0.0,0.0,0.0,0.0,-0.6363,-0.6515,-0.6642,-0.6855,0.0,0.0,0.0,0.0,0.0,0.0,0.0,0.0,0.0,0.0,0.0,0.0,0.0,0.0,0.0,0.0,0.0,0.0,0.0,0.0,0.0,0.0,0.0,0.0,0.0,0.0,0.0,0.0,0.0,0.0,0.0,0.0,0.0,0.0,0.0,0.0,0.0,0.0,0.0,0.0,0.0,0.0,0.0,0.0,0.0,0.0,0.0,0.0,0.0,0.0,0.0,0.0,0.0,0.0,0.0,0.0,0.0,0.0,0.0,0.0,0.0,0.0,0.0,0.0,0.0,0.0,0.0,0.0,0.0,0.0,0.0,0.0,0.0,0.0,0.0,0.0,0.0,0.0,0.0,0.0,0.0,0.0,0.0,0.0,0.0,0.0,0.0,0.0,0.0,0.0,0.0,0.0,0.0,0.0,0.0,0.0,0.0,0.0,0.0,0.0,0.0,0.0,0.0,0.0,0.0,0.0,0.0,0.0,0.0,0.0,-0.6099,-0.6268,-0.6404,-0.6597,-0.6823,-0.7052,0.0,0.0,0.0,0.0,0.0,0.0,0.0,0.0,0.0,0.0,0.0,0.0,0.0,0.0,0.0,0.0,0.0,0.0,0.0,0.0,0.0,0.0,0.0,0.0,0.0,0.0,0.0,0.0,0.0,0.0,0.0,0.0,0.0,0.0,0.0,0.0,0.0,0.0,0.0,0.0,0.0,0.0,0.0,0.0,0.0,0.0,0.0,0.0,0.0,0.0,0.0,0.0,0.0,0.0,0.0,0.0,0.0,0.0,0.0,0.0,0.0,0.0,0.0,0.0,0.0,0.0,0.0,0.0,0.0,0.0,0.0,0.0,0.0,0.0,0.0,0.0,0.0,0.0,0.0,0.0,0.0,0.0,0.0,0.0,0.0,0.0,0.0,0.0,0.0,0.0,0.0,0.0,0.0,0.0,0.0,0.0,0.0,0.0,0.0,0.0,0.0,0.0,0.0,0.0,0.0,0.0,0.0,0.0,-0.5892,-0.6086,-0.6251,-0.6404,-0.6593,-0.6708,0.0,0.0,0.0,0.0,0.0,0.0,0.0,0.0,0.0,0.0,0.0,0.0,0.0,0.0,0.0,0.0,0.0,0.0,0.0,0.0,0.0,0.0,0.0,0.0,0.0,0.0,0.0,0.0,0.0,0.0,0.0,0.0,0.0,0.0,0.0,0.0,0.0,0.0,0.0,0.0,0.0,0.0,0.0,0.0,0.0,0.0,0.0,0.0,0.0,0.0,0.0,0.0,0.0,0.0,0.0,0.0,0.0,0.0,0.0,0.0,0.0,0.0,0.0,0.0,0.0,0.0,0.0,0.0,0.0,0.0,0.0,0.0,0.0,0.0,0.0,0.0,0.0,0.0,0.0,0.0,0.0,0.0,0.0,0.0,0.0,0.0,0.0,0.0,0.0,0.0,0.0,0.0,0.0,0.0,0.0,0.0,0.0,0.0,0.0,0.0,0.0,0.0,0.0,0.0,0.0,0.0,0.0,0.0,0.0,-0.5719,-0.6033,-0.6268,-0.6404,-0.6465,-0.6581,0.0,0.0,0.0,0.0,0.0,0.0,0.0,0.0,0.0,0.0,0.0,0.0,0.0,0.0,0.0,0.0,0.0,0.0,0.0,0.0,0.0,0.0,0.0,0.0,0.0,0.0,0.0,0.0,0.0,0.0,0.0,0.0,0.0,0.0,0.0,0.0,0.0,0.0,0.0,0.0,0.0,0.0,0.0,0.0,0.0,0.0,0.0,0.0,0.0,0.0,0.0,0.0,0.0,0.0,0.0,0.0,0.0,0.0,0.0,0.0,0.0,0.0,0.0,0.0,0.0,0.0,0.0,0.0,0.0,0.0,0.0,0.0,0.0,0.0,0.0,0.0,0.0,0.0,0.0,0.0,0.0,0.0,0.0,0.0,0.0,0.0,0.0,0.0,0.0,0.0,0.0,0.0,0.0,0.0,0.0,0.0,0.0,0.0,0.0,0.0,0.0,0.0,0.0,0.0,0.0,0.0,0.0,0.0,0.0,-0.56,0.0,-0.6231,-0.6334,-0.6371,-0.6486,0.0,0.0,0.0,0.0,0.0,0.0,0.0,0.0,0.0,0.0,0.0,0.0,0.0,0.0,0.0,0.0,0.0,0.0,0.0,0.0,0.0,0.0,0.0,0.0,0.0,0.0,0.0,0.0,0.0,0.0,0.0,0.0,0.0,0.0,0.0,0.0,0.0,0.0,0.0,0.0,0.0,0.0,0.0,0.0,0.0,0.0,0.0,0.0,0.0,0.0,0.0,0.0,0.0,0.0,0.0,0.0,0.0,0.0,0.0,0.0,0.0,0.0,0.0,0.0,0.0,0.0,0.0,0.0,0.0,0.0,0.0,0.0,0.0,0.0,0.0,0.0,0.0,0.0,0.0,0.0,0.0,0.0,0.0,0.0,0.0,0.0,0.0,0.0,0.0,0.0,0.0,0.0,0.0,0.0,0.0,0.0,0.0,0.0,0.0,0.0,0.0,0.0,0.0,0.0,0.0,0.0,0.0,0.0,-0.5472,-0.5627,-0.5995,-0.6209,-0.6206,-0.6346,-0.6408,0.0,0.0,0.0,0.0,0.0,0.0,0.0,0.0,0.0,0.0,0.0,0.0,0.0,0.0,0.0,0.0,0.0,0.0,0.0,0.0,0.0,0.0,0.0,0.0,0.0,0.0,0.0,0.0,0.0,0.0,0.0,0.0,0.0,0.0,0.0,0.0,0.0,0.0,0.0,0.0,0.0,0.0,0.0,0.0,0.0,0.0,0.0,0.0,0.0,0.0,0.0,0.0,0.0,0.0,0.0,0.0,0.0,0.0,0.0,0.0,0.0,0.0,0.0,0.0,0.0,0.0,0.0,0.0,0.0,0.0,0.0,0.0,0.0,0.0,0.0,0.0,0.0,0.0,0.0,0.0,0.0,0.0,0.0,0.0,0.0,0.0,0.0,0.0,0.0,0.0,0.0,0.0,0.0,0.0,0.0,0.0,0.0,0.0,0.0,0.0,0.0,0.0,0.0,0.0,0.0,0.0,0.0,0.0,0.0,-0.5951,-0.6189,-0.6385,-0.6485,-0.6569,-0.6611,0.0,0.0,0.0,0.0,0.0,0.0,0.0,0.0,0.0,0.0,0.0,0.0,0.0,0.0,0.0,0.0,0.0,0.0,0.0,0.0,0.0,0.0,0.0,0.0,0.0,0.0,0.0,0.0,0.0,0.0,0.0,0.0,0.0,0.0,0.0,0.0,0.0,0.0,0.0,0.0,0.0,0.0,0.0,0.0,0.0,0.0,0.0,0.0,0.0,0.0,0.0,0.0,0.0,0.0,0.0,0.0,0.0,0.0,0.0,0.0,0.0,0.0,0.0,0.0,0.0,0.0,0.0,0.0,0.0,0.0,0.0,0.0,0.0,0.0,0.0,0.0,0.0,0.0,0.0,0.0,0.0,0.0,0.0,0.0,0.0,0.0,0.0,0.0,0.0,0.0,0.0,0.0,0.0,0.0,0.0,0.0,0.0,0.0,0.0,0.0,0.0,0.0,0.0,0.0,0.0,0.0,0.0,0.0,0.0,-0.6173,-0.6305,-0.64,-0.6527,-0.6604,-0.6692,-0.6679,0.0,0.0,0.0,0.0,0.0,0.0,0.0,0.0,0.0,0.0,0.0,0.0,0.0,0.0,0.0,0.0,0.0,0.0,0.0,0.0,0.0,0.0,0.0,0.0,0.0,0.0,0.0,0.0,0.0,0.0,0.0,0.0,0.0,0.0,0.0,0.0,0.0,0.0,0.0,0.0,0.0,0.0,0.0,0.0,0.0,0.0,0.0,0.0,0.0,0.0,0.0,0.0,0.0,0.0,0.0,0.0,0.0,0.0,0.0,0.0,0.0,0.0,0.0,0.0,0.0,0.0,0.0,0.0,0.0,0.0,0.0,0.0,0.0,0.0,0.0,0.0,0.0,0.0,0.0,0.0,0.0,0.0,0.0,0.0,0.0,0.0,0.0,0.0,0.0,0.0,0.0,0.0,0.0,0.0,0.0,0.0,0.0,0.0,0.0,0.0,0.0,0.0,0.0,0.0,0.0,0.0,0.0,0.0,-0.6263,-0.6291,-0.6337,-0.6432,-0.6547,-0.662,0.0,0.0,0.0,0.0,0.0,0.0,0.0,0.0,0.0,0.0,0.0,0.0,0.0,0.0,0.0,0.0,0.0,0.0,0.0,0.0,0.0,0.0,0.0,0.0,0.0,0.0,0.0,0.0,0.0,0.0,0.0,0.0,0.0,0.0,0.0,0.0,0.0,0.0,0.0,0.0,0.0,0.0,0.0,0.0,0.0,0.0,0.0,0.0,0.0,0.0,0.0,0.0,0.0,0.0,0.0,0.0,0.0,0.0,0.0,0.0,0.0,0.0,0.0,0.0,0.0,0.0,0.0,0.0,0.0,0.0,0.0,0.0,0.0,0.0,0.0,0.0,0.0,0.0,0.0,0.0,0.0,0.0,0.0,0.0,0.0,0.0,0.0,0.0,0.0,0.0,0.0,0.0,0.0,0.0,0.0,0.0,0.0,0.0,0.0,0.0,0.0,0.0,0.0,0.0,0.0,0.0,0.0,0.0,0.0,-0.6079,-0.6173,-0.6363,-0.6682,-0.6717,-0.6705,0.0,0.0,0.0,0.0,0.0,0.0,0.0,0.0,0.0,0.0,0.0,0.0,0.0,0.0,0.0,0.0,0.0,0.0,0.0,0.0,0.0,0.0,0.0,0.0,0.0,0.0,0.0,0.0,0.0,0.0,0.0,0.0,0.0,0.0,0.0,0.0,0.0,0.0,0.0,0.0,0.0,0.0,0.0,0.0,0.0,0.0,0.0,0.0,0.0,0.0,0.0,0.0,0.0,0.0,0.0,0.0,0.0,0.0,0.0,0.0,0.0,0.0,0.0,0.0,0.0,0.0,0.0,0.0,0.0,0.0,0.0,0.0,0.0,0.0,0.0,0.0,0.0,0.0,0.0,0.0,0.0,0.0,0.0,0.0,0.0,0.0,0.0,0.0,0.0,0.0,0.0,0.0,0.0,0.0,0.0,0.0,0.0,0.0,0.0,0.0,0.0,0.0,0.0,0.0,0.0,0.0,0.0,0.0,-0.5672,-0.5787,-0.5918,-0.6108,-0.642,-0.6557,-0.665,0.0,0.0,0.0,0.0,0.0,0.0,0.0,0.0,0.0,0.0,0.0,0.0,0.0,0.0,0.0,0.0,0.0,0.0,0.0,0.0,0.0,0.0,0.0,0.0,0.0,0.0,0.0,0.0,0.0,0.0,0.0,0.0,0.0,0.0,0.0,0.0,0.0,0.0,0.0,0.0,0.0,0.0,0.0,0.0,0.0,0.0,0.0,0.0,0.0,0.0,0.0,0.0,0.0,0.0,0.0,0.0,0.0,0.0,0.0,0.0,0.0,0.0,0.0,0.0,0.0,0.0,0.0,0.0,0.0,0.0,0.0,0.0,0.0,0.0,0.0,0.0,0.0,0.0,0.0,0.0,0.0,0.0,0.0,0.0,0.0,0.0,0.0,0.0,0.0,0.0,0.0,0.0,0.0,0.0,0.0,0.0,0.0,0.0,0.0,0.0,0.0,0.0,0.0,0.0,0.0,0.0,0.0,0.0,-0.5011,-0.5437,-0.5578,-0.5709,-0.5905,-0.622,-0.652,0.0,0.0,0.0,0.0,0.0,0.0,0.0,0.0,0.0,0.0,0.0,0.0,0.0,0.0,0.0,0.0,0.0,0.0,0.0,0.0,0.0,0.0,0.0,0.0,0.0,0.0,0.0,0.0,0.0,0.0,0.0,0.0,0.0,0.0,0.0,0.0,0.0,0.0,0.0,0.0,0.0,0.0,0.0,0.0,0.0,0.0,0.0,0.0,0.0,0.0,0.0,0.0,0.0,0.0,0.0,0.0,0.0,0.0,0.0,0.0,0.0,0.0,0.0,0.0,0.0,0.0,0.0,0.0,0.0,0.0,0.0,0.0,0.0,0.0,0.0,0.0,0.0,0.0,0.0,0.0,0.0,0.0,0.0,0.0,0.0,0.0,0.0,0.0,0.0,0.0,0.0,0.0,0.0,0.0,0.0,0.0,0.0,0.0,0.0,0.0,0.0,0.0,0.0,0.0,0.0,0.0,0.0,0.0,-0.4869,-0.5026,-0.5166,-0.5443,-0.5873,-0.6331,-0.6474,0.0,0.0,0.0,0.0,0.0,0.0,0.0,0.0,0.0,0.0,0.0,0.0,0.0,0.0,0.0,0.0,0.0,0.0,0.0,0.0,0.0,0.0,0.0,0.0,0.0,0.0,0.0,0.0,0.0,0.0,0.0,0.0,0.0,0.0,0.0,0.0,0.0,0.0,0.0,0.0,0.0,0.0,0.0,0.0,0.0,0.0,0.0,0.0,-0.4843,0.0,0.0,0.0,0.0,0.0,0.0,0.0,0.0,0.0,0.0,0.0,0.0,0.0,0.0,0.0,0.0,0.0,0.0,0.0,0.0,0.0,0.0,0.0,0.0,0.0,0.0,0.0,0.0,0.0,0.0,0.0,0.0,0.0,0.0,0.0,0.0,0.0,0.0,0.0,0.0,0.0,0.0,0.0,0.0,0.0,0.0,0.0,0.0,0.0,0.0,0.0,0.0,0.0,0.0,0.0,0.0,0.0,0.0,0.0,-0.4307,-0.46,-0.4755,-0.4988,-0.5377,-0.5958,-0.6248,0.0,0.0,0.0,0.0,0.0,0.0,0.0,0.0,0.0,0.0,0.0,0.0,0.0,0.0,0.0,0.0,0.0,0.0,0.0,0.0,0.0,0.0,0.0,0.0,0.0,0.0,0.0,0.0,0.0,0.0,0.0,0.0,0.0,0.0,0.0,0.0,0.0,0.0,0.0,0.0,0.0,0.0,0.0,0.0,0.0,0.0,0.0,0.0,0.0,0.0,0.0,0.0,0.0,0.0,0.0,0.0,0.0,0.0,0.0,0.0,0.0,0.0,0.0,0.0,0.0,0.0,0.0,0.0,0.0,0.0,0.0,0.0,0.0,0.0,0.0,0.0,0.0,0.0,0.0,0.0,0.0,0.0,0.0,0.0,0.0,0.0,0.0,0.0,0.0,0.0,0.0,0.0,0.0,0.0,0.0,0.0,0.0,0.0,0.0,0.0,0.0,0.0,0.0,0.0,0.0,0.0,0.0,-0.3413,-0.3601,-0.4106,-0.4348,-0.4551,-0.4741,-0.5409,-0.5891,-0.6139,0.0,0.0,0.0,0.0,0.0,0.0,0.0,0.0,0.0,0.0,0.0,0.0,0.0,0.0,0.0,0.0,0.0,0.0,0.0,0.0,0.0,0.0,0.0,0.0,0.0,0.0,0.0,0.0,0.0,0.0,0.0,0.0,0.0,0.0,0.0,0.0,0.0,0.0,-0.6038,-0.6179,0.0,0.0,0.0,0.0,0.0,0.0,0.0,0.0,-0.5645,0.0,0.0,0.0,0.0,0.0,0.0,0.0,0.0,0.0,0.0,0.0,0.0,0.0,0.0,0.0,0.0,0.0,0.0,0.0,0.0,0.0,0.0,0.0,0.0,0.0,0.0,0.0,0.0,0.0,0.0,0.0,0.0,0.0,0.0,0.0,0.0,0.0,0.0,0.0,0.0,0.0,0.0,0.0,0.0,0.0,0.0,0.0,0.0,0.0,0.0,0.0,0.0,0.0,0.0,0.0,0.0,-0.2794,-0.302,-0.3228,-0.3388,-0.4016,-0.44,-0.4553,-0.4983,-0.5312,-0.5474,0.0,0.0,0.0,0.0,0.0,0.0,0.0,0.0,0.0,0.0,0.0,0.0,0.0,0.0,0.0,0.0,0.0,0.0,0.0,0.0,0.0,0.0,0.0,0.0,0.0,0.0,0.0,0.0,0.0,0.0,0.0,0.0,0.0,0.0,0.0,0.0,0.0,0.0,0.0,-0.6434,-0.6527,0.0,0.0,0.0,0.0,0.0,0.0,0.0,0.0,-0.5703,0.0,0.0,0.0,0.0,0.0,0.0,0.0,0.0,0.0,0.0,0.0,0.0,0.0,0.0,0.0,0.0,0.0,0.0,0.0,0.0,0.0,0.0,0.0,0.0,0.0,0.0,0.0,0.0,0.0,0.0,0.0,0.0,0.0,0.0,0.0,0.0,0.0,0.0,0.0,0.0,0.0,0.0,0.0,0.0,0.0,0.0,0.0,0.0,0.0,0.0,0.0,0.0,0.0,0.0,0.0,-0.2428,-0.2479,-0.2752,-0.3204,-0.3551,-0.3925,-0.4338,-0.4646,-0.4897,0.0,0.0,0.0,0.0,0.0,0.0,0.0,0.0,0.0,0.0,0.0,0.0,0.0,0.0,0.0,0.0,0.0,0.0,0.0,0.0,0.0,0.0,0.0,0.0,0.0,0.0,0.0,0.0,0.0,0.0,0.0,0.0,0.0,0.0,0.0,0.0,0.0,0.0,0.0,0.0,-0.6372,-0.6433,-0.6355,0.0,0.0,0.0,0.0,0.0,0.0,-0.6097,-0.5851,0.0,0.0,0.0,0.0,0.0,0.0,0.0,0.0,0.0,0.0,0.0,0.0,0.0,0.0,0.0,0.0,0.0,0.0,0.0,0.0,0.0,0.0,0.0,0.0,0.0,0.0,0.0,0.0,0.0,0.0,0.0,0.0,0.0,0.0,0.0,0.0,0.0,0.0,0.0,0.0,0.0,0.0,0.0,0.0,0.0,0.0,0.0,0.0,0.0,0.0,0.0,0.0,0.0,0.0,0.0,-0.2136,-0.2061,-0.2298,-0.2928,-0.3104,-0.3444,-0.3934,-0.431,-0.4607,0.0,0.0,0.0,0.0,0.0,0.0,0.0,0.0,0.0,0.0,0.0,0.0,0.0,0.0,0.0,0.0,0.0,0.0,0.0,0.0,0.0,0.0,0.0,0.0,0.0,0.0,0.0,0.0,0.0,0.0,0.0,0.0,0.0,0.0,0.0,0.0,0.0,0.0,0.0,0.0,0.0,-0.6264,-0.6325,-0.6273,0.0,0.0,0.0,0.0,-0.658,-0.6218,0.0,0.0,0.0,0.0,0.0,0.0,0.0,0.0,0.0,0.0,0.0,0.0,0.0,0.0,0.0,0.0,0.0,0.0,0.0,0.0,0.0,0.0,0.0,0.0,0.0,0.0,0.0,0.0,0.0,0.0,0.0,0.0,0.0,0.0,0.0,0.0,0.0,0.0,0.0,0.0,0.0,0.0,0.0,0.0,0.0,0.0,0.0,0.0,0.0,0.0,0.0,0.0,0.0,0.0,0.0,0.0,-0.1687,-0.19,-0.2047,-0.2173,-0.2828,-0.3196,-0.3171,-0.4023,-0.4447,0.0,0.0,0.0,0.0,0.0,0.0,0.0,0.0,0.0,0.0,0.0,0.0,0.0,0.0,0.0,0.0,0.0,0.0,0.0,0.0,0.0,0.0,0.0,0.0,0.0,0.0,0.0,0.0,0.0,0.0,0.0,0.0,0.0,0.0,0.0,0.0,0.0,0.0,0.0,0.0,0.0,-0.6379,-0.6386,-0.6376,-0.6399,0.0,0.0,-0.6361,-0.6427,-0.5944,0.0,0.0,0.0,0.0,0.0,0.0,0.0,0.0,0.0,0.0,0.0,0.0,0.0,0.0,0.0,0.0,0.0,0.0,0.0,0.0,0.0,0.0,0.0,0.0,0.0,0.0,0.0,0.0,0.0,0.0,0.0,0.0,0.0,0.0,0.0,0.0,0.0,0.0,0.0,0.0,0.0,0.0,0.0,0.0,0.0,0.0,0.0,0.0,0.0,0.0,0.0,0.0,0.0,0.0,0.0,-0.1313,-0.1153,-0.1426,-0.1617,-0.1794,-0.2424,-0.2825,-0.3003,-0.3716,-0.4173,0.0,0.0,0.0,0.0,0.0,0.0,0.0,0.0,0.0,0.0,0.0,0.0,0.0,0.0,0.0,0.0,0.0,0.0,0.0,0.0,0.0,0.0,0.0,0.0,0.0,0.0,0.0,0.0,0.0,0.0,0.0,0.0,0.0,0.0,0.0,0.0,0.0,0.0,0.0,0.0,0.0,0.0,-0.6144,-0.6066,0.0,0.0,0.0,-0.5857,-0.6133,0.0,0.0,0.0,0.0,0.0,0.0,0.0,0.0,0.0,0.0,0.0,0.0,0.0,0.0,0.0,0.0,0.0,0.0,0.0,0.0,0.0,0.0,0.0,0.0,0.0,0.0,0.0,0.0,0.0,0.0,0.0,0.0,0.0,0.0,0.0,0.0,0.0,0.0,0.0,0.0,0.0,0.0,0.0,0.0,0.0,0.0,0.0,0.0,0.0,0.0,0.0,0.0,0.0,0.0,0.0,0.0,0.0,-0.0791,-0.1003,-0.1212,-0.1516,-0.1943,-0.2403,-0.2792,-0.3312,0.0,0.0,0.0,0.0,0.0,0.0,0.0,0.0,0.0,0.0,0.0,0.0,0.0,0.0,0.0,0.0,0.0,0.0,0.0,0.0,0.0,0.0,0.0,0.0,0.0,0.0,0.0,-0.5705,0.0,0.0,0.0,0.0,0.0,0.0,0.0,0.0,0.0,0.0,0.0,0.0,0.0,0.0,-0.559,-0.579,-0.5708,-0.5673,0.0,0.0,-0.5431,-0.5818,-0.5418,-0.5069,0.0,0.0,0.0,0.0,0.0,0.0,0.0,0.0,0.0,0.0,0.0,0.0,0.0,0.0,0.0,0.0,0.0,0.0,0.0,0.0,0.0,0.0,0.0,0.0,0.0,0.0,0.0,0.0,0.0,0.0,0.0,0.0,0.0,0.0,0.0,0.0,0.0,0.0,0.0,0.0,0.0,0.0,0.0,0.0,0.0,0.0,0.0,0.0,0.0,0.0,0.0,0.0,0.0,0.0,0.0,-0.0806,-0.0808,-0.096,-0.1237,-0.1516,-0.1836,-0.2246,-0.2765,-0.3308,0.0,0.0,0.0,0.0,0.0,0.0,0.0,0.0,0.0,0.0,0.0,0.0,0.0,0.0,0.0,0.0,0.0,0.0,0.0,0.0,0.0,0.0,0.0,0.0,0.0,0.0,0.0,0.0,0.0,0.0,0.0,0.0,0.0,0.0,0.0,0.0,0.0,0.0,0.0,0.0,0.0,-0.5344,-0.5351,-0.5329,-0.5367,0.0,0.0,-0.5363,-0.5511,-0.5193,-0.4909,-0.4911,0.0,0.0,0.0,0.0,0.0,0.0,0.0,0.0,0.0,0.0,0.0,0.0,0.0,0.0,0.0,0.0,0.0,0.0,0.0,0.0,0.0,0.0,0.0,0.0,0.0,0.0,0.0,0.0,0.0,0.0,0.0,0.0,0.0,0.0,0.0,0.0,0.0,0.0,0.0,0.0,0.0,0.0,0.0,0.0,0.0,0.0,0.0,0.0,0.0,0.0,0.0,0.0,0.0,-0.0462,-0.0303,-0.0455,-0.0606,-0.0732,-0.1313,-0.1747,-0.2017,-0.2662,-0.326,0.0,0.0,0.0,0.0,0.0,0.0,0.0,0.0,0.0,0.0,0.0,0.0,0.0,0.0,0.0,0.0,0.0,0.0,0.0,0.0,0.0,0.0,0.0,0.0,0.0,0.0,0.0,0.0,-0.6675,-0.6487,-0.6194,0.0,0.0,0.0,0.0,0.0,0.0,0.0,0.0,0.0,0.0,-0.5273,-0.5336,-0.5399,0.0,0.0,-0.531,-0.5173,-0.5202,-0.499,-0.4836,-0.4782,-0.468,0.0,0.0,0.0,0.0,0.0,0.0,0.0,0.0,0.0,0.0,0.0,0.0,0.0,0.0,0.0,0.0,0.0,0.0,0.0,0.0,0.0,0.0,0.0,0.0,0.0,0.0,0.0,0.0,0.0,0.0,0.0,0.0,0.0,0.0,0.0,0.0,0.0,0.0,0.0,0.0,0.0,0.0,0.0,0.0,0.0,0.0,0.0,0.0,0.0,0.0,0.0,0.0,-0.0146,0.0126,-0.0151,-0.0303,-0.0404,-0.1035,-0.1502,-0.1793,-0.2408,-0.3072,0.0,0.0,0.0,0.0,0.0,0.0,0.0,0.0,0.0,0.0,0.0,0.0,0.0,0.0,0.0,0.0,0.0,0.0,0.0,0.0,0.0,0.0,0.0,0.0,0.0,0.0,0.0,0.0,-0.6823,-0.6575,-0.6019,0.0,0.0,0.0,0.0,0.0,0.0,0.0,0.0,0.0,0.0,-0.5378,-0.5553,-0.5621,-0.5642,-0.564,-0.5426,-0.5242,-0.5176,-0.5034,-0.4896,-0.4836,0.0,0.0,0.0,0.0,0.0,0.0,0.0,0.0,0.0,0.0,0.0,0.0,0.0,0.0,0.0,0.0,0.0,0.0,0.0,0.0,0.0,0.0,0.0,0.0,0.0,0.0,0.0,0.0,0.0,0.0,-0.2311,0.0,0.0,0.0,0.0,0.0,0.0,0.0,0.0,0.0,0.0,0.0,0.0,0.0,0.0,0.0,0.0,0.0,0.0,0.0,0.0,0.0,0.0,0.0122,0.0404,0.0126,-0.0126,-0.0379,-0.0682,-0.1052,-0.1499,-0.1977,-0.255,-0.3325,0.0,0.0,0.0,0.0,0.0,0.0,0.0,0.0,0.0,0.0,0.0,0.0,0.0,0.0,0.0,0.0,0.0,0.0,0.0,0.0,0.0,0.0,0.0,0.0,0.0,0.0,-0.7215,-0.7107,-0.668,0.0,0.0,0.0,0.0,0.0,0.0,0.0,0.0,0.0,0.0,-0.5455,-0.5706,-0.5951,-0.5984,-0.5996,-0.5991,-0.5777,-0.5585,-0.5585,-0.5316,-0.5104,0.0,0.0,0.0,0.0,0.0,0.0,0.0,0.0,0.0,0.0,0.0,0.0,0.0,0.0,0.0,0.0,0.0,0.0,0.0,0.0,0.0,0.0,0.0,0.0,0.0,0.0,0.0,-0.1848,-0.215,0.0,0.0,0.0,0.0,0.0,0.0,0.0,0.0,0.0,0.0,0.0,-0.2382,-0.2359,0.0,0.0,0.0,0.0,0.0,0.0,0.0,0.0,0.0,0.0,0.0,0.0,0.032,0.0404,0.0303,0.0126,-0.0151,-0.0581,-0.0957,-0.1301,-0.1915,-0.264,-0.3403,0.0,0.0,0.0,0.0,0.0,0.0,0.0,0.0,0.0,0.0,0.0,0.0,0.0,0.0,0.0,0.0,0.0,0.0,0.0,0.0,0.0,0.0,0.0,0.0,0.0,-0.7015,0.0,0.0,0.0,0.0,0.0,0.0,0.0,0.0,0.0,0.0,0.0,-0.5378,-0.5482,-0.5757,-0.5952,-0.6063,-0.6177,-0.6265,0.0,0.0,0.0,0.0,0.0,0.0,0.0,0.0,0.0,0.0,0.0,0.0,0.0,0.0,-0.355,-0.3429,-0.3376,-0.3247,-0.2983,0.0,0.0,0.0,0.0,0.0,0.0,0.0,0.0,0.0,0.0,0.0,0.0,0.0,0.0,0.0,0.0,-0.254,0.0,0.0,0.0,0.0,0.0,0.0,0.0,0.0,-0.2205,-0.2194,-0.2194,-0.2194,-0.2194,0.0,-0.2075,-0.195,0.0,0.0,0.0,0.0,0.0,0.0,0.0,0.0,0.0552,0.0566,0.0463,0.0283,-0.0026,-0.0512,-0.0893,-0.1071,-0.1964,-0.2809,-0.358,-0.421,-0.4706,0.0,0.0,0.0,0.0,0.0,0.0,0.0,0.0,0.0,0.0,0.0,0.0,0.0,0.0,0.0,0.0,0.0,0.0,0.0,0.0,0.0,0.0,0.0,-0.7097,0.0,0.0,0.0,0.0,0.0,0.0,0.0,0.0,0.0,-0.5091,-0.545,-0.5777,-0.6031,-0.629,-0.6525,-0.6723,0.0,0.0,0.0,0.0,0.0,0.0,0.0,-0.5943,-0.5683,-0.553,-0.5445,-0.536,-0.4971,-0.4496,-0.4002,0.0,0.0,-0.3645,-0.3561,-0.3453,-0.3177,-0.301,-0.279,-0.2293,-0.2099,-0.1961,0.0,0.0,0.0,0.0,0.0,0.0,0.0,0.0,-0.2115,-0.2364,0.0,-0.2819,0.0,0.0,0.0,0.0,0.0,-0.2177,0.0,0.0,-0.2183,-0.2155,-0.2157,-0.2159,-0.2156,-0.2155,-0.2135,-0.1893,-0.1483,-0.1196,0.0,0.0,0.0,0.0,0.0,0.0,0.0927,0.0878,0.0586,0.0293,0.0,-0.0524,-0.0831,-0.0908,-0.2052,-0.3013,-0.3791,-0.4314,-0.4732,-0.5037,-0.5681,0.0,0.0,0.0,0.0,0.0,0.0,0.0,0.0,0.0,0.0,0.0,0.0,0.0,0.0,0.0,0.0,0.0,0.0,0.0,0.0,-0.7051,0.0,0.0,0.0,0.0,0.0,0.0,0.0,0.0,0.0,0.0,-0.5652,-0.5858,-0.6177,-0.6816,0.0,0.0,0.0,0.0,-0.7988,-0.7988,-0.7763,-0.7503,-0.7147,-0.6564,-0.6131,-0.6131,0.0,0.0,-0.5285,-0.4994,-0.4712,-0.4378,-0.4082,-0.3879,-0.3823,-0.3796,-0.3698,-0.3375,-0.3047,-0.2734,-0.2443,-0.2136,-0.1906,-0.2636,0.0,0.0,0.0,0.0,-0.1941,-0.2155,-0.2437,-0.2568,-0.2752,-0.2971,-0.3062,0.0,0.0,0.0,0.0,0.0,0.0,-0.1839,-0.1834,-0.1859,-0.1758,-0.1577,-0.1576,-0.1421,-0.1216,-0.1216,-0.1138,-0.0983,-0.0724,-0.0554,-0.0525,0.0,0.0,0.0,0.0,0.1108,0.0906,0.08,0.0507,0.0,-0.0584,-0.1236,-0.1998,-0.2251,-0.286,-0.3841,-0.4342,-0.496,-0.5748,-0.6195,0.0,0.0,0.0,0.0,0.0,0.0,0.0,0.0,0.0,0.0,0.0,0.0,0.0,0.0,0.0,0.0,0.0,0.0,0.0,-0.7652,-0.7384,-0.6947,0.0,0.0,0.0,0.0,0.0,0.0,0.0,0.0,0.0,-0.6026,-0.6285,-0.665,0.0,0.0,-0.7892,-0.83,-0.8234,-0.8121,-0.815,-0.7957,0.0,0.0,-0.6959,-0.6623,-0.6416,-0.6172,-0.5904,-0.5626,-0.5297,-0.4994,-0.4649,-0.4272,-0.4042,-0.4019,-0.3912,-0.3691,-0.3356,-0.3031,-0.2708,-0.2446,-0.2121,-0.1886,-0.3527,-0.3288,-0.2672,-0.2419,-0.242,-0.2413,-0.2569,-0.2821,-0.2852,-0.2993,-0.3224,-0.3132,-0.3018,-0.2863,-0.2449,0.0,0.0,0.0,-0.153,-0.1518,-0.1412,-0.1253,-0.112,-0.1093,-0.0986,-0.08,-0.08,-0.0747,-0.064,-0.048,-0.0339,-0.0225,0.0,0.0,0.0913,0.1172,0.1161,0.0898,0.0762,0.0463,0.0,-0.0595,-0.1415,-0.249,-0.242,-0.2883,-0.3932,-0.4395,-0.5078,-0.5963,-0.6438,-0.7042,0.0,0.0,0.0,0.0,0.0,0.0,0.0,0.0,0.0,0.0,0.0,-0.7962,-0.7934,0.0,0.0,0.0,-0.8036,-0.8164,-0.8049,-0.7612,0.0,0.0,0.0,0.0,0.0,0.0,0.0,-0.4537,-0.4938,-0.5554,-0.6424,-0.6691,-0.7068,-0.7703,-0.7941,-0.8165,-0.8515,0.0,-0.8398,-0.8401,-0.8279,-0.8109,-0.7767,-0.7334,-0.6889,-0.644,-0.6271,-0.6146,-0.5925,-0.5508,-0.5154,-0.4897,-0.4479,-0.4093,-0.4093,-0.4004,-0.3878,-0.3665,-0.3359,-0.3024,-0.2721,-0.2404,-0.212,-0.4376,-0.4238,-0.3234,-0.2765,-0.2707,-0.2676,-0.283,-0.3045,-0.3052,-0.3192,-0.3407,-0.3142,-0.2983,-0.2902,-0.2337,0.0,-0.1665,-0.1425,-0.1291,-0.1262,-0.0967,-0.0806,-0.0752,-0.0778,-0.0751,-0.0723,-0.075,-0.0589,-0.0375,-0.0376,-0.0242,0.0,0.0591,0.0866,0.0903,0.1152,0.1134,0.0899,0.0562,0.0253,-0.0056,-0.0634,-0.1464,-0.2564,-0.2545,-0.3012,-0.404,-0.451,-0.5085,-0.5908,-0.6508,-0.7203,-0.8005,0.0,0.0,0.0,0.0,0.0,0.0,0.0,0.0,0.0,0.0,0.0,0.0,0.0,0.0,-0.8624,-0.8906,0.0,-0.8249,-0.7855,0.0,0.0,0.0,-0.5005,-0.4491,-0.4535,-0.4639,-0.4708,0.0,0.0,-0.6745,-0.6998,-0.7378,-0.805,-0.8136,-0.8297,-0.8692,-0.8727,-0.871,-0.8687,-0.8672,-0.8515,-0.8177,-0.7618,-0.6988,-0.6351,-0.623,-0.6245,-0.6182,-0.5727,-0.5304,-0.5212,-0.4625,-0.4143,-0.4142,-0.4139,-0.4107,-0.4101,-0.3833,-0.3475,-0.3178,-0.283,-0.2458,-0.51,-0.4678,-0.4559,-0.4144,-0.3578,-0.337,-0.3313,-0.3402,-0.3491,-0.3558,-0.3617,-0.3349,-0.2935,-0.2448,-0.2102,-0.1785,-0.1468,-0.1411,-0.1238,-0.1007,-0.0921,-0.0744,-0.0509,-0.0509,-0.0393,-0.0222,-0.0194,-0.0166,-0.0111,-0.0084,-0.0085,0.0028,0.0343,0.0655,0.0893,0.096,0.0968,0.0915,0.0572,0.0028,-0.0673,-0.102,-0.1637,-0.2555,-0.2592,-0.305,-0.4071,-0.4598,-0.5303,-0.6227,-0.6789,-0.7561,-0.8559,-0.8549,0.0,0.0,0.0,0.0,0.0,0.0,0.0,0.0,0.0,-0.9132,-0.9444,0.0,-0.9397,0.0,-0.9921,-0.9708,-0.9005,-0.8307,0.0,0.0,-0.5864,-0.5355,-0.4767,-0.475,-0.4743,-0.476,-0.5213,-0.5805,-0.6576,-0.695,-0.7456,-0.8218,-0.8474,-0.8675,-0.9026,-0.8837,-0.871,-0.8683,-0.8497,-0.8297,-0.8186,-0.7699,-0.7033,-0.6384,-0.6341,-0.6421,-0.6456,-0.6055,-0.5655,-0.5393,-0.4959,-0.4561,-0.4294,-0.4264,-0.4262,-0.4224,-0.3897,-0.3576,-0.348,-0.3022,-0.2599,-0.6123,-0.5731,-0.5696,-0.5306,-0.4656,-0.408,-0.387,-0.3849,-0.3776,-0.3748,-0.3719,-0.3253,-0.2709,-0.2121,-0.1974,-0.1709,-0.1384,-0.1237,-0.1001,-0.0677,-0.0559,-0.041,-0.0232,-0.0232,-0.0145,0.0,0.0,0.0,0.0,0.0,0.0,0.0,0.0,0.0176,0.0493,0.061,0.0697,0.0697,0.026,-0.0343,-0.1106,-0.1394,-0.188,-0.2627,-0.2748,-0.3246,-0.4143,-0.4714,-0.5475,-0.6526,-0.724,-0.8031,-0.8947,-0.9092,-0.9318,0.0,0.0,0.0,0.0,0.0,0.0,0.0,0.0,0.0,0.0,0.0,-1.0157,-1.0495,-1.0511,-1.0235,-0.9574,-0.872,-0.7834,-0.702,-0.6432,-0.5867,-0.5317,-0.5391,-0.5403,-0.5322,-0.5747,-0.6315,-0.6988,-0.7306,-0.7739,-0.841,-0.8598,-0.8714,-0.8876,-0.8746,-0.8649,-0.8649,-0.8489,-0.8264,-0.7938,-0.7595,-0.7172,-0.6548,-0.6452,-0.6487,-0.6487,-0.615,-0.5813,-0.5646,-0.5176,-0.474,-0.454,-0.4374,-0.4307,-0.4265,-0.4088,-0.3883,-0.3712,-0.3367,-0.3028,-0.734,-0.7054,-0.6724,-0.633,-0.5808,-0.4906,-0.4434,-0.4279,-0.3994,-0.3851,-0.3703,-0.3079,-0.2517,-0.1985,-0.1927,-0.1719,-0.1393,-0.1067,-0.0741,-0.0415,-0.0118,0.0,0.0,0.0,0.0,0.0,-0.0059,-0.0059,-0.0059,-0.0118,-0.0118,-0.0148,-0.0414,-0.0418,-0.0121,0.0119,0.0207,0.0236,-0.0291,-0.0836,-0.1437,-0.1729,-0.2165,-0.2775,-0.3042,-0.3564,-0.4371,-0.4899,-0.5702,-0.6777,-0.7618,-0.8407,-0.9249,-0.9563,-0.9877,0.0,-1.0257,0.0,0.0,0.0,0.0,0.0,0.0,0.0,0.0,-1.0653,-1.0739,-1.0904,-1.0887,-1.0614,-1.0048,-0.9127,-0.8342,-0.7719,-0.7117,-0.6569,-0.6028,-0.6187,-0.6284,-0.6076,-0.6418,-0.6954,-0.7596,-0.7839,-0.8113,-0.8493,-0.8607,-0.8632,-0.8612,-0.8607,-0.8601,-0.862,-0.862,-0.836,-0.7805,-0.7548,-0.7285,-0.6719,-0.6518,-0.6487,-0.6487,-0.6217,-0.5981,-0.5845,-0.5344,-0.4906,-0.4806,-0.4508,-0.4307,-0.4307,-0.4266,-0.4163,-0.3958,-0.3762,-0.3503,-0.8618,-0.8019,-0.7726,-0.7343,-0.6861,-0.5952,-0.5097,-0.429,-0.4286,-0.4004,-0.3517,-0.315,-0.2752,-0.2386,-0.2111,-0.1807,-0.1469,-0.1132,-0.0796,-0.0459,-0.0153,0.0,0.0,0.0,0.0,0.0,-0.0265,-0.0412,-0.0412,-0.0686,-0.0811,-0.0811,-0.0882,-0.0858,-0.0799,0.0,0.0,0.0,-0.1064,-0.1399,-0.1726,-0.2036,-0.2588,-0.3394,-0.3466,0.0,-0.4974,-0.5333,-0.6012,-0.7068,-0.7487,0.0,0.0,0.0,0.0,0.0,0.0,0.0,0.0,0.0,0.0,0.0,-1.1313,-1.1232,-1.1101,-1.1487,-1.1686,-1.1624,-1.1599,-1.127,-1.0554,-0.9909,-0.9117,-0.8123,-0.7807,-0.739,-0.6776,-0.6745,-0.6815,-0.6885,-0.6986,-0.7281,-0.7772,-0.7987,-0.8194,-0.8548,-0.862,-0.862,-0.862,-0.862,-0.862,-0.862,-0.862,-0.8456,-0.8058,-0.7727,-0.7393,-0.6987,-0.6652,-0.652,-0.6487,-0.6453,-0.625,-0.5981,-0.558,-0.5178,-0.4873,-0.454,-0.4307,-0.4307,-0.4307,-0.4273,-0.4206,-0.3962,-0.3752,-0.9863,0.0,-0.8965,-0.8499,0.0,-0.7207,-0.6372,-0.554,-0.4914,-0.4287,-0.367,-0.3393,-0.2991,-0.2497,-0.2314,-0.1976,-0.1483,-0.1328,-0.0957,-0.0494,-0.034,-0.0246,-0.0244,-0.0244,-0.0334,-0.0483,-0.0663,-0.0754,-0.0754,-0.0912,-0.1068,-0.125,-0.1414,-0.1574,-0.1728,-0.1882,-0.1813,-0.1494,-0.1592,-0.1871,-0.2325,-0.2609,-0.3035,-0.3605,0.0,0.0,0.0,0.0,0.0,0.0,0.0,0.0,0.0,0.0,0.0,-1.0543,-1.0806,-1.0952,-1.0964,-1.1208,-1.1369,-1.1492,-1.1663,-1.1683,-1.1512,-1.1764,-1.1884,-1.1794,-1.1673,-1.1328,-1.0744,-1.0171,-0.9485,-0.876,-0.8356,-0.7936,-0.7477,-0.7266,-0.7216,-0.7322,-0.7397,-0.7632,-0.8073,-0.8252,-0.8418,-0.8587,-0.862,-0.862,-0.862,-0.862,-0.862,-0.862,-0.862,-0.8456,-0.8159,-0.7958,-0.7591,-0.7118,-0.6853,-0.6686,-0.652,-0.6487,-0.642,-0.6183,-0.588,-0.5513,-0.5144,-0.4809,-0.4507,-0.434,-0.4307,-0.4307,-0.4307,-0.4171,-0.4003,-1.1151,-1.0586,-1.0272,-0.975,-0.9113,-0.8419,-0.7717,-0.6891,0.0,0.0,0.0,-0.3731,-0.3269,-0.2745,-0.262,-0.2251,-0.1698,-0.1605,-0.1235,-0.0679,-0.0618,-0.0587,-0.0587,-0.0587,-0.071,-0.0988,-0.1111,-0.1173,-0.1173,-0.1296,-0.1481,-0.1788,-0.2034,-0.2312,-0.259,-0.2868,-0.2745,-0.228,-0.2164,-0.2389,-0.2952,-0.3143,-0.3443,-0.3839,-0.4045,-0.4607,-0.5589,-0.5842,-0.649,-0.7698,-0.8224,-0.8897,-0.9739,-1.0229,-1.0617,-1.0908,-1.1118,-1.1273,-1.1244,-1.1447,-1.1561,-1.1593,-1.1863,-1.202,-1.1878,-1.1841,-1.1851,-1.1851,-1.1512,-1.1152,-1.0819,-1.0243,-0.9731,-0.9335,-0.8854,-0.8427,-0.8116,-0.7841,-0.7778,-0.788,-0.7983,-0.8154,-0.8566,-0.8731,-0.879,-0.879,-0.8856,-0.8756,-0.8687,-0.8653,-0.862,-0.862,-0.862,-0.8487,-0.8256,-0.8123,-0.7856,-0.7352,-0.7121,-0.6886,-0.6654,-0.652,-0.6487,-0.6487,-0.6183,-0.578,-0.5446,-0.5044,-0.4707,-0.4374,-0.4307,-0.4307,-0.4307,-0.4307,-0.4206,-1.2543,-1.1828,-1.1479,-1.1012,-1.0456,-0.9508,-0.8443,-0.7232,-0.5912,-0.5116,-0.4718,-0.413,-0.379,-0.3667,-0.3145,-0.2715,-0.2344,-0.2066,-0.1728,0.0,-0.1081,-0.0926,-0.0926,-0.0926,-0.0957,-0.105,-0.1573,-0.185,-0.1912,-0.2406,-0.2745,-0.2775,-0.2837,-0.2899,-0.2929,-0.2991,-0.3115,-0.3269,-0.2986,-0.2994,-0.3317,-0.3361,-0.3777,-0.4519,-0.4592,-0.517,-0.6391,-0.6476,-0.7029,-0.8214,-0.8355,-0.8849,-0.9716,-1.0141,-1.044,-1.0735,-1.1179,-1.1459,-1.1468,-1.1664,-1.1801,-1.1951,-1.215,-1.2255,-1.2231,-1.2085,-1.1965,-1.1957,-1.1549,-1.1152,-1.0849,-1.0456,-0.997,-0.94,-0.9217,-0.9065,-0.8763,-0.8671,-0.8703,-0.8928,-0.9077,-0.9124,-0.9378,-0.948,-0.9495,-0.9528,-0.9425,-0.9392,-0.9086,-0.8787,-0.862,-0.862,-0.862,-0.8587,-0.849,-0.8256,-0.8058,-0.7958,-0.7386,-0.6987,-0.692,-0.6654,-0.652,-0.6487,-0.6183,-0.5813,-0.548,-0.5076,-0.474,-0.4406,-0.434,-0.4307,-0.4307,-0.4307,-0.4273,-1.3711,-1.2913,-1.269,-1.2235,-1.1592,-1.0567,-0.9569,-0.8626,-0.7678,-0.6672,-0.5669,-0.5022,-0.4619,-0.4404,-0.379,-0.333,-0.3022,-0.2683,-0.2375,-0.2067,-0.1882,-0.182,-0.182,-0.182,-0.1913,-0.2098,-0.2406,-0.2528,-0.259,-0.3053,-0.3331,-0.3515,-0.3855,-0.4039,-0.4039,-0.4039,-0.4101,-0.4258,-0.3609,-0.3413,-0.3665,-0.3814,-0.4173,-0.474,-0.4878,-0.5471,-0.6552,-0.6581,-0.7166,-0.8355,-0.8381,-0.882,-0.9726,-1.0215,-1.0585,-1.0852,-1.1371,-1.165,-1.1646,-1.1813,-1.1909,-1.2008,-1.2107,-1.2102,-1.2039,-1.196,-1.1768,-1.1483,-1.1272,-1.0977,-1.0588,-1.0399,-1.0092,-0.9636,-0.9427,-0.9247,-0.9126,-0.8976,-0.8989,-0.9263,-0.9315,-0.9423,-0.9664,-0.9697,-0.9697,-0.9697,-0.9697,-0.9628,-0.9458,-0.9292,-0.9026,-0.869,-0.862,-0.862,-0.8587,-0.849,-0.8323,-0.8156,-0.7658,-0.7223,-0.702,-0.6719,-0.652,-0.6487,-0.6317,-0.6083,-0.5748,-0.5379,-0.501,-0.464,-0.4407,-0.434,-0.4307,-0.4307,-0.4307,-1.4874,-1.407,-1.3918,-1.3384,-1.2653,-1.1829,-1.0993,-1.0199,-0.9684,-0.8653,-0.7255,-0.6217,-0.5602,-0.5293,-0.4558,-0.4069,-0.3793,-0.3454,-0.3144,-0.2837,-0.2805,-0.2805,-0.2805,-0.2805,-0.2959,-0.3207,-0.3268,-0.33,-0.3361,-0.364,-0.3916,-0.416,-0.4655,-0.4904,-0.4904,-0.4904,-0.4904,-0.4872,-0.4165,-0.3919,-0.4133,-0.4326,-0.4603,-0.4932,-0.5148,-0.5706,-0.6594,-0.6655,-0.7241,-0.8416,-0.8504,-0.8915,-0.9747,-1.0328,-1.0759,-1.0979,-1.1521,-1.1888,-1.1906,-1.1964,-1.198,-1.1984,-1.1986,-1.1863,-1.1706,-1.1682,-1.1509,-1.1132,-1.0968,-1.0721,-1.0367,-1.0213,-1.0092,-0.9819,-0.9576,-0.9427,-0.9396,-0.9217,-0.9202,-0.9447,-0.951,-0.9645,-0.9845,-0.993,-0.996,-0.996,-0.9927,-0.9897,-0.983,-0.983,-0.9528,-0.9056,-0.8787,-0.872,-0.872,-0.862,-0.8487,-0.8223,-0.7891,-0.7524,-0.7221,-0.6853,-0.6585,-0.6554,-0.6487,-0.6284,-0.5981,-0.5614,-0.5245,-0.4841,-0.4507,-0.4307,-0.4307,-0.4307,-0.4307,-1.6171,-1.5587,-1.5237,-1.4556,-1.3718,-1.3481,-1.2693,-1.1619,-1.1446,-1.0876,-0.9781,-0.7714,-0.6797,-0.6582,-0.5726,-0.5112,-0.4773,-0.4436,-0.4099,-0.3821,-0.3758,-0.3758,-0.379,-0.379,-0.3789,-0.3883,-0.413,-0.4284,-0.4284,-0.4626,-0.481,-0.481,-0.4872,-0.4964,-0.4933,-0.4933,-0.4935,-0.4904,-0.481,-0.4779,-0.4812,-0.4836,-0.4984,-0.5349,-0.5372,-0.5859,-0.6797,-0.6872,-0.7479,-0.8696,-0.8839,-0.9145,-0.9774,-1.0427,-1.0797,-1.0865,-1.1535,-1.2077,-1.2212,-1.2095,-1.2001,-1.1983,-1.1865,-1.1655,-1.1314,-1.1252,-1.1272,-1.1135,-1.0788,-1.0493,-1.0302,-1.0035,-0.9883,-0.9822,-0.9758,-0.9761,-0.9731,-0.9731,-0.9848,-1.0147,-1.0149,-1.0327,-1.0488,-1.0522,-1.0555,-1.0489,-1.0485,-1.0425,-1.019,-1.016,-1.006,-0.9658,-0.9289,-0.9086,-0.9017,-0.8784,-0.862,-0.8523,-0.8256,-0.7886,-0.7512,-0.714,-0.6846,-0.6568,-0.6464,-0.6325,-0.6038,-0.5646,-0.5309,-0.4941,-0.4607,-0.4307,-0.4307,-0.4307,-0.4307,-1.7119,-1.6625,-1.6429,-1.5901,-1.5152,-1.4541,-1.4097,-1.3682,-1.2954,-1.2511,-1.2131,-1.0502,-0.9107,-0.7983,-0.7194,-0.6582,-0.6062,-0.5726,-0.5389,-0.5109,-0.508,-0.5078,-0.5078,-0.5078,-0.5078,-0.5078,-0.5233,-0.5295,-0.5356,-0.5634,-0.5884,-0.607,-0.607,-0.607,-0.6101,-0.607,-0.6072,-0.6101,-0.607,-0.6101,-0.6009,-0.5485,-0.5239,-0.5391,-0.5577,-0.6068,-0.6808,-0.6903,-0.751,-0.8763,-0.8918,-0.9186,-0.9788,-1.0425,-1.0834,-1.0996,-1.172,-1.2177,-1.2127,-1.2041,-1.186,-1.1566,-1.1476,-1.1284,-1.092,-1.0721,-1.0596,-1.0529,-1.0428,-1.0308,-1.0125,-0.9937,-0.9788,-0.9788,-0.9788,-0.9788,-0.9788,-0.9788,-0.9941,-1.0257,-1.0312,-1.0392,-1.0643,-1.0721,-1.0721,-1.0721,-1.0721,-1.0621,-1.0522,-1.0489,-1.0455,-1.0289,-0.9987,-0.9552,-0.9217,-0.9017,-0.882,-0.8623,-0.8323,-0.7982,-0.7779,-0.7268,-0.6856,-0.6638,-0.6472,-0.6329,-0.6194,-0.5879,-0.5522,-0.5118,-0.4641,-0.4307,-0.4307,-0.4307,-0.4307,-1.8187,-1.7774,-1.7621,-1.7148,-1.6428,-1.5777,-1.5472,-1.5365,-1.4483,-1.4088,-1.399,-1.2985,-1.1665,-1.0131,-0.8958,-0.8111,-0.7561,-0.7136,-0.683,-0.658,-0.6488,-0.6429,-0.6427,-0.6458,-0.646,-0.646,-0.6458,-0.646,-0.646,-0.6674,-0.6926,-0.7143,-0.7174,-0.7174,-0.7176,-0.7174,-0.7143,-0.7021,-0.7051,-0.699,-0.6806,-0.6191,-0.582,-0.5853,-0.6037,-0.6438,-0.699,-0.7143,-0.7694,-0.8824,-0.8976,-0.9308,-0.9913,-1.0529,-1.1076,-1.1498,-1.1953,-1.2199,-1.207,-1.1886,-1.1617,-1.123,-1.1052,-1.082,-1.0555,-1.0256,-1.0049,-0.9946,-0.9967,-0.9956,-0.9876,-0.9729,-0.9704,-0.9761,-0.9788,-0.9788,-0.9788,-0.9788,-0.9937,-1.025,-1.0312,-1.0392,-1.0643,-1.0721,-1.0721,-1.0721,-1.0721,-1.0721,-1.0721,-1.0684,-1.0688,-1.0721,-1.0455,-1.012,-0.9516,-0.9183,-0.9017,-0.8773,-0.8468,-0.8142,-0.7925,-0.7357,-0.6868,-0.6692,-0.6389,-0.62,-0.617,-0.5966,-0.5622,-0.5285,-0.4809,-0.4406,-0.434,-0.4307,-0.4307,-1.9454,-1.9159,-1.8858,-1.8225,-1.7432,-1.7359,-1.6999,-1.6474,-1.6093,-1.5636,-1.5098,-1.4703,-1.4148,-1.3184,-1.0955,-0.9566,-0.9153,-0.8601,-0.8294,-0.8233,-0.7958,-0.7808,-0.7808,-0.7808,-0.7811,-0.7808,-0.7808,-0.7808,-0.7811,-0.7841,-0.7839,-0.7872,-0.79,-0.7903,-0.7872,-0.7903,-0.7719,-0.7477,-0.7449,-0.7296,-0.6992,-0.69,-0.687,-0.6867,-0.6839,-0.699,-0.7355,-0.7689,-0.818,-0.8854,-0.9153,-0.9582,-1.0231,-1.0799,-1.1525,-1.2347,-1.2185,-1.2106,-1.2156,-1.1651,-1.1233,-1.1082,-1.0654,-1.0256,-1.0223,-0.9891,-0.9652,-0.9712,-0.9398,-0.9295,-0.9424,-0.9367,-0.946,-0.97,-0.9758,-0.9758,-0.9788,-0.9788,-0.9961,-1.024,-1.0371,-1.0533,-1.0716,-1.0721,-1.0754,-1.0754,-1.0721,-1.0721,-1.0721,-1.0721,-1.0721,-1.0721,-1.0654,-1.0555,-1.0157,-0.9622,-0.9217,-0.8916,-0.8591,-0.8255,-0.792,-0.752,-0.7144,-0.6748,-0.6464,-0.6245,-0.6158,-0.5931,-0.5549,-0.5205,-0.4967,-0.4638,-0.4473,-0.434,-0.4307,-1.9939,-1.9565,-1.9434,-1.9091,-1.8631,-1.841,-1.8178,-1.7932,-1.7447,-1.7033,-1.6587,-1.6062,-1.5402,-1.4614,-1.3659,-1.2311,-1.0868,-1.021,-0.9819,-0.9603,-0.9271,-0.9119,-0.9119,-0.9119,-0.9119,-0.9119,-0.9122,-0.9119,-0.9119,-0.9119,-0.9119,-0.9119,-0.9119,-0.9001,-0.8848,-0.8787,-0.8668,-0.8394,-0.8363,-0.8305,-0.8183,-0.8183,-0.8186,-0.8122,-0.7327,-0.7174,-0.7689,-0.7839,-0.8299,-0.9126,-0.9457,-0.9897,-1.0502,-1.1301,-1.1975,-1.2491,-1.2348,-1.2144,-1.1967,-1.1512,-1.1016,-1.0588,-1.0356,-1.0093,-0.9827,-0.9359,-0.8989,-0.888,-0.8304,-0.8148,-0.8623,-0.8893,-0.9156,-0.9396,-0.9488,-0.9579,-0.9761,-0.9795,-0.9941,-1.0292,-1.059,-1.1006,-1.1201,-1.1185,-1.1016,-1.1016,-1.0853,-1.0721,-1.0721,-1.0721,-1.0721,-1.0721,-1.0684,-1.0651,-1.0555,-0.9924,-0.9404,-0.8992,-0.8653,-0.8345,-0.8018,-0.7673,-0.7299,-0.6925,-0.6603,-0.6259,-0.6166,-0.6001,-0.5624,-0.5501,-0.52,-0.4839,-0.464,-0.444,-0.434,-2.0609,-2.0241,-2.0223,-2.0068,-1.9791,-1.9387,-1.921,-1.9141,-1.859,-1.8198,-1.7838,-1.734,-1.6663,-1.5992,-1.5664,-1.4732,-1.3086,-1.2166,-1.1511,-1.1061,-1.0728,-1.0547,-1.0456,-1.0425,-1.0456,-1.0456,-1.0456,-1.0456,-1.0456,-1.0456,-1.0399,-1.0304,-1.0277,-1.0122,-0.9822,-0.9788,-0.964,-0.943,-0.9339,-0.9278,-0.9065,-0.9037,-0.8976,-0.8824,-0.8091,-0.7814,-0.8208,-0.8299,-0.8665,-0.9369,-0.9839,-1.0355,-1.1073,-1.1823,-1.2362,-1.2592,-1.2435,-1.2144,-1.1813,-1.1416,-1.092,-1.0259,-1.0093,-0.9857,-0.9395,-0.879,-0.842,-0.8143,-0.7657,-0.7431,-0.7774,-0.8112,-0.8491,-0.9034,-0.9247,-0.9369,-0.9606,-0.9731,-0.9999,-1.0433,-1.0889,-1.1347,-1.1677,-1.1512,-1.1347,-1.1214,-1.0986,-1.0853,-1.0721,-1.0721,-1.0721,-1.0721,-1.0721,-1.0717,-1.0598,-1.0141,-0.9638,-0.9228,-0.8688,-0.8383,-0.8088,-0.777,-0.7461,-0.7111,-0.6735,-0.6372,-0.6116,-0.5989,-0.5902,-0.5819,-0.5457,-0.5042,-0.4809,-0.4507,-0.4407,-2.1555,-2.1275,-2.1292,-2.1096,-2.0763,-2.0336,-2.013,-2.0013,-1.9561,-1.9134,-1.8803,-1.8441,-1.7925,-1.741,-1.6801,-1.6323,-1.5631,-1.4389,-1.3377,-1.2685,-1.2324,-1.2027,-1.1816,-1.1786,-1.1782,-1.1816,-1.1786,-1.1786,-1.1756,-1.1726,-1.1605,-1.1363,-1.1303,-1.1122,-1.0819,-1.0759,-1.0604,-1.0334,-1.0247,-0.9943,-0.943,-0.9396,-0.9308,-0.9098,-0.9156,-0.9156,-0.8946,-0.9156,-0.9464,-0.9849,-1.0334,-1.1066,-1.195,-1.2411,-1.2649,-1.275,-1.2499,-1.2132,-1.1798,-1.1417,-1.0868,-1.0207,-0.9872,-0.9419,-0.8729,-0.8291,-0.7892,-0.751,-0.7224,-0.7132,-0.7133,-0.7079,-0.751,-0.8641,-0.9004,-0.9153,-0.9369,-0.9622,-1.007,-1.0703,-1.1135,-1.1365,-1.171,-1.1813,-1.1681,-1.1347,-1.1181,-1.1019,-1.0754,-1.0721,-1.0721,-1.0721,-1.0717,-1.0681,-1.0528,-1.0336,-0.9915,-0.9475,-0.8872,-0.8415,-0.8092,-0.7787,-0.757,-0.7235,-0.6712,-0.635,-0.6216,-0.6089,-0.6023,-0.5889,-0.5539,-0.5272,-0.501,-0.4742,-0.4441,-2.2097,-2.1827,-2.1649,-2.1555,-2.1445,-2.1259,-2.1113,-2.0909,-2.0557,-2.0129,-1.9702,-1.9377,-1.883,-1.8237,-1.7887,-1.7437,-1.6777,-1.6367,-1.5496,-1.4183,-1.3729,-1.3409,-1.3144,-1.3114,-1.3119,-1.3114,-1.3114,-1.2994,-1.2814,-1.2754,-1.2603,-1.2328,-1.2268,-1.2088,-1.1786,-1.1575,-1.1333,-1.1001,-1.0759,-1.0516,-1.0338,-1.0334,-1.0304,-1.0243,-1.0274,-1.0274,-1.0213,-1.0061,-1.0205,-1.0672,-1.1043,-1.1689,-1.2571,-1.2751,-1.2906,-1.3079,-1.2482,-1.1963,-1.1655,-1.1185,-1.0555,-0.9803,-0.948,-0.9004,-0.8211,-0.7739,-0.7283,-0.6791,-0.6359,-0.6153,-0.6288,-0.6267,-0.6808,-0.8089,-0.8269,-0.8668,-0.9279,-0.9792,-1.0493,-1.1198,-1.1515,-1.1864,-1.2276,-1.2309,-1.1978,-1.1615,-1.138,-1.1115,-1.082,-1.0721,-1.0721,-1.0721,-1.0681,-1.0644,-1.0526,-1.0292,-0.9932,-0.9471,-0.89,-0.8406,-0.808,-0.7865,-0.7646,-0.7324,-0.6801,-0.6463,-0.6327,-0.6193,-0.6114,-0.6034,-0.5822,-0.5571,-0.5268,-0.4943,-0.4607,-2.2736,-2.2552,-2.2409,-2.2333,-2.2308,-2.2207,-2.1996,-2.1725,-2.1479,-2.1037,-2.0583,-2.0248,-1.975,-1.9111,-1.8851,-1.8378,-1.7772,-1.7732,-1.7029,-1.5863,-1.5257,-1.4838,-1.4466,-1.4406,-1.4316,-1.4227,-1.4222,-1.4047,-1.3748,-1.3718,-1.3564,-1.3294,-1.314,-1.29,-1.2599,-1.2303,-1.1997,-1.1816,-1.1631,-1.1424,-1.1212,-1.1178,-1.1061,-1.0849,-1.091,-1.1065,-1.1237,-1.1187,-1.1237,-1.1542,-1.1959,-1.2659,-1.3321,-1.3291,-1.33,-1.3281,-1.2827,-1.225,-1.1858,-1.1363,-1.0531,-0.9697,-0.9344,-0.8773,-0.7863,-0.7268,-0.6765,-0.6201,-0.5723,-0.5482,-0.5626,-0.5718,-0.6195,-0.7016,-0.7658,-0.8319,-0.9217,-0.9986,-1.0685,-1.1336,-1.1709,-1.2121,-1.2539,-1.2638,-1.2276,-1.1879,-1.1582,-1.1185,-1.0886,-1.0721,-1.0721,-1.0721,-1.0717,-1.0639,-1.0514,-1.025,-0.9951,-0.944,-0.8898,-0.845,-0.8058,-0.7924,-0.775,-0.7416,-0.6924,-0.6632,-0.6469,-0.6288,-0.6166,-0.6105,-0.6078,-0.5802,-0.5478,-0.5042,-0.4707,-2.3422,-2.3431,-2.3397,-2.3331,-2.3272,-2.3013,-2.2753,-2.2501,-2.2198,-2.1801,-2.1369,-2.1045,-2.0627,-2.0086,-1.9595,-1.9158,-1.8768,-1.832,-1.7978,-1.7525,-1.6942,-1.6309,-1.5709,-1.5566,-1.5383,-1.52,-1.517,-1.4997,-1.4704,-1.465,-1.453,-1.4202,-1.3898,-1.3569,-1.3264,-1.293,-1.2724,-1.2659,-1.2629,-1.2294,-1.1881,-1.1842,-1.1605,-1.1065,-1.133,-1.1679,-1.2071,-1.2396,-1.2483,-1.2362,-1.3065,-1.3636,-1.3892,-1.3932,-1.3863,-1.379,-1.336,-1.2844,-1.2356,-1.1701,-1.0899,-0.9908,-0.9437,-0.8727,-0.7542,-0.7015,-0.6464,-0.5781,-0.5357,-0.5089,-0.5138,-0.5249,-0.5613,-0.6109,-0.7319,-0.8413,-0.9452,-1.0107,-1.079,-1.1442,-1.1749,-1.2045,-1.2671,-1.277,-1.2441,-1.1978,-1.1747,-1.1416,-1.092,-1.0721,-1.0721,-1.0721,-1.0721,-1.0595,-1.0499,-1.0368,-0.9994,-0.9305,-0.8851,-0.8505,-0.8094,-0.7936,-0.7869,-0.7505,-0.7127,-0.6836,-0.6592,-0.6404,-0.6273,-0.6223,-0.6126,-0.5956,-0.5677,-0.5242,-0.4908,-2.3696,-2.368,-2.3472,-2.3406,-2.3406,-2.3297,-2.3247,-2.3088,-2.2627,-2.2325,-2.2097,-2.1674,-2.119,-2.0686,-2.0336,-1.9821,-1.9249,-1.9007,-1.8563,-1.809,-1.824,-1.7604,-1.6768,-1.639,-1.6212,-1.6124,-1.6065,-1.597,-1.5709,-1.5448,-1.518,-1.4878,-1.4525,-1.4232,-1.3933,-1.3594,-1.3299,-1.3054,-1.2814,-1.2659,-1.2509,-1.2449,-1.2389,-1.2281,-1.2404,-1.2589,-1.2806,-1.3367,-1.3544,-1.3271,-1.383,-1.4344,-1.4586,-1.4498,-1.4483,-1.4522,-1.3865,-1.3256,-1.2779,-1.211,-1.1241,-1.0241,-0.9632,-0.875,-0.7558,-0.7055,-0.6337,-0.5543,-0.5067,-0.4871,-0.4711,-0.4916,-0.5544,-0.6685,-0.7764,-0.8685,-0.9416,-1.0084,-1.082,-1.1563,-1.1783,-1.2136,-1.2572,-1.2737,-1.2539,-1.2011,-1.1751,-1.1552,-1.0953,-1.0721,-1.0721,-1.0721,-1.0694,-1.0551,-1.0458,-1.0369,-0.9996,-0.9239,-0.879,-0.8542,-0.818,-0.7933,-0.7872,-0.775,-0.7293,-0.6969,-0.6764,-0.6565,-0.6468,-0.6353,-0.6316,-0.6211,-0.5912,-0.5512,-0.5176,-2.4044,-2.3954,-2.3805,-2.373,-2.373,-2.373,-2.368,-2.3522,-2.3213,-2.2912,-2.2661,-2.2224,-2.1751,-2.1224,-2.0832,-2.0292,-1.9658,-1.9417,-1.9012,-1.8699,-1.8769,-1.8343,-1.7652,-1.7273,-1.7067,-1.6891,-1.6773,-1.6543,-1.6272,-1.6065,-1.5833,-1.5512,-1.5186,-1.4888,-1.4555,-1.4257,-1.3928,-1.3658,-1.3389,-1.3234,-1.293,-1.29,-1.2871,-1.2864,-1.2974,-1.3102,-1.3488,-1.424,-1.4535,-1.4322,-1.4605,-1.5001,-1.5308,-1.5151,-1.5091,-1.5151,-1.4392,-1.3758,-1.323,-1.2479,-1.1609,-1.0759,-1.0001,-0.9035,-0.8043,-0.7324,-0.6405,-0.5633,-0.517,-0.4846,-0.4754,-0.5081,-0.6089,-0.7439,-0.8328,-0.8968,-0.9447,-1.0287,-1.1013,-1.1618,-1.1942,-1.2177,-1.2737,-1.277,-1.2441,-1.2011,-1.1817,-1.1383,-1.0886,-1.0787,-1.0721,-1.0721,-1.0687,-1.0565,-1.0448,-1.0342,-0.9903,-0.9183,-0.8616,-0.8424,-0.8208,-0.7903,-0.7903,-0.7788,-0.7431,-0.712,-0.6929,-0.6739,-0.6599,-0.6531,-0.6521,-0.6414,-0.6115,-0.578,-0.5411,-2.4415,-2.4226,-2.4226,-2.4202,-2.4177,-2.4186,-2.4028,-2.3854,-2.3746,-2.3447,-2.3021,-2.2711,-2.2207,-2.1725,-2.1224,-2.0704,-2.0163,-1.9691,-1.9444,-1.92,-1.9063,-1.8685,-1.8564,-1.8071,-1.7807,-1.7567,-1.7256,-1.7015,-1.6773,-1.6626,-1.6395,-1.6111,-1.5809,-1.5448,-1.5091,-1.4793,-1.45,-1.4232,-1.4087,-1.3808,-1.3414,-1.3303,-1.323,-1.3219,-1.3327,-1.3618,-1.4198,-1.492,-1.5285,-1.502,-1.5398,-1.5756,-1.6009,-1.5853,-1.5719,-1.5499,-1.5043,-1.4408,-1.3842,-1.3036,-1.2102,-1.1429,-1.0455,-0.9455,-0.8508,-0.7621,-0.6752,-0.6083,-0.5425,-0.5217,-0.5304,-0.5821,-0.6916,-0.8221,-0.8885,-0.9344,-0.9761,-1.0606,-1.1347,-1.178,-1.214,-1.2408,-1.2671,-1.2737,-1.2568,-1.1945,-1.1747,-1.1416,-1.0986,-1.0754,-1.0721,-1.0721,-1.0666,-1.0595,-1.0468,-1.0315,-0.9756,-0.9112,-0.8539,-0.8211,-0.8086,-0.7903,-0.7903,-0.7768,-0.7513,-0.7327,-0.716,-0.6981,-0.6758,-0.6595,-0.651,-0.6485,-0.642,-0.6014,-0.5646,-2.4661,-2.444,-2.443,-2.4341,-2.4226,-2.4211,-2.4152,-2.4102,-2.3879,-2.3621,-2.3297,-2.3013,-2.256,-2.1996,-2.1623,-2.1241,-2.0627,-2.0124,-1.9855,-1.961,-1.9112,-1.9195,-1.9188,-1.8742,-1.8334,-1.8129,-1.7937,-1.7732,-1.755,-1.7138,-1.6873,-1.6726,-1.6259,-1.5815,-1.5507,-1.518,-1.4823,-1.4535,-1.4326,-1.4172,-1.3963,-1.3742,-1.3665,-1.3766,-1.4044,-1.4377,-1.4711,-1.5243,-1.5588,-1.5816,-1.6077,-1.6401,-1.6646,-1.6582,-1.6569,-1.6489,-1.5853,-1.5268,-1.4951,-1.3863,-1.287,-1.2183,-1.0981,-0.9844,-0.9009,-0.8069,-0.7299,-0.6745,-0.6313,-0.6128,-0.636,-0.6983,-0.7897,-0.8906,-0.9772,-1.0429,-1.0772,-1.1057,-1.1545,-1.2011,-1.2276,-1.2441,-1.277,-1.277,-1.2507,-1.1978,-1.1648,-1.1449,-1.1115,-1.0754,-1.0721,-1.0721,-1.0697,-1.0612,-1.0382,-1.0156,-0.9635,-0.9109,-0.8542,-0.8089,-0.7964,-0.7903,-0.7903,-0.7823,-0.7699,-0.7495,-0.7287,-0.7069,-0.6867,-0.6668,-0.6487,-0.6487,-0.642,-0.6081,-0.5813,-2.4932,-2.4686,-2.4554,-2.443,-2.4341,-2.426,-2.4211,-2.4177,-2.4053,-2.382,-2.3546,-2.3297,-2.2837,-2.2274,-2.1878,-2.1394,-2.084,-2.0205,-1.9952,-1.9869,-1.9553,-1.9507,-1.9648,-1.9316,-1.8939,-1.8648,-1.8305,-1.8135,-1.7908,-1.7644,-1.7315,-1.702,-1.6643,-1.6288,-1.5898,-1.5631,-1.5299,-1.4913,-1.4704,-1.456,-1.4386,-1.4214,-1.4132,-1.4315,-1.4568,-1.4799,-1.4917,-1.5458,-1.5784,-1.6071,-1.6456,-1.6882,-1.7092,-1.6948,-1.6985,-1.7069,-1.6413,-1.5695,-1.5184,-1.4347,-1.3358,-1.2762,-1.1471,-1.0622,-0.9786,-0.8897,-0.8193,-0.7719,-0.7418,-0.7256,-0.7794,-0.8174,-0.8942,-0.9868,-1.0564,-1.1111,-1.1578,-1.171,-1.1813,-1.2243,-1.2441,-1.2605,-1.2737,-1.277,-1.2441,-1.1945,-1.1813,-1.1549,-1.1016,-1.0721,-1.0721,-1.0721,-1.0721,-1.0609,-1.0312,-0.9987,-0.9511,-0.9057,-0.8625,-0.8211,-0.7964,-0.7933,-0.7903,-0.7829,-0.7787,-0.7589,-0.7382,-0.7168,-0.6907,-0.6648,-0.6487,-0.6487,-0.6453,-0.6284,-0.5949,-2.5211,-2.4941,-2.4711,-2.4578,-2.448,-2.4316,-2.4226,-2.4211,-2.4211,-2.3994,-2.3771,-2.353,-2.3063,-2.256,-2.1954,-2.1394,-2.0763,-2.0228,-1.9963,-2.0109,-1.986,-1.9808,-1.9846,-1.971,-1.9461,-1.9026,-1.8648,-1.8363,-1.8142,-1.7995,-1.7608,-1.7168,-1.6991,-1.6696,-1.6318,-1.6087,-1.5815,-1.5359,-1.5121,-1.4954,-1.4765,-1.464,-1.4604,-1.4693,-1.478,-1.4865,-1.5029,-1.5486,-1.5941,-1.6039,-1.6586,-1.7071,-1.7284,-1.7159,-1.7013,-1.731,-1.6618,-1.5998,-1.5451,-1.4579,-1.3712,-1.3065,-1.1995,-1.1241,-1.0649,-0.9898,-0.9258,-0.8896,-0.8654,-0.8675,-0.9456,-0.9751,-1.0283,-1.1115,-1.1472,-1.1839,-1.2338,-1.2536,-1.2568,-1.2408,-1.2572,-1.2737,-1.277,-1.277,-1.2342,-1.2011,-1.1879,-1.1582,-1.1019,-1.0721,-1.0721,-1.0721,-1.0721,-1.0592,-1.0337,-1.0014,-0.9508,-0.9072,-0.8674,-0.8336,-0.8025,-0.7933,-0.7908,-0.7935,-0.7849,-0.765,-0.7444,-0.7263,-0.6968,-0.6654,-0.6487,-0.6487,-0.6487,-0.6487,-0.6085,-2.5479,-2.5235,-2.5186,-2.4917,-2.4529,-2.4455,-2.4341,-2.4202,-2.4211,-2.4053,-2.3805,-2.3506,-2.3222,-2.277,-2.203,-2.13,-2.066,-2.0194,-2.008,-2.0174,-1.9977,-1.9946,-2.0111,-1.9957,-1.9744,-1.9526,-1.9113,-1.8648,-1.8369,-1.8112,-1.7872,-1.7455,-1.7197,-1.6932,-1.6702,-1.6407,-1.6111,-1.5844,-1.5474,-1.5255,-1.527,-1.511,-1.4988,-1.5008,-1.5004,-1.495,-1.4968,-1.5332,-1.5724,-1.6012,-1.6369,-1.685,-1.7242,-1.7226,-1.73,-1.7378,-1.6823,-1.6165,-1.5733,-1.4956,-1.4045,-1.3211,-1.2367,-1.1756,-1.1255,-1.0662,-1.0307,-1.0194,-1.0123,-1.0224,-1.0889,-1.1229,-1.173,-1.2376,-1.282,-1.312,-1.3453,-1.3518,-1.3256,-1.2836,-1.2836,-1.2803,-1.2803,-1.2704,-1.2408,-1.2045,-1.1846,-1.1449,-1.0886,-1.0721,-1.0721,-1.0721,-1.0721,-1.0541,-1.0327,-0.9997,-0.9612,-0.9178,-0.8793,-0.8485,-0.8208,-0.7994,-0.7913,-0.793,-0.7903,-0.776,-0.7559,-0.7318,-0.6999,-0.6623,-0.6541,-0.6487,-0.6487,-0.6453,-0.6118,-2.5455,-2.5479,-2.5357,-2.5088,-2.4726,-2.4554,-2.439,-2.4226,-2.4211,-2.4127,-2.3904,-2.3596,-2.3331,-2.2971,-2.2139,-2.1326,-2.0763,-2.0274,-2.0232,-2.0287,-2.0165,-2.0089,-2.0294,-2.0102,-1.9954,-1.9729,-1.9352,-1.8968,-1.8671,-1.8561,-1.8188,-1.7813,-1.7585,-1.735,-1.7026,-1.6731,-1.6471,-1.6276,-1.5983,-1.5833,-1.5934,-1.5694,-1.553,-1.5334,-1.5227,-1.5127,-1.4996,-1.5267,-1.5561,-1.5784,-1.6071,-1.6494,-1.6786,-1.6898,-1.6993,-1.7278,-1.6768,-1.6132,-1.5748,-1.4952,-1.4201,-1.354,-1.2816,-1.2434,-1.2146,-1.1803,-1.1529,-1.1615,-1.1788,-1.1965,-1.2542,-1.2864,-1.3292,-1.3759,-1.4043,-1.4141,-1.4141,-1.4174,-1.3752,-1.3264,-1.3165,-1.3034,-1.2803,-1.2638,-1.2408,-1.2144,-1.1879,-1.135,-1.0787,-1.0721,-1.0717,-1.0697,-1.0677,-1.0507,-1.0317,-1.0065,-0.968,-0.9254,-0.8885,-0.8607,-0.8302,-0.8055,-0.7933,-0.7908,-0.7841,-0.7757,-0.75,-0.722,-0.6911,-0.6648,-0.6571,-0.6487,-0.6487,-0.6386,-0.6051,-2.5332,-2.5684,-2.5455,-2.5235,-2.4966,-2.4711,-2.4474,-2.4276,-2.4192,-2.4211,-2.4127,-2.368,-2.3406,-2.3097,-2.2283,-2.142,-2.0942,-2.0421,-2.0317,-2.0385,-2.0337,-2.0316,-2.0284,-2.0309,-2.0248,-1.996,-1.9642,-1.9301,-1.8903,-1.8816,-1.8567,-1.8165,-1.8025,-1.7761,-1.7321,-1.7103,-1.6931,-1.6757,-1.6622,-1.6575,-1.6527,-1.6364,-1.6103,-1.5736,-1.5663,-1.543,-1.5164,-1.5332,-1.55,-1.5593,-1.5784,-1.6071,-1.6296,-1.6224,-1.6385,-1.6767,-1.6378,-1.5929,-1.5413,-1.4947,-1.4351,-1.3674,-1.3308,-1.3076,-1.2956,-1.2838,-1.2898,-1.3161,-1.3399,-1.374,-1.4212,-1.4546,-1.4819,-1.5055,-1.5192,-1.5094,-1.48,-1.4576,-1.4244,-1.3888,-1.363,-1.3264,-1.2935,-1.2704,-1.2507,-1.2078,-1.1817,-1.1383,-1.0886,-1.0754,-1.0711,-1.0677,-1.0612,-1.0463,-1.0304,-1.0126,-0.9766,-0.9345,-0.9007,-0.8699,-0.8394,-0.8119,-0.7994,-0.7903,-0.773,-0.7591,-0.7348,-0.7146,-0.6892,-0.6681,-0.655,-0.6485,-0.6487,-0.6386,-0.6152,-2.5332,-2.5708,-2.5659,-2.5489,-2.5211,-2.4956,-2.4686,-2.4455,-2.4276,-2.4211,-2.4152,-2.3646,-2.3406,-2.3046,-2.2182,-2.1547,-2.1147,-2.0694,-2.0339,-2.0266,-2.0402,-2.0389,-2.0296,-2.0557,-2.0458,-2.022,-1.9902,-1.9432,-1.9113,-1.8962,-1.8735,-1.8392,-1.8196,-1.7955,-1.7864,-1.7685,-1.7319,-1.7312,-1.7223,-1.7168,-1.7089,-1.6967,-1.6722,-1.6386,-1.6104,-1.5811,-1.5491,-1.5495,-1.5495,-1.5495,-1.5533,-1.5724,-1.5903,-1.5644,-1.5664,-1.5895,-1.5986,-1.5876,-1.542,-1.5032,-1.454,-1.3971,-1.3683,-1.3478,-1.3619,-1.3872,-1.4208,-1.4802,-1.5088,-1.5396,-1.5815,-1.6208,-1.6344,-1.6303,-1.6239,-1.5914,-1.5528,-1.516,-1.48,-1.4179,-1.3818,-1.3358,-1.2997,-1.2803,-1.2572,-1.2144,-1.1714,-1.1317,-1.0986,-1.082,-1.0721,-1.069,-1.0646,-1.0507,-1.0361,-1.0174,-0.9863,-0.9424,-0.9074,-0.8796,-0.8458,-0.815,-0.7994,-0.7841,-0.7658,-0.7439,-0.718,-0.6977,-0.6859,-0.6701,-0.6498,-0.647,-0.6487,-0.6353,-0.6219,-2.5102,-2.5371,-2.561,-2.5528,-2.5294,-2.5015,-2.476,-2.448,-2.4301,-2.4211,-2.4102,-2.363,-2.3147,-2.2661,-2.192,-2.1555,-2.1224,-2.0745,-2.0351,-2.0231,-2.0422,-2.0468,-2.0336,-2.0535,-2.0601,-2.0493,-2.0213,-1.9902,-1.949,-1.9207,-1.901,-1.8732,-1.8685,-1.8676,-1.8521,-1.8486,-1.8379,-1.8209,-1.7965,-1.7748,-1.7674,-1.7553,-1.7297,-1.6818,-1.6656,-1.6294,-1.5876,-1.5561,-1.5528,-1.5463,-1.5332,-1.5328,-1.5522,-1.5368,-1.5249,-1.5768,-1.5618,-1.5456,-1.5259,-1.5034,-1.4657,-1.4372,-1.4244,-1.4375,-1.4679,-1.5146,-1.562,-1.6133,-1.6746,-1.7087,-1.7213,-1.753,-1.7511,-1.7431,-1.7141,-1.6596,-1.6147,-1.5849,-1.5421,-1.4693,-1.3973,-1.3551,-1.3132,-1.2869,-1.2572,-1.2045,-1.1714,-1.1383,-1.1052,-1.0754,-1.0721,-1.0714,-1.0663,-1.0588,-1.0446,-1.03,-0.9994,-0.9562,-0.9114,-0.8806,-0.8461,-0.8214,-0.7994,-0.7811,-0.7627,-0.736,-0.7041,-0.6839,-0.671,-0.6558,-0.6425,-0.6454,-0.6479,-0.6453,-0.6185,-2.4822,-2.4975,-2.5474,-2.5596,-2.5391,-2.5113,-2.4858,-2.4578,-2.439,-2.4251,-2.4044,-2.3621,-2.2996,-2.235,-2.1954,-2.1598,-2.1402,-2.084,-2.0491,-2.0399,-2.0491,-2.0572,-2.0551,-2.0678,-2.0788,-2.0694,-2.0486,-2.0213,-1.996,-1.9735,-1.9468,-1.9075,-1.9112,-1.9117,-1.9097,-1.9165,-1.9197,-1.9125,-1.8868,-1.8607,-1.834,-1.8285,-1.7878,-1.7453,-1.713,-1.6845,-1.6299,-1.5952,-1.5789,-1.5593,-1.5425,-1.5486,-1.5594,-1.5353,-1.5306,-1.5592,-1.5462,-1.5276,-1.5234,-1.5138,-1.4908,-1.4821,-1.4911,-1.5232,-1.5992,-1.6596,-1.7111,-1.7386,-1.7998,-1.8294,-1.8419,-1.8649,-1.8503,-1.8221,-1.7852,-1.7238,-1.6623,-1.6169,-1.5513,-1.4665,-1.4043,-1.372,-1.333,-1.3001,-1.2576,-1.1982,-1.1648,-1.1416,-1.1085,-1.0754,-1.0721,-1.0721,-1.0697,-1.0626,-1.0497,-1.0329,-1.0036,-0.9687,-0.9205,-0.8778,-0.8433,-0.8183,-0.7964,-0.775,-0.7536,-0.7245,-0.6941,-0.676,-0.6562,-0.6446,-0.6358,-0.6434,-0.647,-0.638,-0.6049,-2.449,-2.4531,-2.5357,-2.5684,-2.5635,-2.5382,-2.5103,-2.4833,-2.4554,-2.4365,-2.4102,-2.3655,-2.3231,-2.277,-2.208,-2.1674,-2.1623,-2.1121,-2.0773,-2.071,-2.0864,-2.0828,-2.0836,-2.0913,-2.0996,-2.078,-2.0694,-2.0529,-2.0328,-2.0213,-1.9844,-1.947,-1.9601,-1.9417,-1.9417,-1.9683,-1.9819,-1.9846,-1.9738,-1.9446,-1.9156,-1.8944,-1.865,-1.8039,-1.7658,-1.7303,-1.6942,-1.6591,-1.6304,-1.6071,-1.5909,-1.5779,-1.5769,-1.549,-1.5513,-1.5597,-1.5479,-1.5396,-1.5454,-1.5358,-1.5279,-1.5359,-1.5642,-1.6059,-1.6783,-1.6999,-1.7602,-1.8483,-1.9011,-1.9283,-1.943,-1.9537,-1.9272,-1.8842,-1.8264,-1.7464,-1.6818,-1.6229,-1.5578,-1.4665,-1.4113,-1.3752,-1.3395,-1.3038,-1.251,-1.1949,-1.1483,-1.1251,-1.1019,-1.0721,-1.0721,-1.0721,-1.0721,-1.0649,-1.0521,-1.0331,-1.0096,-0.9676,-0.919,-0.8793,-0.84,-0.8152,-0.7903,-0.7658,-0.7416,-0.7143,-0.6846,-0.6569,-0.6376,-0.6272,-0.6261,-0.6359,-0.6193,-0.6014,-0.5614,-2.4451,-2.4482,-2.5078,-2.5454,-2.5693,-2.5416,-2.5152,-2.4883,-2.4603,-2.4282,-2.3929,-2.358,-2.3247,-2.2812,-2.2131,-2.17,-2.1623,-2.1147,-2.094,-2.0922,-2.0994,-2.1038,-2.107,-2.1105,-2.1125,-2.1024,-2.0996,-2.0845,-2.0579,-2.0579,-2.0511,-2.0315,-2.036,-2.0455,-2.0506,-2.032,-2.0351,-2.0328,-2.0234,-1.9947,-1.9819,-1.9686,-1.9392,-1.872,-1.8591,-1.8173,-1.7685,-1.7303,-1.698,-1.6683,-1.6456,-1.6299,-1.6133,-1.5805,-1.5778,-1.5877,-1.573,-1.5733,-1.5833,-1.5713,-1.5656,-1.6017,-1.6346,-1.6841,-1.7457,-1.7956,-1.85,-1.9197,-1.9765,-2.0079,-1.9954,-1.9922,-1.9717,-1.9264,-1.8585,-1.7685,-1.6942,-1.6326,-1.5546,-1.46,-1.4141,-1.3785,-1.3395,-1.3038,-1.2477,-1.1916,-1.1449,-1.1052,-1.0853,-1.0721,-1.0721,-1.0721,-1.0721,-1.0721,-1.0605,-1.0415,-1.0194,-0.9709,-0.9193,-0.8766,-0.8357,-0.8091,-0.7844,-0.7569,-0.7263,-0.6959,-0.6664,-0.6348,-0.6183,-0.6213,-0.6219,-0.6246,-0.6035,-0.5711,-0.5279,-2.4207,-2.4268,-2.4697,-2.5215,-2.5645,-2.5513,-2.5235,-2.4907,-2.4711,-2.4341,-2.3895,-2.3571,-2.3322,-2.2887,-2.2123,-2.17,-2.1547,-2.1205,-2.1096,-2.1087,-2.1125,-2.1223,-2.1264,-2.1235,-2.1182,-2.1211,-2.1203,-2.1024,-2.0881,-2.0967,-2.1096,-2.1271,-2.1444,-2.1493,-2.1252,-2.1162,-2.1046,-2.0982,-2.0856,-2.0545,-2.0482,-2.0386,-2.0074,-1.9456,-1.9232,-1.8912,-1.8393,-1.8013,-1.7658,-1.7362,-1.7109,-1.6882,-1.6641,-1.6445,-1.6345,-1.6309,-1.6277,-1.6268,-1.6265,-1.6247,-1.627,-1.6678,-1.7082,-1.7541,-1.8092,-1.8813,-1.917,-1.9601,-2.0265,-2.0584,-2.0301,-2.0169,-1.9813,-1.9296,-1.8515,-1.7685,-1.6915,-1.6234,-1.5416,-1.4567,-1.4174,-1.3748,-1.3264,-1.284,-1.2312,-1.1747,-1.1251,-1.0953,-1.082,-1.0721,-1.0721,-1.0721,-1.0721,-1.0721,-1.0704,-1.0493,-1.0229,-0.9691,-0.9206,-0.8759,-0.8369,-0.8102,-0.7799,-0.7508,-0.7171,-0.6806,-0.6524,-0.6248,-0.6177,-0.6185,-0.6201,-0.6255,-0.581,-0.5515,-0.5144,-2.3649,-2.386,-2.4277,-2.4918,-2.5615,-2.5684,-2.5357,-2.4907,-2.4809,-2.4548,-2.4069,-2.363,-2.3372,-2.3071,-2.2156,-2.1725,-2.1597,-2.1203,-2.1126,-2.1401,-2.1356,-2.1418,-2.1478,-2.1453,-2.1268,-2.1211,-2.1211,-2.1182,-2.1161,-2.138,-2.17,-2.2043,-2.2168,-2.2216,-2.176,-2.1926,-2.2034,-2.201,-2.1922,-2.1544,-2.1197,-2.1077,-2.0704,-2.0195,-1.9871,-1.9577,-1.9104,-1.8822,-1.8463,-1.8039,-1.7975,-1.7814,-1.7619,-1.7489,-1.7412,-1.7417,-1.7108,-1.6966,-1.694,-1.6972,-1.7197,-1.7447,-1.7809,-1.8233,-1.8752,-1.9233,-1.9644,-2.0082,-2.0517,-2.0672,-2.051,-2.0246,-1.9775,-1.92,-1.8457,-1.7647,-1.6877,-1.6266,-1.5448,-1.4534,-1.4109,-1.3715,-1.3128,-1.2609,-1.2114,-1.1582,-1.1085,-1.0817,-1.0717,-1.0721,-1.0721,-1.0721,-1.0721,-1.0721,-1.0697,-1.0562,-1.027,-0.9708,-0.9212,-0.8762,-0.8423,-0.8159,-0.7842,-0.7457,-0.7166,-0.6874,-0.6529,-0.6185,-0.6142,-0.613,-0.6275,-0.6203,-0.5746,-0.5314,-0.4943,-2.3619,-2.3828,-2.4215,-2.4648,-2.5059,-2.5324,-2.5211,-2.4892,-2.4572,-2.4251,-2.3929,-2.353,-2.3281,-2.2871,-2.2257,-2.17,-2.1631,-2.1468,-2.1452,-2.1764,-2.1666,-2.182,-2.1832,-2.1668,-2.1411,-2.1268,-2.1211,-2.1218,-2.1189,-2.1576,-2.1876,-2.2206,-2.2636,-2.2675,-2.2345,-2.224,-2.2073,-2.2073,-2.2048,-2.1954,-2.1765,-2.1702,-2.1425,-2.0792,-2.0602,-2.0284,-1.9813,-1.9596,-1.927,-1.881,-1.872,-1.8553,-1.8226,-1.803,-1.7929,-1.792,-1.7758,-1.8231,-1.838,-1.8493,-1.8337,-1.8401,-1.854,-1.8895,-1.9187,-1.9872,-2.0245,-2.0466,-2.0724,-2.0793,-2.0621,-2.0259,-1.9813,-1.9174,-1.8431,-1.7556,-1.6812,-1.6261,-1.5578,-1.4562,-1.3908,-1.3518,-1.3034,-1.2474,-1.1949,-1.1582,-1.1115,-1.085,-1.0721,-1.0721,-1.0721,-1.0721,-1.0721,-1.0721,-1.0657,-1.0494,-1.0208,-0.9703,-0.9198,-0.8731,-0.8436,-0.8185,-0.7796,-0.7393,-0.7185,-0.695,-0.655,-0.6192,-0.6078,-0.6081,-0.6133,-0.5979,-0.5547,-0.5111,-0.4774,-2.3442,-2.3623,-2.4065,-2.4347,-2.453,-2.5059,-2.5113,-2.4735,-2.4365,-2.4053,-2.3805,-2.3522,-2.3247,-2.282,-2.2156,-2.17,-2.1665,-2.1517,-2.1597,-2.1946,-2.1986,-2.2108,-2.2094,-2.1896,-2.1611,-2.1382,-2.1254,-2.1247,-2.1423,-2.1723,-2.2125,-2.2564,-2.2886,-2.2908,-2.2748,-2.2567,-2.2519,-2.2512,-2.2519,-2.2418,-2.2292,-2.2198,-2.2017,-2.1583,-2.1267,-2.0989,-2.0583,-2.0265,-2.0036,-1.959,-1.936,-1.92,-1.8816,-1.869,-1.8663,-1.8734,-1.8786,-1.92,-1.9311,-1.9387,-1.917,-1.9149,-1.9353,-1.9501,-1.967,-2.0232,-2.051,-2.0728,-2.0868,-2.0715,-2.045,-2.0106,-1.9488,-1.8848,-1.8071,-1.7233,-1.6586,-1.6034,-1.5416,-1.4403,-1.3777,-1.3387,-1.2898,-1.2375,-1.1817,-1.1516,-1.1181,-1.0949,-1.0721,-1.0721,-1.0721,-1.0721,-1.0721,-1.0721,-1.0588,-1.0406,-1.0086,-0.9667,-0.9199,-0.8736,-0.8421,-0.8135,-0.7725,-0.7313,-0.7063,-0.6773,-0.6447,-0.6203,-0.6108,-0.5954,-0.5811,-0.5607,-0.5277,-0.4977,-0.464,-2.3091,-2.3174,-2.3724,-2.3946,-2.4118,-2.4832,-2.4941,-2.4489,-2.4276,-2.4053,-2.3755,-2.3506,-2.3231,-2.2846,-2.208,-2.1758,-2.1754,-2.1571,-2.1756,-2.1991,-2.2186,-2.2353,-2.2279,-2.2002,-2.1753,-2.1582,-2.144,-2.1357,-2.1672,-2.203,-2.2491,-2.2901,-2.304,-2.305,-2.3012,-2.295,-2.2926,-2.2887,-2.2887,-2.2793,-2.2668,-2.2606,-2.2386,-2.2048,-2.1734,-2.1425,-2.1077,-2.0761,-2.0456,-2.0202,-2.0074,-2.0043,-2.0043,-2.0081,-2.0106,-2.0024,-1.9782,-1.9834,-1.9919,-1.9948,-2.0007,-1.9994,-1.9953,-2.0074,-2.0219,-2.0524,-2.0704,-2.0679,-2.0699,-2.043,-2.0138,-1.9558,-1.8938,-1.8264,-1.7556,-1.6845,-1.6234,-1.5616,-1.4996,-1.4342,-1.3879,-1.3387,-1.2865,-1.2309,-1.1784,-1.1549,-1.1251,-1.0883,-1.0721,-1.0721,-1.0721,-1.0721,-1.0721,-1.0721,-1.0555,-1.0323,-1.0047,-0.9657,-0.9203,-0.8775,-0.8456,-0.8152,-0.7777,-0.7417,-0.6969,-0.6623,-0.6435,-0.6275,-0.6161,-0.5972,-0.5635,-0.5372,-0.5109,-0.4842,-0.4574,-2.2891,-2.2918,-2.3223,-2.3407,-2.3594,-2.4251,-2.4424,-2.4267,-2.4202,-2.3945,-2.3497,-2.3431,-2.3122,-2.2669,-2.203,-2.1933,-2.1963,-2.2008,-2.2121,-2.2284,-2.2502,-2.2619,-2.2482,-2.2201,-2.1924,-2.1675,-2.1491,-2.1452,-2.1774,-2.2198,-2.2674,-2.304,-2.3098,-2.3106,-2.3106,-2.3106,-2.3106,-2.3106,-2.3106,-2.3012,-2.295,-2.2918,-2.2731,-2.2449,-2.208,-2.1772,-2.145,-2.1109,-2.0767,-2.0552,-2.0456,-2.0386,-2.0113,-2.0113,-2.017,-2.0412,-2.0384,-2.0433,-2.0649,-2.073,-2.0728,-2.0726,-2.0677,-2.0622,-2.0684,-2.0731,-2.0848,-2.0737,-2.0542,-2.0297,-1.9813,-1.92,-1.8585,-1.791,-1.7233,-1.6586,-1.6006,-1.5458,-1.4838,-1.4113,-1.3617,-1.3256,-1.27,-1.221,-1.1751,-1.1582,-1.1317,-1.092,-1.0721,-1.0721,-1.0721,-1.0721,-1.0721,-1.0721,-1.0489,-1.0223,-0.996,-0.9658,-0.9186,-0.8781,-0.8543,-0.8213,-0.7883,-0.7426,-0.6887,-0.6613,-0.6471,-0.6319,-0.614,-0.5787,-0.5444,-0.5176,-0.4941,-0.4675,-0.4508,-2.264,-2.2653,-2.2864,-2.3107,-2.3444,-2.395,-2.4143,-2.4053,-2.4053,-2.3795,-2.3397,-2.3272,-2.2996,-2.2569,-2.2029,-2.1898,-2.2234,-2.2094,-2.2143,-2.2493,-2.2847,-2.2846,-2.2683,-2.2428,-2.2152,-2.1862,-2.1725,-2.173,-2.1994,-2.2469,-2.2967,-2.3076,-2.3106,-2.3106,-2.3106,-2.3106,-2.3106,-2.3106,-2.3106,-2.3106,-2.3106,-2.3106,-2.295,-2.2731,-2.2362,-2.2017,-2.1765,-2.1393,-2.1014,-2.0831,-2.0799,-2.0736,-2.0513,-2.0545,-2.0545,-2.0792,-2.0779,-2.0854,-2.0979,-2.1024,-2.1057,-2.1102,-2.1102,-2.1009,-2.0955,-2.0944,-2.086,-2.0684,-2.0437,-2.0132,-1.9552,-1.8938,-1.8296,-1.7653,-1.7007,-1.6359,-1.5844,-1.536,-1.4609,-1.3818,-1.3325,-1.2964,-1.2539,-1.2081,-1.1747,-1.1582,-1.1284,-1.0886,-1.0721,-1.0721,-1.0721,-1.0721,-1.0721,-1.0688,-1.0422,-1.019,-0.9894,-0.9561,-0.9059,-0.872,-0.8556,-0.8115,-0.7626,-0.7165,-0.6738,-0.6581,-0.6477,-0.6245,-0.604,-0.5647,-0.528,-0.4943,-0.4708,-0.4507,-0.4374,-2.2375,-2.2391,-2.258,-2.2959,-2.3468,-2.3871,-2.3973,-2.3795,-2.3755,-2.3571,-2.3322,-2.313,-2.2846,-2.2443,-2.1945,-2.1954,-2.2151,-2.213,-2.2247,-2.2549,-2.2847,-2.2958,-2.2909,-2.2711,-2.24,-2.223,-2.2098,-2.2009,-2.2332,-2.2718,-2.304,-2.3106,-2.3106,-2.3106,-2.3106,-2.3106,-2.3106,-2.3106,-2.3106,-2.3106,-2.3106,-2.3106,-2.3074,-2.2918,-2.2487,-2.2048,-2.1891,-2.1544,-2.1102,-2.1077,-2.1077,-2.1039,-2.1014,-2.1014,-2.1039,-2.1039,-2.1014,-2.1046,-2.1071,-2.1102,-2.1102,-2.1102,-2.1102,-2.1082,-2.1062,-2.0936,-2.0792,-2.0482,-2.0227,-1.9749,-1.9168,-1.8617,-1.8007,-1.7324,-1.6678,-1.6169,-1.5686,-1.5071,-1.4277,-1.361,-1.3236,-1.2909,-1.2609,-1.2192,-1.1862,-1.1659,-1.126,-1.0831,-1.0731,-1.0731,-1.0741,-1.0738,-1.0721,-1.0688,-1.0522,-1.0223,-0.9861,-0.9461,-0.8992,-0.8723,-0.8587,-0.7989,-0.729,-0.6922,-0.6621,-0.6554,-0.6451,-0.6217,-0.5914,-0.5547,-0.5144,-0.4742,-0.4508,-0.4374,-0.4307,-2.2163,-2.22,-2.2321,-2.263,-2.3054,-2.3278,-2.3549,-2.3737,-2.3347,-2.318,-2.3105,-2.3005,-2.272,-2.2232,-2.1953,-2.1977,-2.2246,-2.2215,-2.2393,-2.2688,-2.299,-2.3006,-2.2958,-2.2768,-2.2585,-2.243,-2.2316,-2.229,-2.2597,-2.2924,-2.3106,-2.3106,-2.3106,-2.3106,-2.3106,-2.3106,-2.3106,-2.3106,-2.3106,-2.3106,-2.3106,-2.3074,-2.3012,-2.2731,-2.2292,-2.1985,-2.1734,-2.1362,-2.1134,-2.1071,-2.1071,-2.1071,-2.1071,-2.1102,-2.1102,-2.1102,-2.1102,-2.1102,-2.1102,-2.1102,-2.1102,-2.1102,-2.1102,-2.1102,-2.1007,-2.0856,-2.0609,-2.0259,-1.9845,-1.9334,-1.879,-1.827,-1.7685,-1.7001,-1.6359,-1.5946,-1.5505,-1.4693,-1.3901,-1.3542,-1.3182,-1.2923,-1.2657,-1.2318,-1.2015,-1.1628,-1.1184,-1.0846,-1.0762,-1.0772,-1.0799,-1.0789,-1.0731,-1.0658,-1.0522,-1.0226,-0.9827,-0.9461,-0.9026,-0.879,-0.8587,-0.7956,-0.7292,-0.6822,-0.652,-0.6487,-0.6386,-0.6115,-0.5813,-0.5446,-0.501,-0.4607,-0.4441,-0.4307,-0.4307,-2.1919,-2.1943,-2.2185,-2.2459,-2.2742,-2.2979,-2.3229,-2.3352,-2.3122,-2.2921,-2.2846,-2.2795,-2.256,-2.2164,-2.1993,-2.2047,-2.2352,-2.2284,-2.2541,-2.2879,-2.3014,-2.3014,-2.2929,-2.2853,-2.286,-2.2728,-2.268,-2.2721,-2.2968,-2.299,-2.3106,-2.3106,-2.3106,-2.3106,-2.3106,-2.3106,-2.3106,-2.3106,-2.3106,-2.3106,-2.3106,-2.3043,-2.2918,-2.2606,-2.2261,-2.1954,-2.1607,-2.1299,-2.1134,-2.1102,-2.1102,-2.1102,-2.1102,-2.1102,-2.1102,-2.1102,-2.1102,-2.1102,-2.1102,-2.1102,-2.1102,-2.1102,-2.1102,-2.1102,-2.0761,-2.0577,-2.0386,-2.0036,-1.959,-1.911,-1.8399,-1.7814,-1.7168,-1.6488,-1.5994,-1.5525,-1.4946,-1.425,-1.3749,-1.3494,-1.3231,-1.3074,-1.2792,-1.2422,-1.2073,-1.1693,-1.1251,-1.1036,-1.0945,-1.086,-1.0873,-1.0863,-1.0822,-1.0718,-1.0621,-1.0256,-0.9764,-0.9395,-0.9059,-0.8559,-0.8156,-0.7791,-0.7326,-0.6824,-0.6487,-0.6487,-0.6353,-0.6016,-0.5748,-0.5446,-0.4977,-0.4507,-0.4406,-0.4307,-0.4307,-2.1651,-2.1675,-2.1985,-2.2256,-2.2488,-2.2772,-2.2955,-2.3003,-2.2971,-2.282,-2.2653,-2.2628,-2.2392,-2.2206,-2.2217,-2.2308,-2.2349,-2.2368,-2.2664,-2.2898,-2.3014,-2.3014,-2.3014,-2.3002,-2.304,-2.315,-2.32,-2.33,-2.3451,-2.3355,-2.3199,-2.3137,-2.3106,-2.3106,-2.3106,-2.3106,-2.3106,-2.3106,-2.3106,-2.3106,-2.3074,-2.305,-2.2793,-2.2512,-2.223,-2.1891,-2.1544,-2.1292,-2.1102,-2.1102,-2.1102,-2.1102,-2.1102,-2.1102,-2.1102,-2.1102,-2.1102,-2.1102,-2.1102,-2.1102,-2.1102,-2.1102,-2.1102,-2.0919,-2.0609,-2.0354,-2.0164,-1.9749,-1.9302,-1.8784,-1.8071,-1.7394,-1.6748,-1.6102,-1.561,-1.5139,-1.445,-1.3873,-1.3679,-1.3428,-1.3281,-1.3152,-1.2819,-1.2444,-1.2109,-1.1756,-1.1497,-1.1313,-1.1176,-1.1097,-1.1063,-1.1002,-1.0962,-1.0877,-1.0748,-1.0242,-0.9722,-0.9461,-0.9092,-0.8359,-0.776,-0.7593,-0.7259,-0.6723,-0.6487,-0.6453,-0.6185,-0.5848,-0.5582,-0.5346,-0.4842,-0.4406,-0.4374,-0.4307,-0.4307,-2.1329,-2.1141,-2.1212,-2.1635,-2.2179,-2.2122,-2.239,-2.291,-2.2779,-2.2644,-2.2619,-2.2569,-2.2316,-2.1793,-2.2165,-2.2248,-2.2178,-2.2374,-2.2688,-2.2966,-2.3006,-2.3014,-2.307,-2.3181,-2.3257,-2.3487,-2.3692,-2.3772,-2.3783,-2.358,-2.3362,-2.3144,-2.3106,-2.3106,-2.3106,-2.3106,-2.3106,-2.3106,-2.3106,-2.3106,-2.2981,-2.2825,-2.2487,-2.2205,-2.1853,-2.1544,-2.126,-2.1141,-2.1102,-2.1102,-2.1102,-2.1102,-2.1102,-2.1102,-2.1102,-2.1102,-2.1102,-2.1102,-2.1102,-2.1102,-2.1102,-2.1077,-2.1046,-2.0856,-2.0545,-2.0227,-1.9877,-1.9302,-1.8886,-1.8495,-1.7846,-1.7265,-1.6623,-1.5901,-1.5336,-1.477,-1.4146,-1.3887,-1.3715,-1.3461,-1.3249,-1.2963,-1.2578,-1.2289,-1.2019,-1.1716,-1.1489,-1.1328,-1.1257,-1.1251,-1.1223,-1.1193,-1.1121,-1.1019,-1.0897,-1.0213,-0.9722,-0.9488,-0.9092,-0.8359,-0.7825,-0.7593,-0.7192,-0.669,-0.6453,-0.6386,-0.6085,-0.5714,-0.5346,-0.5077,-0.4641,-0.4307,-0.4307,-0.4307,-0.4307]},{"header":{"parameterUnit":"m.s-1","parameterCategory":1,"la1":31.0,"la2":29.5877,"lo1":-88.7671,"lo2":-86.6584,"dy":0.0162,"dx":0.0185,"nx":115,"ny":88,"refTime":"2023-10-04T06:00:00:Z","depth":0,"parameterNumber":3,"parameterNumberName":"V-component_of_WINDS"},"data":[0.0,0.0,0.0,0.0,0.0,0.0,0.0,0.0,0.0,0.0,0.0,0.0,0.0,0.0,0.0,0.0,0.0,0.0,0.0,0.0,0.0,0.0,0.0,0.0,0.0,0.0,0.0,0.0,0.0,0.0,0.0,0.0,0.0,0.0,0.0,0.0,0.0,0.0,0.0,0.0,0.0,0.0,0.0,0.0,0.0,0.0,0.0,0.0,0.0,0.0,0.0,0.0,0.0,0.0,0.0,0.0,0.0,0.0,0.0,0.0,0.0,0.0,0.0,0.0,0.0,0.0,0.0,0.0,0.0,0.0,0.0,0.0,0.0,0.0,0.0,0.0,0.0,0.0,0.0,0.0,0.0,0.0,0.0,0.0,0.0,0.0,0.0,0.0,0.0,0.0,0.0,0.0,0.0,0.0,0.0,0.0,0.0,0.0,0.0,0.0,0.0,0.0,0.0,0.0,0.0,0.0,0.0,0.0,0.0,0.0,0.0,0.0,0.0,0.0,0.0,0.0,0.0,0.0,0.0,0.0,0.0,0.0,0.0,0.0,0.0,0.0,0.0,0.0,0.0,0.0,0.0,0.0,0.0,0.0,0.0,0.0,0.0,0.0,0.0,0.0,0.0,0.0,0.0,0.0,0.0,0.0,0.0,0.0,0.0,0.0,0.0,0.0,0.0,0.0,0.0,0.0,0.0,0.0,0.0,0.0,0.0,0.0,0.0,0.0,0.0,0.0,0.0,0.0,0.0,0.0,0.0,0.0,0.0,0.0,0.0,0.0,0.0,0.0,0.0,0.0,0.0,0.0,0.0,0.0,0.0,0.0,0.0,0.0,0.0,0.0,0.0,0.0,0.0,0.0,0.0,0.0,0.0,0.0,0.0,0.0,0.0,0.0,0.0,0.0,0.0,0.0,0.0,0.0,0.0,0.0,0.0,0.0,0.0,0.0,0.0,0.0,0.0,0.0,0.0,0.0,0.0,0.0,0.0,0.0,0.0,0.0,0.0,0.0,0.0,0.0,0.0,0.0,0.0,0.0,0.0,0.0,0.0,0.0,0.0,0.0,0.0,0.0,0.0,0.0,0.0,0.0,0.0,0.0,0.0,0.0,0.0,0.0,0.0,0.0,0.0,0.0,0.0,0.0,0.0,0.0,0.0,0.0,0.0,0.0,0.0,0.0,0.0,0.0,0.0,0.0,0.0,0.0,0.0,0.0,0.0,0.0,0.0,0.0,0.0,0.0,0.0,0.0,0.0,0.0,0.0,0.0,0.0,0.0,0.0,0.0,0.0,0.0,0.0,0.0,0.0,0.0,0.0,0.0,0.0,0.0,0.0,0.0,0.0,0.0,0.0,0.0,0.0,0.0,0.0,0.0,0.0,0.0,0.0,0.0,0.0,0.0,0.0,0.0,0.0,0.0,0.0,0.0,0.0,0.0,0.0,0.0,0.0,0.0,0.0,0.0,0.0,0.0,0.0,0.0,0.0,0.0,0.0,0.0,0.0,0.0,0.0,0.0,0.0,0.0,0.0,0.0,0.0,0.0,0.0,0.0,0.0,0.0,0.0,0.0,0.0,0.0,0.0,0.0,0.0,0.0,0.0,0.0,0.0,0.0,0.0,0.0,0.0,0.0,0.0,0.0,0.0,0.0,0.0,0.0,0.0,0.0,0.0,0.0,0.0,0.0,0.0,0.0,0.0,0.0,0.0,0.0,0.0,0.0,0.0,0.0,0.0,0.0,0.0,0.0,0.0,0.0,0.0,0.0,0.0,0.0,0.0,0.0,0.0,0.0,0.0,0.0,0.0,0.0,0.0,0.0,0.0,0.0,0.0,0.0,0.0,0.0,0.0,0.0,0.0,0.0,0.0,0.0,0.0,0.0,0.0,0.0,0.0,0.0,0.0,0.0,0.0,0.0,0.0,0.0,0.0,0.0,0.0,0.0,0.0,0.0,0.0,0.0,0.0,0.0,0.0,0.0,0.0,0.0,0.0,0.0,0.0,0.0,0.0,0.0,0.0,0.0,0.0,0.0,0.0,0.0,0.0,0.0,0.0,0.0,0.0,0.0,0.0,0.0,0.0,0.0,0.0,0.0,0.0,0.0,0.0,0.0,0.0,0.0,0.0,0.0,0.0,0.0,0.0,0.0,0.0,0.0,0.0,0.0,0.0,0.0,0.0,0.0,0.0,0.0,0.0,0.0,0.0,0.0,0.0,0.0,0.0,0.0,0.0,0.0,0.0,0.0,0.0,0.0,0.0,0.0,0.0,0.0,0.0,0.0,0.0,0.0,0.0,0.0,0.0,0.0,0.0,0.0,0.0,0.0,0.0,0.0,0.0,0.0,0.0,0.0,0.0,0.0,0.0,0.0,0.0,0.0,0.0,0.0,0.0,0.0,0.0,0.0,0.0,0.0,0.0,0.0,0.0,0.0,0.0,0.0,0.0,0.0,0.0,0.0,0.0,0.0,0.0,0.0,0.0,0.0,0.0,0.0,0.0,0.0,0.0,0.0,0.0,0.0,0.0,0.0,0.0,0.0,0.0,0.0,0.0,0.0,0.0,0.0,0.0,0.0,0.0,0.0,0.0,0.0,0.0,0.0,0.0,0.0,0.0,0.0,0.0,0.0,0.0,0.0,0.0,0.0,0.0,0.0,0.0,0.0,0.0,0.0,0.0,0.0,0.0,0.0,0.0,0.0,0.0,0.0,0.0,0.0,0.0,0.0,0.0,0.0,0.0,0.0,0.0,0.0,0.0,0.0,0.0,0.0,0.0,0.0,0.0,0.0,0.0,0.0,0.0,0.0,0.0,0.0,0.0,0.0,0.0,0.0,0.0,0.0,0.0,0.0,0.0,0.0,0.0,0.0,0.0,0.0,0.0,0.0,0.0,0.0,0.0,0.0,0.0,0.0,0.0,0.0,0.0,0.0,0.0,0.0,0.0,0.0,0.0,0.0,0.0,0.0,0.0,0.0,0.0,0.0,0.0,0.0,0.0,0.0,0.0,0.0,0.0,0.0,0.0,0.0,0.0,0.0,0.0,0.0,0.0,0.0,0.0,0.0,0.0,0.0,0.0,0.0,0.0,0.0,0.0,0.0,0.0,0.0,0.0,0.0,0.0,0.0,0.0,0.0,0.0,0.0,0.0,0.0,0.0,0.0,0.0,0.0,0.0,0.0,0.0,0.0,0.0,0.0,0.0,0.0,0.0,0.0,0.0,0.0,0.0,0.0,0.0,0.0,0.0,0.0,0.0,0.0,0.0,0.0,0.0,0.0,0.0,0.0,0.0,0.0,0.0,0.0,0.0,0.0,0.0,0.0,0.0,0.0,0.0,0.0,0.0,0.0,0.0,0.0,0.0,0.0,0.0,0.0,0.0,0.0,0.0,0.0,0.0,0.0,0.0,0.0,0.0,0.0,0.0,0.0,0.0,0.0,0.0,0.0,0.0,0.0,0.0,0.0,0.0,0.0,0.0,0.0,0.0,0.0,0.0,0.0,0.0,0.0,0.0,0.0,0.0,0.0,0.0,0.0,0.0,0.0,0.0,0.0,0.0,0.0,0.0,0.0,0.0,0.0,0.0,0.0,0.0,0.0,0.0,0.0,0.0,0.0,0.0,0.0,0.0,0.0,0.0,0.0,0.0,0.0,0.0,0.0,0.0,0.0,0.0,0.0,0.0,0.0,0.0,0.0,0.0,0.0,0.0,0.0,0.0,0.0,0.0,0.0,0.0,0.0,0.0,0.0,0.0,0.0,0.0,0.0,0.0,0.0,0.0,0.0,0.0,0.0,0.0,0.0,0.0,0.0,0.0,0.0,0.0,0.0,0.0,0.0,0.0,0.0,0.0,0.0,0.0,0.0,0.0,0.0,0.0,0.0,0.0,0.0,0.0,0.0,0.0,0.0,0.0,0.0,0.0,0.0,0.0,0.0,0.0,0.0,0.0,0.0,0.0,0.0,0.0,0.0,0.0,0.0,0.0,0.0,0.0,0.0,0.0,0.0,0.0,0.0,0.0,0.0,0.0,0.0,0.0,0.0,0.0,0.0,0.0,0.0,0.0,0.0,0.0,0.0,0.0,0.0,0.0,0.0,0.0,0.0,0.0,0.0,0.0,0.0,0.0,0.0,0.0,0.0,0.0,0.0,0.0,0.0,0.0,0.0,0.0,0.0,0.0,0.0,0.0,0.0,0.0,0.0,0.0,0.0,0.0,0.0,0.0,0.0,0.0,0.0,0.0,0.0,0.0,0.0,0.0,0.0,0.0,0.0,0.0,0.0,0.0,0.0,2.8578,0.0,0.0,0.0,0.0,0.0,0.0,0.0,0.0,0.0,0.0,0.0,0.0,0.0,0.0,0.0,0.0,0.0,0.0,0.0,0.0,0.0,0.0,0.0,0.0,0.0,0.0,0.0,0.0,0.0,0.0,0.0,0.0,0.0,0.0,0.0,0.0,0.0,0.0,0.0,0.0,0.0,0.0,0.0,0.0,0.0,0.0,0.0,0.0,0.0,0.0,0.0,0.0,0.0,0.0,0.0,0.0,0.0,0.0,0.0,0.0,0.0,0.0,0.0,0.0,0.0,0.0,0.0,0.0,0.0,0.0,0.0,0.0,0.0,0.0,0.0,0.0,0.0,0.0,0.0,0.0,0.0,0.0,0.0,0.0,0.0,0.0,0.0,0.0,0.0,0.0,0.0,0.0,0.0,0.0,0.0,0.0,0.0,0.0,0.0,0.0,0.0,0.0,0.0,0.0,0.0,0.0,0.0,0.0,0.0,0.0,3.0179,3.0087,3.0087,2.9874,2.9425,0.0,0.0,0.0,0.0,0.0,0.0,0.0,0.0,0.0,0.0,0.0,0.0,0.0,0.0,0.0,0.0,0.0,0.0,0.0,0.0,0.0,0.0,0.0,0.0,0.0,0.0,0.0,0.0,0.0,0.0,0.0,0.0,0.0,0.0,0.0,0.0,0.0,0.0,0.0,0.0,0.0,0.0,0.0,0.0,0.0,0.0,0.0,0.0,0.0,0.0,0.0,0.0,0.0,0.0,0.0,0.0,0.0,0.0,0.0,0.0,0.0,0.0,0.0,0.0,0.0,0.0,0.0,0.0,0.0,0.0,0.0,0.0,0.0,0.0,0.0,0.0,0.0,0.0,0.0,0.0,0.0,0.0,0.0,0.0,0.0,0.0,0.0,0.0,0.0,0.0,0.0,0.0,0.0,0.0,0.0,0.0,0.0,0.0,0.0,0.0,0.0,0.0,0.0,0.0,0.0,0.0,0.0,0.0,0.0,0.0,0.0,0.0,3.0083,3.0065,2.995,0.0,0.0,0.0,0.0,0.0,0.0,0.0,0.0,0.0,0.0,0.0,0.0,0.0,0.0,0.0,0.0,0.0,0.0,0.0,0.0,0.0,0.0,0.0,0.0,0.0,0.0,0.0,0.0,0.0,0.0,0.0,0.0,0.0,0.0,0.0,0.0,0.0,0.0,0.0,0.0,0.0,0.0,0.0,0.0,0.0,0.0,0.0,0.0,0.0,0.0,0.0,0.0,0.0,0.0,0.0,0.0,0.0,0.0,0.0,0.0,0.0,0.0,0.0,0.0,0.0,0.0,0.0,0.0,0.0,0.0,0.0,0.0,0.0,0.0,0.0,0.0,0.0,0.0,0.0,0.0,0.0,0.0,0.0,0.0,0.0,0.0,0.0,0.0,0.0,0.0,0.0,0.0,0.0,0.0,0.0,0.0,0.0,0.0,0.0,0.0,0.0,0.0,0.0,0.0,0.0,0.0,0.0,0.0,0.0,0.0,3.0167,3.0101,3.0082,0.0,2.9901,0.0,0.0,0.0,0.0,0.0,0.0,0.0,0.0,0.0,0.0,0.0,0.0,0.0,0.0,0.0,0.0,0.0,0.0,0.0,0.0,0.0,0.0,0.0,0.0,0.0,0.0,0.0,0.0,0.0,0.0,0.0,0.0,0.0,0.0,0.0,0.0,0.0,0.0,0.0,0.0,0.0,0.0,0.0,0.0,0.0,0.0,0.0,0.0,0.0,0.0,0.0,0.0,0.0,0.0,0.0,0.0,0.0,0.0,0.0,0.0,0.0,0.0,0.0,0.0,0.0,0.0,0.0,0.0,0.0,0.0,0.0,0.0,0.0,0.0,0.0,0.0,0.0,0.0,0.0,0.0,0.0,0.0,0.0,0.0,0.0,0.0,0.0,0.0,0.0,0.0,0.0,0.0,0.0,0.0,0.0,0.0,0.0,0.0,0.0,0.0,0.0,0.0,0.0,0.0,0.0,0.0,0.0,0.0,0.0,0.0,3.0176,3.0164,3.0116,3.0068,0.0,0.0,0.0,0.0,0.0,0.0,0.0,0.0,0.0,0.0,0.0,0.0,0.0,0.0,0.0,0.0,0.0,0.0,0.0,0.0,0.0,0.0,0.0,0.0,0.0,0.0,0.0,0.0,0.0,0.0,0.0,0.0,0.0,0.0,0.0,0.0,0.0,0.0,0.0,0.0,0.0,0.0,0.0,0.0,0.0,0.0,0.0,0.0,0.0,0.0,0.0,0.0,0.0,0.0,0.0,0.0,0.0,0.0,0.0,0.0,0.0,0.0,0.0,0.0,0.0,0.0,0.0,0.0,0.0,0.0,0.0,0.0,0.0,0.0,0.0,0.0,0.0,0.0,0.0,0.0,0.0,0.0,0.0,0.0,0.0,0.0,0.0,0.0,0.0,0.0,0.0,0.0,0.0,0.0,0.0,0.0,0.0,0.0,0.0,0.0,0.0,0.0,0.0,0.0,0.0,0.0,0.0,0.0,0.0,0.0,3.0231,3.0216,3.0208,3.0146,3.0076,3.0023,0.0,0.0,0.0,0.0,0.0,0.0,0.0,0.0,0.0,0.0,0.0,0.0,0.0,0.0,0.0,0.0,0.0,0.0,0.0,0.0,0.0,0.0,0.0,0.0,0.0,0.0,0.0,0.0,0.0,0.0,0.0,0.0,0.0,0.0,0.0,0.0,0.0,0.0,0.0,0.0,0.0,0.0,0.0,0.0,0.0,0.0,0.0,0.0,0.0,0.0,0.0,0.0,0.0,0.0,0.0,0.0,0.0,0.0,0.0,0.0,0.0,0.0,0.0,0.0,0.0,0.0,0.0,0.0,0.0,0.0,0.0,0.0,0.0,0.0,0.0,0.0,0.0,0.0,0.0,0.0,0.0,0.0,0.0,0.0,0.0,0.0,0.0,0.0,0.0,0.0,0.0,0.0,0.0,0.0,0.0,0.0,0.0,0.0,0.0,0.0,0.0,0.0,0.0,0.0,0.0,0.0,0.0,0.0,3.0312,3.0253,3.0219,3.0208,3.0127,3.0101,0.0,0.0,0.0,0.0,0.0,0.0,0.0,0.0,0.0,0.0,0.0,0.0,0.0,0.0,0.0,0.0,0.0,0.0,0.0,0.0,0.0,0.0,0.0,0.0,0.0,0.0,0.0,0.0,0.0,0.0,0.0,0.0,0.0,0.0,0.0,0.0,0.0,0.0,0.0,0.0,0.0,0.0,0.0,0.0,0.0,0.0,0.0,0.0,0.0,0.0,0.0,0.0,0.0,0.0,0.0,0.0,0.0,0.0,0.0,0.0,0.0,0.0,0.0,0.0,0.0,0.0,0.0,0.0,0.0,0.0,0.0,0.0,0.0,0.0,0.0,0.0,0.0,0.0,0.0,0.0,0.0,0.0,0.0,0.0,0.0,0.0,0.0,0.0,0.0,0.0,0.0,0.0,0.0,0.0,0.0,0.0,0.0,0.0,0.0,0.0,0.0,0.0,0.0,0.0,0.0,0.0,0.0,0.0,0.0,3.0305,3.0244,3.0216,3.0208,3.0174,3.015,0.0,0.0,0.0,0.0,0.0,0.0,0.0,0.0,0.0,0.0,0.0,0.0,0.0,0.0,0.0,0.0,0.0,0.0,0.0,0.0,0.0,0.0,0.0,0.0,0.0,0.0,0.0,0.0,0.0,0.0,0.0,0.0,0.0,0.0,0.0,0.0,0.0,0.0,0.0,0.0,0.0,0.0,0.0,0.0,0.0,0.0,0.0,0.0,0.0,0.0,0.0,0.0,0.0,0.0,0.0,0.0,0.0,0.0,0.0,0.0,0.0,0.0,0.0,0.0,0.0,0.0,0.0,0.0,0.0,0.0,0.0,0.0,0.0,0.0,0.0,0.0,0.0,0.0,0.0,0.0,0.0,0.0,0.0,0.0,0.0,0.0,0.0,0.0,0.0,0.0,0.0,0.0,0.0,0.0,0.0,0.0,0.0,0.0,0.0,0.0,0.0,0.0,0.0,0.0,0.0,0.0,0.0,0.0,0.0,3.0307,0.0,3.0204,3.0202,3.0215,3.019,0.0,0.0,0.0,0.0,0.0,0.0,0.0,0.0,0.0,0.0,0.0,0.0,0.0,0.0,0.0,0.0,0.0,0.0,0.0,0.0,0.0,0.0,0.0,0.0,0.0,0.0,0.0,0.0,0.0,0.0,0.0,0.0,0.0,0.0,0.0,0.0,0.0,0.0,0.0,0.0,0.0,0.0,0.0,0.0,0.0,0.0,0.0,0.0,0.0,0.0,0.0,0.0,0.0,0.0,0.0,0.0,0.0,0.0,0.0,0.0,0.0,0.0,0.0,0.0,0.0,0.0,0.0,0.0,0.0,0.0,0.0,0.0,0.0,0.0,0.0,0.0,0.0,0.0,0.0,0.0,0.0,0.0,0.0,0.0,0.0,0.0,0.0,0.0,0.0,0.0,0.0,0.0,0.0,0.0,0.0,0.0,0.0,0.0,0.0,0.0,0.0,0.0,0.0,0.0,0.0,0.0,0.0,0.0,3.045,3.0362,3.0311,3.0348,3.0249,3.026,3.0227,0.0,0.0,0.0,0.0,0.0,0.0,0.0,0.0,0.0,0.0,0.0,0.0,0.0,0.0,0.0,0.0,0.0,0.0,0.0,0.0,0.0,0.0,0.0,0.0,0.0,0.0,0.0,0.0,0.0,0.0,0.0,0.0,0.0,0.0,0.0,0.0,0.0,0.0,0.0,0.0,0.0,0.0,0.0,0.0,0.0,0.0,0.0,0.0,0.0,0.0,0.0,0.0,0.0,0.0,0.0,0.0,0.0,0.0,0.0,0.0,0.0,0.0,0.0,0.0,0.0,0.0,0.0,0.0,0.0,0.0,0.0,0.0,0.0,0.0,0.0,0.0,0.0,0.0,0.0,0.0,0.0,0.0,0.0,0.0,0.0,0.0,0.0,0.0,0.0,0.0,0.0,0.0,0.0,0.0,0.0,0.0,0.0,0.0,0.0,0.0,0.0,0.0,0.0,0.0,0.0,0.0,0.0,0.0,0.0,3.2109,3.2025,3.2006,3.1966,3.141,3.1102,0.0,0.0,0.0,0.0,0.0,0.0,0.0,0.0,0.0,0.0,0.0,0.0,0.0,0.0,0.0,0.0,0.0,0.0,0.0,0.0,0.0,0.0,0.0,0.0,0.0,0.0,0.0,0.0,0.0,0.0,0.0,0.0,0.0,0.0,0.0,0.0,0.0,0.0,0.0,0.0,0.0,0.0,0.0,0.0,0.0,0.0,0.0,0.0,0.0,0.0,0.0,0.0,0.0,0.0,0.0,0.0,0.0,0.0,0.0,0.0,0.0,0.0,0.0,0.0,0.0,0.0,0.0,0.0,0.0,0.0,0.0,0.0,0.0,0.0,0.0,0.0,0.0,0.0,0.0,0.0,0.0,0.0,0.0,0.0,0.0,0.0,0.0,0.0,0.0,0.0,0.0,0.0,0.0,0.0,0.0,0.0,0.0,0.0,0.0,0.0,0.0,0.0,0.0,0.0,0.0,0.0,0.0,0.0,0.0,3.4788,3.3812,3.3118,3.2814,3.228,3.1824,3.1507,0.0,0.0,0.0,0.0,0.0,0.0,0.0,0.0,0.0,0.0,0.0,0.0,0.0,0.0,0.0,0.0,0.0,0.0,0.0,0.0,0.0,0.0,0.0,0.0,0.0,0.0,0.0,0.0,0.0,0.0,0.0,0.0,0.0,0.0,0.0,0.0,0.0,0.0,0.0,0.0,0.0,0.0,0.0,0.0,0.0,0.0,0.0,0.0,0.0,0.0,0.0,0.0,0.0,0.0,0.0,0.0,0.0,0.0,0.0,0.0,0.0,0.0,0.0,0.0,0.0,0.0,0.0,0.0,0.0,0.0,0.0,0.0,0.0,0.0,0.0,0.0,0.0,0.0,0.0,0.0,0.0,0.0,0.0,0.0,0.0,0.0,0.0,0.0,0.0,0.0,0.0,0.0,0.0,0.0,0.0,0.0,0.0,0.0,0.0,0.0,0.0,0.0,0.0,0.0,0.0,0.0,0.0,0.0,3.8062,3.568,3.3984,3.3091,3.3009,3.2536,0.0,0.0,0.0,0.0,0.0,0.0,0.0,0.0,0.0,0.0,0.0,0.0,0.0,0.0,0.0,0.0,0.0,0.0,0.0,0.0,0.0,0.0,0.0,0.0,0.0,0.0,0.0,0.0,0.0,0.0,0.0,0.0,0.0,0.0,0.0,0.0,0.0,0.0,0.0,0.0,0.0,0.0,0.0,0.0,0.0,0.0,0.0,0.0,0.0,0.0,0.0,0.0,0.0,0.0,0.0,0.0,0.0,0.0,0.0,0.0,0.0,0.0,0.0,0.0,0.0,0.0,0.0,0.0,0.0,0.0,0.0,0.0,0.0,0.0,0.0,0.0,0.0,0.0,0.0,0.0,0.0,0.0,0.0,0.0,0.0,0.0,0.0,0.0,0.0,0.0,0.0,0.0,0.0,0.0,0.0,0.0,0.0,0.0,0.0,0.0,0.0,0.0,0.0,0.0,0.0,0.0,0.0,0.0,0.0,3.8112,3.8037,3.7273,3.5728,3.5066,3.4292,0.0,0.0,0.0,0.0,0.0,0.0,0.0,0.0,0.0,0.0,0.0,0.0,0.0,0.0,0.0,0.0,0.0,0.0,0.0,0.0,0.0,0.0,0.0,0.0,0.0,0.0,0.0,0.0,0.0,0.0,0.0,0.0,0.0,0.0,0.0,0.0,0.0,0.0,0.0,0.0,0.0,0.0,0.0,0.0,0.0,0.0,0.0,0.0,0.0,0.0,0.0,0.0,0.0,0.0,0.0,0.0,0.0,0.0,0.0,0.0,0.0,0.0,0.0,0.0,0.0,0.0,0.0,0.0,0.0,0.0,0.0,0.0,0.0,0.0,0.0,0.0,0.0,0.0,0.0,0.0,0.0,0.0,0.0,0.0,0.0,0.0,0.0,0.0,0.0,0.0,0.0,0.0,0.0,0.0,0.0,0.0,0.0,0.0,0.0,0.0,0.0,0.0,0.0,0.0,0.0,0.0,0.0,0.0,3.9576,3.9757,3.9895,3.9254,3.7858,3.6605,3.5555,0.0,0.0,0.0,0.0,0.0,0.0,0.0,0.0,0.0,0.0,0.0,0.0,0.0,0.0,0.0,0.0,0.0,0.0,0.0,0.0,0.0,0.0,0.0,0.0,0.0,0.0,0.0,0.0,0.0,0.0,0.0,0.0,0.0,0.0,0.0,0.0,0.0,0.0,0.0,0.0,0.0,0.0,0.0,0.0,0.0,0.0,0.0,0.0,0.0,0.0,0.0,0.0,0.0,0.0,0.0,0.0,0.0,0.0,0.0,0.0,0.0,0.0,0.0,0.0,0.0,0.0,0.0,0.0,0.0,0.0,0.0,0.0,0.0,0.0,0.0,0.0,0.0,0.0,0.0,0.0,0.0,0.0,0.0,0.0,0.0,0.0,0.0,0.0,0.0,0.0,0.0,0.0,0.0,0.0,0.0,0.0,0.0,0.0,0.0,0.0,0.0,0.0,0.0,0.0,0.0,0.0,0.0,0.0,4.063,4.219,4.1324,4.0459,3.966,3.7931,3.6512,0.0,0.0,0.0,0.0,0.0,0.0,0.0,0.0,0.0,0.0,0.0,0.0,0.0,0.0,0.0,0.0,0.0,0.0,0.0,0.0,0.0,0.0,0.0,0.0,0.0,0.0,0.0,0.0,0.0,0.0,0.0,0.0,0.0,0.0,0.0,0.0,0.0,0.0,0.0,0.0,0.0,0.0,0.0,0.0,0.0,0.0,0.0,0.0,0.0,0.0,0.0,0.0,0.0,0.0,0.0,0.0,0.0,0.0,0.0,0.0,0.0,0.0,0.0,0.0,0.0,0.0,0.0,0.0,0.0,0.0,0.0,0.0,0.0,0.0,0.0,0.0,0.0,0.0,0.0,0.0,0.0,0.0,0.0,0.0,0.0,0.0,0.0,0.0,0.0,0.0,0.0,0.0,0.0,0.0,0.0,0.0,0.0,0.0,0.0,0.0,0.0,0.0,0.0,0.0,0.0,0.0,0.0,0.0,4.2122,4.3067,4.2263,4.1697,4.1461,3.9693,3.8047,0.0,0.0,0.0,0.0,0.0,0.0,0.0,0.0,0.0,0.0,0.0,0.0,0.0,0.0,0.0,0.0,0.0,0.0,0.0,0.0,0.0,0.0,0.0,0.0,0.0,0.0,0.0,0.0,0.0,0.0,0.0,0.0,0.0,0.0,0.0,0.0,0.0,0.0,0.0,0.0,0.0,0.0,0.0,0.0,0.0,0.0,0.0,0.0,3.5156,0.0,0.0,0.0,0.0,0.0,0.0,0.0,0.0,0.0,0.0,0.0,0.0,0.0,0.0,0.0,0.0,0.0,0.0,0.0,0.0,0.0,0.0,0.0,0.0,0.0,0.0,0.0,0.0,0.0,0.0,0.0,0.0,0.0,0.0,0.0,0.0,0.0,0.0,0.0,0.0,0.0,0.0,0.0,0.0,0.0,0.0,0.0,0.0,0.0,0.0,0.0,0.0,0.0,0.0,0.0,0.0,0.0,0.0,0.0,4.3243,4.3998,4.3196,4.2541,4.208,4.1094,3.9588,0.0,0.0,0.0,0.0,0.0,0.0,0.0,0.0,0.0,0.0,0.0,0.0,0.0,0.0,0.0,0.0,0.0,0.0,0.0,0.0,0.0,0.0,0.0,0.0,0.0,0.0,0.0,0.0,0.0,0.0,0.0,0.0,0.0,0.0,0.0,0.0,0.0,0.0,0.0,0.0,0.0,0.0,0.0,0.0,0.0,0.0,0.0,0.0,0.0,0.0,0.0,0.0,0.0,0.0,0.0,0.0,0.0,0.0,0.0,0.0,0.0,0.0,0.0,0.0,0.0,0.0,0.0,0.0,0.0,0.0,0.0,0.0,0.0,0.0,0.0,0.0,0.0,0.0,0.0,0.0,0.0,0.0,0.0,0.0,0.0,0.0,0.0,0.0,0.0,0.0,0.0,0.0,0.0,0.0,0.0,0.0,0.0,0.0,0.0,0.0,0.0,0.0,0.0,0.0,0.0,0.0,0.0,4.3362,4.4209,4.495,4.4142,4.3297,4.2431,4.2154,4.0788,3.8221,0.0,0.0,0.0,0.0,0.0,0.0,0.0,0.0,0.0,0.0,0.0,0.0,0.0,0.0,0.0,0.0,0.0,0.0,0.0,0.0,0.0,0.0,0.0,0.0,0.0,0.0,0.0,0.0,0.0,0.0,0.0,0.0,0.0,0.0,0.0,0.0,0.0,0.0,3.4574,3.5957,0.0,0.0,0.0,0.0,0.0,0.0,0.0,0.0,3.5768,0.0,0.0,0.0,0.0,0.0,0.0,0.0,0.0,0.0,0.0,0.0,0.0,0.0,0.0,0.0,0.0,0.0,0.0,0.0,0.0,0.0,0.0,0.0,0.0,0.0,0.0,0.0,0.0,0.0,0.0,0.0,0.0,0.0,0.0,0.0,0.0,0.0,0.0,0.0,0.0,0.0,0.0,0.0,0.0,0.0,0.0,0.0,0.0,0.0,0.0,0.0,0.0,0.0,0.0,0.0,0.0,4.3347,4.4233,4.5099,4.593,4.5056,4.4176,4.3316,4.2502,4.0867,3.8342,0.0,0.0,0.0,0.0,0.0,0.0,0.0,0.0,0.0,0.0,0.0,0.0,0.0,0.0,0.0,0.0,0.0,0.0,0.0,0.0,0.0,0.0,0.0,0.0,0.0,0.0,0.0,0.0,0.0,0.0,0.0,0.0,0.0,0.0,0.0,0.0,0.0,0.0,0.0,3.7202,3.774,0.0,0.0,0.0,0.0,0.0,0.0,0.0,0.0,3.6392,0.0,0.0,0.0,0.0,0.0,0.0,0.0,0.0,0.0,0.0,0.0,0.0,0.0,0.0,0.0,0.0,0.0,0.0,0.0,0.0,0.0,0.0,0.0,0.0,0.0,0.0,0.0,0.0,0.0,0.0,0.0,0.0,0.0,0.0,0.0,0.0,0.0,0.0,0.0,0.0,0.0,0.0,0.0,0.0,0.0,0.0,0.0,0.0,0.0,0.0,0.0,0.0,0.0,0.0,0.0,4.3604,4.4951,4.5816,4.6178,4.5761,4.4868,4.3554,4.307,4.1371,0.0,0.0,0.0,0.0,0.0,0.0,0.0,0.0,0.0,0.0,0.0,0.0,0.0,0.0,0.0,0.0,0.0,0.0,0.0,0.0,0.0,0.0,0.0,0.0,0.0,0.0,0.0,0.0,0.0,0.0,0.0,0.0,0.0,0.0,0.0,0.0,0.0,0.0,0.0,0.0,3.8203,3.8569,3.8106,0.0,0.0,0.0,0.0,0.0,0.0,3.7436,3.7337,0.0,0.0,0.0,0.0,0.0,0.0,0.0,0.0,0.0,0.0,0.0,0.0,0.0,0.0,0.0,0.0,0.0,0.0,0.0,0.0,0.0,0.0,0.0,0.0,0.0,0.0,0.0,0.0,0.0,0.0,0.0,0.0,0.0,0.0,0.0,0.0,0.0,0.0,0.0,0.0,0.0,0.0,0.0,0.0,0.0,0.0,0.0,0.0,0.0,0.0,0.0,0.0,0.0,0.0,0.0,4.3971,4.55,4.6271,4.6216,4.6204,4.5338,4.3592,4.3517,4.1856,0.0,0.0,0.0,0.0,0.0,0.0,0.0,0.0,0.0,0.0,0.0,0.0,0.0,0.0,0.0,0.0,0.0,0.0,0.0,0.0,0.0,0.0,0.0,0.0,0.0,0.0,0.0,0.0,0.0,0.0,0.0,0.0,0.0,0.0,0.0,0.0,0.0,0.0,0.0,0.0,0.0,3.9408,3.8705,3.9189,0.0,0.0,0.0,0.0,3.8544,3.8446,0.0,0.0,0.0,0.0,0.0,0.0,0.0,0.0,0.0,0.0,0.0,0.0,0.0,0.0,0.0,0.0,0.0,0.0,0.0,0.0,0.0,0.0,0.0,0.0,0.0,0.0,0.0,0.0,0.0,0.0,0.0,0.0,0.0,0.0,0.0,0.0,0.0,0.0,0.0,0.0,0.0,0.0,0.0,0.0,0.0,0.0,0.0,0.0,0.0,0.0,0.0,0.0,0.0,0.0,0.0,0.0,4.4812,4.582,4.6302,4.6297,4.6242,4.5356,4.3635,4.3525,4.1874,0.0,0.0,0.0,0.0,0.0,0.0,0.0,0.0,0.0,0.0,0.0,0.0,0.0,0.0,0.0,0.0,0.0,0.0,0.0,0.0,0.0,0.0,0.0,0.0,0.0,0.0,0.0,0.0,0.0,0.0,0.0,0.0,0.0,0.0,0.0,0.0,0.0,0.0,0.0,0.0,0.0,4.0418,4.0318,4.0398,4.0691,0.0,0.0,4.0302,4.0291,3.9773,0.0,0.0,0.0,0.0,0.0,0.0,0.0,0.0,0.0,0.0,0.0,0.0,0.0,0.0,0.0,0.0,0.0,0.0,0.0,0.0,0.0,0.0,0.0,0.0,0.0,0.0,0.0,0.0,0.0,0.0,0.0,0.0,0.0,0.0,0.0,0.0,0.0,0.0,0.0,0.0,0.0,0.0,0.0,0.0,0.0,0.0,0.0,0.0,0.0,0.0,0.0,0.0,0.0,0.0,0.0,4.375,4.4966,4.5857,4.63,4.6293,4.6245,4.5381,4.3627,4.3572,4.1902,0.0,0.0,0.0,0.0,0.0,0.0,0.0,0.0,0.0,0.0,0.0,0.0,0.0,0.0,0.0,0.0,0.0,0.0,0.0,0.0,0.0,0.0,0.0,0.0,0.0,0.0,0.0,0.0,0.0,0.0,0.0,0.0,0.0,0.0,0.0,0.0,0.0,0.0,0.0,0.0,0.0,0.0,4.2053,4.2163,0.0,0.0,0.0,4.2173,4.2134,0.0,0.0,0.0,0.0,0.0,0.0,0.0,0.0,0.0,0.0,0.0,0.0,0.0,0.0,0.0,0.0,0.0,0.0,0.0,0.0,0.0,0.0,0.0,0.0,0.0,0.0,0.0,0.0,0.0,0.0,0.0,0.0,0.0,0.0,0.0,0.0,0.0,0.0,0.0,0.0,0.0,0.0,0.0,0.0,0.0,0.0,0.0,0.0,0.0,0.0,0.0,0.0,0.0,0.0,0.0,0.0,0.0,4.5305,4.5966,4.6293,4.6303,4.6248,4.5386,4.37,4.3605,0.0,0.0,0.0,0.0,0.0,0.0,0.0,0.0,0.0,0.0,0.0,0.0,0.0,0.0,0.0,0.0,0.0,0.0,0.0,0.0,0.0,0.0,0.0,0.0,0.0,0.0,0.0,3.3977,0.0,0.0,0.0,0.0,0.0,0.0,0.0,0.0,0.0,0.0,0.0,0.0,0.0,0.0,4.2643,4.3247,4.3356,4.3459,0.0,0.0,4.3451,4.3637,4.296,4.2433,0.0,0.0,0.0,0.0,0.0,0.0,0.0,0.0,0.0,0.0,0.0,0.0,0.0,0.0,0.0,0.0,0.0,0.0,0.0,0.0,0.0,0.0,0.0,0.0,0.0,0.0,0.0,0.0,0.0,0.0,0.0,0.0,0.0,0.0,0.0,0.0,0.0,0.0,0.0,0.0,0.0,0.0,0.0,0.0,0.0,0.0,0.0,0.0,0.0,0.0,0.0,0.0,0.0,0.0,0.0,4.6165,4.6262,4.6299,4.6292,4.6303,4.5471,4.377,4.3643,4.2332,0.0,0.0,0.0,0.0,0.0,0.0,0.0,0.0,0.0,0.0,0.0,0.0,0.0,0.0,0.0,0.0,0.0,0.0,0.0,0.0,0.0,0.0,0.0,0.0,0.0,0.0,0.0,0.0,0.0,0.0,0.0,0.0,0.0,0.0,0.0,0.0,0.0,0.0,0.0,0.0,0.0,4.3324,4.3382,4.3404,4.3715,0.0,0.0,4.3676,4.4484,4.3873,4.3297,4.3316,0.0,0.0,0.0,0.0,0.0,0.0,0.0,0.0,0.0,0.0,0.0,0.0,0.0,0.0,0.0,0.0,0.0,0.0,0.0,0.0,0.0,0.0,0.0,0.0,0.0,0.0,0.0,0.0,0.0,0.0,0.0,0.0,0.0,0.0,0.0,0.0,0.0,0.0,0.0,0.0,0.0,0.0,0.0,0.0,0.0,0.0,0.0,0.0,0.0,0.0,0.0,0.0,0.0,4.4548,4.6268,4.6306,4.6305,4.6303,4.629,4.5728,4.4525,4.3923,4.261,0.0,0.0,0.0,0.0,0.0,0.0,0.0,0.0,0.0,0.0,0.0,0.0,0.0,0.0,0.0,0.0,0.0,0.0,0.0,0.0,0.0,0.0,0.0,0.0,0.0,0.0,0.0,0.0,3.7496,3.7628,3.8034,0.0,0.0,0.0,0.0,0.0,0.0,0.0,0.0,0.0,0.0,4.5182,4.5725,4.6268,0.0,0.0,4.6829,4.653,4.633,4.5567,4.4837,4.4333,4.3833,0.0,0.0,0.0,0.0,0.0,0.0,0.0,0.0,0.0,0.0,0.0,0.0,0.0,0.0,0.0,0.0,0.0,0.0,0.0,0.0,0.0,0.0,0.0,0.0,0.0,0.0,0.0,0.0,0.0,0.0,0.0,0.0,0.0,0.0,0.0,0.0,0.0,0.0,0.0,0.0,0.0,0.0,0.0,0.0,0.0,0.0,0.0,0.0,0.0,0.0,0.0,0.0,4.455,4.6289,4.6289,4.6288,4.6287,4.6297,4.5893,4.5003,4.4114,4.2917,0.0,0.0,0.0,0.0,0.0,0.0,0.0,0.0,0.0,0.0,0.0,0.0,0.0,0.0,0.0,0.0,0.0,0.0,0.0,0.0,0.0,0.0,0.0,0.0,0.0,0.0,0.0,0.0,3.8819,3.9159,3.9248,0.0,0.0,0.0,0.0,0.0,0.0,0.0,0.0,0.0,0.0,4.6978,4.7587,4.8169,4.858,4.856,4.8565,4.8349,4.7747,4.7154,4.6579,4.6016,0.0,0.0,0.0,0.0,0.0,0.0,0.0,0.0,0.0,0.0,0.0,0.0,0.0,0.0,0.0,0.0,0.0,0.0,0.0,0.0,0.0,0.0,0.0,0.0,0.0,0.0,0.0,0.0,0.0,0.0,3.3573,0.0,0.0,0.0,0.0,0.0,0.0,0.0,0.0,0.0,0.0,0.0,0.0,0.0,0.0,0.0,0.0,0.0,0.0,0.0,0.0,0.0,0.0,4.457,4.6268,4.6289,4.6289,4.6287,4.6303,4.5906,4.5034,4.4174,4.3245,4.2252,0.0,0.0,0.0,0.0,0.0,0.0,0.0,0.0,0.0,0.0,0.0,0.0,0.0,0.0,0.0,0.0,0.0,0.0,0.0,0.0,0.0,0.0,0.0,0.0,0.0,0.0,3.9165,4.0693,4.1734,0.0,0.0,0.0,0.0,0.0,0.0,0.0,0.0,0.0,0.0,4.7422,4.8434,4.8464,4.8519,4.8616,4.8577,4.8583,4.8547,4.8547,4.8538,4.8561,0.0,0.0,0.0,0.0,0.0,0.0,0.0,0.0,0.0,0.0,0.0,0.0,0.0,0.0,0.0,0.0,0.0,0.0,0.0,0.0,0.0,0.0,0.0,0.0,0.0,0.0,0.0,3.6789,3.6793,0.0,0.0,0.0,0.0,0.0,0.0,0.0,0.0,0.0,0.0,0.0,4.1944,4.1945,0.0,0.0,0.0,0.0,0.0,0.0,0.0,0.0,0.0,0.0,0.0,0.0,4.5135,4.6248,4.6288,4.6289,4.6289,4.6305,4.6162,4.586,4.4979,4.3553,4.1501,0.0,0.0,0.0,0.0,0.0,0.0,0.0,0.0,0.0,0.0,0.0,0.0,0.0,0.0,0.0,0.0,0.0,0.0,0.0,0.0,0.0,0.0,0.0,0.0,0.0,4.1501,0.0,0.0,0.0,0.0,0.0,0.0,0.0,0.0,0.0,0.0,0.0,4.7666,4.7654,4.8645,4.9369,4.9375,5.0306,5.1023,0.0,0.0,0.0,0.0,0.0,0.0,0.0,0.0,0.0,0.0,0.0,0.0,0.0,0.0,5.0774,4.904,4.828,4.7937,4.7915,0.0,0.0,0.0,0.0,0.0,0.0,0.0,0.0,0.0,0.0,0.0,0.0,0.0,0.0,0.0,0.0,3.941,0.0,0.0,0.0,0.0,0.0,0.0,0.0,0.0,4.344,4.3695,4.3695,4.3695,4.3695,0.0,4.3701,4.2533,0.0,0.0,0.0,0.0,0.0,0.0,0.0,0.0,4.6032,4.7145,4.7205,4.7206,4.7207,4.6911,4.6749,4.6726,4.5544,4.3953,4.1976,4.0701,3.9761,0.0,0.0,0.0,0.0,0.0,0.0,0.0,0.0,0.0,0.0,0.0,0.0,0.0,0.0,0.0,0.0,0.0,0.0,0.0,0.0,0.0,0.0,0.0,4.3131,0.0,0.0,0.0,0.0,0.0,0.0,0.0,0.0,0.0,4.7442,4.8543,4.9508,4.9792,5.0547,5.1069,5.1063,0.0,0.0,0.0,0.0,0.0,0.0,0.0,5.2673,5.2152,5.207,5.2079,5.2088,5.2833,5.3405,5.3464,0.0,0.0,5.1727,5.093,5.0566,5.0584,5.0574,5.0587,5.0612,5.0601,5.0626,0.0,0.0,0.0,0.0,0.0,0.0,0.0,0.0,4.1215,4.1241,0.0,4.129,0.0,0.0,0.0,0.0,0.0,4.3833,0.0,0.0,4.395,4.3873,4.3912,4.3951,4.3892,4.3873,4.3952,4.3904,4.3842,4.3851,0.0,0.0,0.0,0.0,0.0,0.0,4.7217,4.8781,4.8844,4.8866,4.8848,4.8063,4.7629,4.755,4.5852,4.4488,4.3605,4.1927,4.0938,4.0843,3.918,0.0,0.0,0.0,0.0,0.0,0.0,0.0,0.0,0.0,0.0,0.0,0.0,0.0,0.0,0.0,0.0,0.0,0.0,0.0,0.0,4.3297,0.0,0.0,0.0,0.0,0.0,0.0,0.0,0.0,0.0,0.0,5.0092,5.0678,5.1466,5.2213,0.0,0.0,0.0,0.0,5.3449,5.3449,5.3542,5.3598,5.3608,5.3702,5.3812,5.3812,0.0,0.0,5.396,5.4675,5.5249,5.5237,5.5338,5.5039,5.424,5.387,5.372,5.3742,5.3663,5.3856,5.3929,5.361,5.3736,4.2712,0.0,0.0,0.0,0.0,4.2847,4.2915,4.2919,4.3538,4.382,4.3864,4.4484,0.0,0.0,0.0,0.0,0.0,0.0,4.68,4.7328,4.7327,4.737,4.7396,4.7356,4.7361,4.7426,4.7406,4.7408,4.7412,4.7397,4.6149,4.3786,0.0,0.0,0.0,0.0,4.8366,4.8859,4.89,4.8884,4.8887,4.8668,4.8207,4.7556,4.5824,4.4752,4.4463,4.3357,4.2701,4.2582,4.1454,0.0,0.0,0.0,0.0,0.0,0.0,0.0,0.0,0.0,0.0,0.0,0.0,0.0,0.0,0.0,0.0,0.0,0.0,0.0,4.6662,4.6784,4.6831,0.0,0.0,0.0,0.0,0.0,0.0,0.0,0.0,0.0,5.3411,5.3106,5.2963,0.0,0.0,5.3404,5.3342,5.3886,5.4338,5.4333,5.4875,0.0,0.0,5.5424,5.5701,5.6315,5.6932,5.7373,5.744,5.7648,5.7812,5.786,5.7909,5.7808,5.7477,5.5507,5.4054,5.3899,5.3899,5.3916,5.3987,5.3982,5.401,4.6096,4.5585,4.5312,4.5209,4.5228,4.5561,4.5689,4.5714,4.6221,4.6447,4.647,4.7005,4.7228,4.7237,4.7222,0.0,0.0,0.0,4.8355,4.8804,4.8827,4.8851,4.8893,4.8855,4.8857,4.89,4.89,4.89,4.8882,4.8884,4.785,4.5859,0.0,0.0,4.7823,4.8814,4.9498,4.9875,4.9896,4.99,4.9902,4.9547,4.8944,4.8021,4.6656,4.5906,4.5808,4.4628,4.3926,4.3815,4.2918,4.2368,0.0,0.0,0.0,0.0,0.0,0.0,0.0,0.0,0.0,0.0,0.0,4.2701,4.3878,0.0,0.0,0.0,4.6617,4.7051,4.8101,4.8231,0.0,0.0,0.0,0.0,0.0,0.0,0.0,5.2186,5.3424,5.4562,5.5312,5.5241,5.5076,5.503,5.4976,5.5042,5.5325,0.0,5.6192,5.6212,5.6664,5.7024,5.7071,5.7148,5.74,5.7924,5.8434,5.8781,5.8843,5.8883,5.8915,5.8937,5.8971,5.8999,5.8999,5.7262,5.5901,5.5915,5.5915,5.5953,5.6008,5.5749,5.5506,4.8788,4.8742,4.8134,4.7772,4.7677,4.852,4.8902,4.8909,4.9026,4.9115,4.9101,4.9177,4.9206,4.9211,4.9222,0.0,4.921,4.9276,4.9299,4.9222,4.9268,4.9271,4.9213,4.9212,4.9174,4.9116,4.9096,4.9098,4.912,4.9178,4.9199,4.9199,4.9274,4.9602,5.0168,5.028,5.071,5.1496,5.1481,5.1464,5.1387,5.0543,4.9705,4.8917,4.8058,4.7541,4.7367,4.5794,4.4849,4.4689,4.3875,4.3331,4.319,0.0,0.0,0.0,0.0,0.0,0.0,0.0,0.0,0.0,0.0,0.0,0.0,0.0,0.0,4.814,4.8347,0.0,4.8483,4.8568,0.0,0.0,0.0,5.0534,5.1327,5.2166,5.302,5.3818,0.0,0.0,5.6198,5.6994,5.7497,5.7506,5.7434,5.7668,5.838,5.8394,5.8496,5.8341,5.8462,5.8505,5.8415,5.8608,5.8766,5.8877,5.8969,5.9104,5.9131,5.9137,5.9137,5.9204,5.9175,5.925,5.923,5.9191,5.9194,5.9116,5.8977,5.8921,5.8801,5.8251,5.7741,4.9562,4.9722,5.0831,5.02,4.8501,4.9358,4.9714,4.9825,5.1131,5.1694,5.1729,5.2413,5.2711,5.2775,5.2771,5.2763,5.2772,5.2794,5.2778,5.2764,5.2785,5.2436,5.1814,5.1794,5.1444,5.0839,5.08,5.082,5.084,5.1484,5.1797,5.1836,5.246,5.2222,5.1164,5.1749,5.2178,5.2394,5.2399,5.207,5.1402,5.0536,4.9993,4.9798,4.8955,4.8146,4.7423,4.6943,4.6318,4.5572,4.5255,4.5034,4.4815,4.424,0.0,0.0,0.0,0.0,0.0,0.0,0.0,0.0,0.0,4.5519,4.7209,0.0,4.8771,0.0,5.1037,5.1594,5.1068,5.172,0.0,0.0,5.223,5.2894,5.3146,5.3951,5.456,5.4754,5.6067,5.7029,5.7162,5.7905,5.861,5.9178,5.8668,5.8264,5.8428,5.8477,5.8496,5.8539,5.8606,5.8575,5.8709,5.9228,5.9704,5.9797,6.0332,6.0775,6.0791,6.0793,6.0812,6.0875,6.0892,6.0923,6.0923,6.0984,6.0945,6.0889,5.9951,5.8993,5.9018,5.8887,5.879,5.0548,5.1046,5.2013,5.1838,5.0979,5.1479,5.1691,5.1791,5.2756,5.3188,5.319,5.3671,5.3936,5.3982,5.3987,5.3996,5.3986,5.399,5.3994,5.398,5.3981,5.3748,5.3281,5.3281,5.3027,5.2558,5.2539,5.2539,5.2578,5.3027,5.3262,5.3301,5.3769,5.3711,5.3162,5.3239,5.3277,5.3277,5.2909,5.246,5.198,5.1114,5.0668,5.0654,4.9827,4.9111,4.8574,4.8129,4.7596,4.699,4.6866,4.6737,4.657,4.6104,4.58,0.0,0.0,0.0,0.0,0.0,0.0,0.0,0.0,0.0,0.0,0.0,5.0632,5.144,5.2393,5.2806,5.2454,5.2998,5.3215,5.2876,5.3344,5.3841,5.4291,5.4735,5.5166,5.5586,5.676,5.7663,5.7959,5.8707,5.9538,6.0315,5.9992,5.964,5.9616,5.9635,5.965,5.965,5.9692,5.9744,5.9788,6.0226,6.0593,6.0702,6.1066,6.1396,6.1396,6.1411,6.1425,6.144,6.1482,6.1517,6.1551,6.1583,6.1588,6.1473,6.0839,6.0246,6.0159,5.9866,5.965,5.1412,5.226,5.2402,5.2983,5.3848,5.4035,5.4076,5.3991,5.415,5.4219,5.4229,5.4229,5.4258,5.43,5.4321,5.4328,5.4318,5.4325,5.4331,5.4334,5.4316,5.4277,5.416,5.416,5.4101,5.4004,5.3984,5.3984,5.4004,5.4121,5.4179,5.4179,5.4276,5.4705,5.541,5.4726,5.4277,5.416,5.3319,5.2825,5.2695,5.1963,5.1517,5.1351,5.0651,5.0186,4.9965,4.919,4.8632,4.8415,4.827,4.8138,4.8004,4.7942,4.7878,0.0,4.7998,0.0,0.0,0.0,0.0,0.0,0.0,0.0,0.0,5.1926,5.2347,5.3151,5.3214,5.3209,5.324,5.3465,5.3613,5.3647,5.3828,5.4232,5.5042,5.5103,5.5426,5.6333,5.716,5.7943,5.869,5.9545,6.0355,6.0915,6.0997,6.0935,6.1036,6.0997,6.0959,6.1094,6.1094,6.0933,6.1085,6.1196,6.1267,6.1352,6.1373,6.1396,6.1396,6.1405,6.1409,6.1402,6.1467,6.1484,6.1492,6.1573,6.1588,6.1588,6.1493,6.1461,6.1415,6.0958,6.0524,5.1154,5.2101,5.2876,5.3739,5.4649,5.5463,5.5469,5.4891,5.5616,5.595,5.6003,5.6005,5.6026,5.6043,5.6073,5.6123,5.6113,5.6102,5.6108,5.6111,5.6093,5.5723,5.5078,5.5039,5.4687,5.4023,5.3984,5.3983,5.4002,5.4703,5.5052,5.5072,5.5755,5.6185,5.6342,0.0,0.0,0.0,5.4189,5.3419,5.2726,5.2539,5.2104,5.1353,5.1172,0.0,4.9948,4.9695,4.9185,4.8373,4.829,0.0,0.0,0.0,0.0,0.0,0.0,0.0,0.0,0.0,0.0,0.0,5.3225,5.2983,5.2651,5.3188,5.3964,5.4836,5.4861,5.4631,5.4137,5.4795,5.5031,5.4555,5.5114,5.5664,5.5939,5.5942,5.6268,5.7106,5.794,5.8769,5.9534,6.0412,6.0955,6.1065,6.1094,6.1094,6.1094,6.1094,6.1094,6.1094,6.1094,6.1137,6.121,6.1272,6.1314,6.1322,6.1359,6.1393,6.1396,6.14,6.1401,6.1409,6.1466,6.1501,6.1487,6.1551,6.1588,6.1588,6.1588,6.159,6.1595,6.1474,6.135,5.1187,0.0,5.3037,5.4043,0.0,5.5924,5.5927,5.5623,5.6172,5.6439,5.6463,5.648,5.6483,5.6488,5.6535,5.6586,5.6621,5.6605,5.6613,5.6619,5.662,5.6367,5.5937,5.5956,5.5722,5.5291,5.5269,5.5288,5.5307,5.5735,5.5927,5.5904,5.633,5.656,5.6556,5.6551,5.6318,5.5898,5.5075,5.4421,5.3934,5.31,5.2432,5.1965,0.0,0.0,0.0,0.0,0.0,0.0,0.0,0.0,0.0,0.0,0.0,4.9735,5.0837,5.1525,5.1582,5.2728,5.3632,5.4065,5.4868,5.4963,5.4161,5.4467,5.488,5.5339,5.5365,5.5217,5.4955,5.5382,5.5563,5.5307,5.5705,5.6023,5.6086,5.6133,5.6474,5.7307,5.8145,5.8961,5.9809,6.0632,6.1102,6.1099,6.1094,6.1094,6.1094,6.1094,6.1094,6.1094,6.1094,6.1137,6.1197,6.1223,6.127,6.1287,6.1337,6.1355,6.1393,6.1396,6.1403,6.1408,6.1418,6.1472,6.1504,6.1531,6.1554,6.1585,6.1588,6.1588,6.1588,6.1578,6.1589,5.1222,5.2916,5.2998,5.4089,5.5764,5.5913,5.6014,5.6121,0.0,0.0,0.0,5.6459,5.6487,5.6496,5.6482,5.6518,5.6576,5.6579,5.6588,5.6617,5.6618,5.6618,5.6618,5.6618,5.6617,5.6612,5.6591,5.6589,5.6589,5.6587,5.6563,5.6515,5.6487,5.6496,5.6484,5.649,5.6496,5.6458,5.5856,5.5417,5.5175,5.3795,5.2974,5.2829,5.2128,5.1689,5.1553,5.1525,5.1467,5.132,5.1199,5.1106,5.0992,5.1573,5.1894,5.1873,5.2587,5.3034,5.304,5.3855,5.439,5.4543,5.5963,5.6549,5.588,5.5708,5.5606,5.5606,5.5498,5.5432,5.5498,5.5607,5.5719,5.5787,5.5905,5.5971,5.5977,5.6016,5.6459,5.7431,5.8185,5.895,5.9997,6.0684,6.109,6.109,6.108,6.1094,6.1084,6.1089,6.1094,6.1094,6.1094,6.1113,6.1164,6.1182,6.1217,6.1259,6.1306,6.1333,6.1378,6.1393,6.1396,6.1396,6.1408,6.1428,6.1478,6.1512,6.1519,6.1583,6.1588,6.1588,6.1588,6.1588,6.1595,5.0899,5.2673,5.273,5.3826,5.5568,5.5698,5.5869,5.6118,5.6253,5.635,5.6404,5.6411,5.6416,5.6424,5.6475,5.6517,5.6514,5.6525,5.6556,0.0,5.6611,5.6613,5.6613,5.6613,5.6613,5.6592,5.654,5.6513,5.6511,5.6511,5.6496,5.6494,5.6491,5.6488,5.6486,5.6483,5.6496,5.6487,5.6386,5.5955,5.5213,5.4956,5.4439,5.3677,5.3495,5.3383,5.3251,5.3221,5.317,5.298,5.2938,5.2878,5.2745,5.2785,5.2786,5.2767,5.3453,5.3913,5.3951,5.4728,5.5517,5.6224,5.716,5.7657,5.7542,5.6855,5.6441,5.6403,5.583,5.5432,5.5492,5.5568,5.5657,5.5796,5.5826,5.5851,5.5919,5.5933,5.6541,5.8008,5.8341,5.9065,6.0488,6.0927,6.1023,6.1018,6.1014,6.102,6.1026,6.107,6.1094,6.1094,6.1094,6.1099,6.1132,6.1164,6.121,6.1223,6.1255,6.1322,6.1329,6.1378,6.1393,6.1396,6.1408,6.1425,6.1475,6.149,6.1517,6.1561,6.1585,6.1588,6.1588,6.1588,6.159,5.0293,5.1672,5.223,5.3261,5.4683,5.5328,5.5688,5.5841,5.596,5.6108,5.6297,5.6339,5.6334,5.6351,5.6416,5.6464,5.6482,5.6499,5.6513,5.6544,5.6551,5.6553,5.6553,5.6553,5.655,5.6543,5.6511,5.6486,5.6484,5.648,5.6484,5.6453,5.645,5.6438,5.6438,5.6438,5.6433,5.6461,5.6486,5.6303,5.5915,5.5416,5.4939,5.4521,5.4058,5.3746,5.3605,5.3601,5.3526,5.3314,5.329,5.3239,5.3121,5.3486,5.3673,5.364,5.437,5.4811,5.4791,5.5575,5.6632,5.7889,5.8367,5.8827,5.9338,5.8138,5.72,5.676,5.6344,5.5985,5.5602,5.5598,5.5635,5.5716,5.5771,5.5821,5.5841,5.5885,5.6556,5.8074,5.8402,5.9077,6.0799,6.1011,6.1011,6.1011,6.1011,6.1003,6.1009,6.1035,6.1075,6.1104,6.1094,6.1094,6.1099,6.1132,6.1155,6.1177,6.1261,6.1314,6.1318,6.1352,6.1393,6.1396,6.1394,6.1418,6.145,6.1484,6.1515,6.1524,6.1581,6.1585,6.1588,6.1588,6.1588,4.9717,5.0843,5.1492,5.2581,5.3866,5.4912,5.5424,5.5536,5.5628,5.5817,5.6056,5.62,5.6245,5.6255,5.6339,5.6416,5.6455,5.6476,5.6455,5.6491,5.6473,5.6473,5.6473,5.6473,5.6465,5.6471,5.6468,5.6486,5.6462,5.6484,5.6446,5.639,5.639,5.6408,5.6408,5.6408,5.6408,5.6391,5.6468,5.6485,5.645,5.575,5.5395,5.5327,5.4719,5.4291,5.419,5.4202,5.4088,5.3898,5.3884,5.3817,5.3732,5.424,5.4555,5.4571,5.5237,5.5778,5.6014,5.6741,5.7755,5.907,5.9408,5.9811,6.0399,5.9409,5.8189,5.7268,5.6922,5.6472,5.5763,5.5613,5.5635,5.5684,5.5726,5.5771,5.5776,5.5826,5.6502,5.8005,5.8391,5.9022,6.0453,6.0974,6.0949,6.0949,6.0955,6.0979,6.099,6.099,6.1018,6.1051,6.107,6.108,6.108,6.1094,6.1113,6.1168,6.1232,6.1278,6.1295,6.1337,6.1366,6.1389,6.1396,6.1398,6.1409,6.1463,6.1495,6.1509,6.1554,6.1588,6.1588,6.1588,6.1588,4.9311,5.0296,5.0526,5.1721,5.3524,5.445,5.4979,5.5256,5.5332,5.5467,5.5651,5.5994,5.6113,5.6139,5.6252,5.6311,5.6321,5.6369,5.6414,5.6414,5.6398,5.6398,5.6416,5.6416,5.6396,5.6409,5.6411,5.64,5.64,5.6412,5.6397,5.6397,5.6391,5.6383,5.6386,5.6386,5.6406,5.6408,5.6397,5.6399,5.6416,5.6336,5.6264,5.6191,5.611,5.6042,5.5857,5.5966,5.5869,5.5692,5.561,5.5581,5.5434,5.5414,5.5383,5.541,5.6072,5.6816,5.7606,5.8469,5.8987,5.923,5.999,6.0489,6.0673,6.0525,5.9727,5.8302,5.7334,5.6614,5.5755,5.5665,5.5692,5.5703,5.5695,5.5714,5.5719,5.5719,5.6392,5.8105,5.8303,5.8946,6.0444,6.0835,6.0829,6.0841,6.0821,6.0871,6.0891,6.0916,6.0933,6.0978,6.1016,6.1026,6.1017,6.1051,6.1094,6.1127,6.1164,6.1193,6.1181,6.1186,6.1279,6.0897,6.1183,6.1138,6.1305,6.144,6.1451,6.1501,6.1546,6.1588,6.1588,6.1588,6.1588,4.8679,4.9242,4.9822,5.0915,5.2302,5.2881,5.3425,5.3997,5.4216,5.46,5.5146,5.548,5.5726,5.5917,5.6064,5.6139,5.6197,5.6252,5.6285,5.6272,5.6295,5.6275,5.6275,5.6275,5.6275,5.6275,5.6281,5.6275,5.6269,5.6261,5.6275,5.6275,5.6275,5.6275,5.6272,5.6275,5.6294,5.6272,5.6275,5.6272,5.6282,5.6315,5.6339,5.6305,5.6306,5.6256,5.621,5.6218,5.6101,5.5919,5.5914,5.5831,5.5689,5.5573,5.5734,5.624,5.6971,5.7754,5.8622,5.9018,5.9454,6.0028,6.0444,6.0698,6.0765,6.08,6.0287,5.9148,5.8214,5.7362,5.6522,5.6,5.5689,5.5689,5.5689,5.5689,5.5689,5.5689,5.6376,5.7986,5.8294,5.8934,6.0358,6.08,6.08,6.08,6.08,6.0818,6.0835,6.0841,6.0846,6.0875,6.0905,6.0955,6.0987,6.1017,6.1065,6.1113,6.1155,6.1141,6.0616,6.0561,6.0472,6.0005,6.0003,6.0215,6.0524,6.0712,6.0824,6.1192,6.1544,6.1588,6.1588,6.1588,6.1588,4.8082,4.834,4.9247,5.0157,5.1034,5.1505,5.2025,5.2607,5.2897,5.3508,5.4341,5.461,5.5027,5.5509,5.5769,5.5938,5.6015,5.6091,5.6129,5.6119,5.613,5.6156,5.6137,5.6134,5.6153,5.6153,5.6134,5.6153,5.6153,5.6128,5.6156,5.6149,5.6145,5.6145,5.6164,5.6145,5.6149,5.6164,5.6161,5.6168,5.6191,5.6242,5.6262,5.6278,5.6259,5.6234,5.6168,5.6149,5.6076,5.5909,5.5885,5.5811,5.5687,5.5792,5.6324,5.7315,5.794,5.8647,5.9491,5.9588,5.9939,6.0589,6.0741,6.0783,6.0829,6.088,6.0658,6.0041,5.8968,5.794,5.7101,5.6255,5.5744,5.5714,5.5689,5.5689,5.5689,5.5689,5.6357,5.7948,5.8294,5.8934,6.0358,6.08,6.08,6.08,6.08,6.08,6.08,6.0787,6.0806,6.08,6.0846,6.0883,6.0941,6.0992,6.1017,6.0974,6.0977,6.0568,5.9947,5.9921,5.9704,5.9311,5.8932,5.8991,5.9643,5.9899,6.0462,6.1178,6.1531,6.1561,6.1585,6.1588,6.1588,4.7625,4.7871,4.8808,4.9402,4.9832,5.0684,5.1176,5.1368,5.153,5.216,5.309,5.3241,5.3856,5.4783,5.5232,5.5668,5.5817,5.5885,5.5912,5.5921,5.596,5.6001,5.6001,5.6001,5.602,5.6001,5.6001,5.6001,5.602,5.6016,5.5997,5.6012,5.5988,5.6008,5.6012,5.6008,5.6033,5.6086,5.6109,5.6129,5.6188,5.6199,5.6203,5.6183,5.6206,5.6168,5.6102,5.6037,5.5987,5.5905,5.5817,5.5765,5.5709,5.6377,5.7449,5.8716,5.9069,5.9503,6.0251,6.047,6.0608,6.0716,6.0812,6.088,6.0886,6.0941,6.0939,6.089,5.9338,5.8069,5.7277,5.6356,5.5785,5.5724,5.5695,5.5695,5.5689,5.5689,5.6492,5.789,5.8442,5.9167,6.0583,6.08,6.0794,6.0794,6.08,6.08,6.08,6.08,6.08,6.08,6.0812,6.0829,6.0897,6.0964,6.0987,6.0795,6.0408,5.9922,5.9652,5.9369,5.8983,5.8656,5.8432,5.8496,5.8898,5.9549,6.039,6.1028,6.1401,6.1505,6.1556,6.1585,6.1588,4.7403,4.7601,4.795,4.8234,4.8456,4.8832,4.9356,4.9945,5.0137,5.0815,5.1722,5.1928,5.2311,5.2921,5.366,5.4546,5.5429,5.5594,5.5684,5.5702,5.5778,5.5803,5.5803,5.5803,5.5803,5.5803,5.5822,5.5803,5.5803,5.5803,5.5803,5.5803,5.5803,5.5842,5.5866,5.5876,5.5914,5.5956,5.596,5.5989,5.6007,5.6007,5.6026,5.6016,5.6125,5.6145,5.6037,5.5997,5.595,5.5841,5.5766,5.5948,5.6493,5.7633,5.8534,5.9084,5.9693,6.0193,6.0507,6.0635,6.0728,6.0823,6.0863,6.0927,6.0971,6.1025,6.106,6.078,5.956,5.8438,5.7916,5.6749,5.5836,5.5776,5.5761,5.5745,5.5714,5.5728,5.6376,5.8,5.9117,6.0114,6.0435,6.0717,6.0728,6.0728,6.0777,6.08,6.08,6.08,6.08,6.08,6.0787,6.0793,6.0829,6.0935,6.0879,6.0389,5.9906,5.9141,5.8673,5.8286,5.7881,5.7435,5.7395,5.7728,5.8052,5.9267,6.0128,6.0591,6.097,6.1489,6.1524,6.1559,6.1585,4.7116,4.7254,4.7283,4.7349,4.7486,4.761,4.7998,4.8592,4.8827,4.9495,5.0372,5.0628,5.0999,5.1602,5.2253,5.3233,5.4506,5.5019,5.5339,5.545,5.5516,5.5551,5.5568,5.5573,5.5568,5.5568,5.5568,5.5568,5.5568,5.5568,5.5598,5.5596,5.5621,5.5629,5.5703,5.5689,5.5735,5.5791,5.5806,5.5816,5.5851,5.5875,5.5885,5.5909,5.602,5.604,5.5964,5.595,5.5895,5.5801,5.5978,5.656,5.7637,5.8604,5.9271,5.9562,6.0114,6.0532,6.0597,6.0673,6.0765,6.09,6.0927,6.0946,6.1039,6.109,6.1122,6.0824,5.9667,5.8672,5.8312,5.7043,5.5981,5.5856,5.5821,5.5801,5.5721,5.5719,5.6525,5.8054,5.9659,6.0488,6.0604,6.0635,6.0667,6.0691,6.0753,6.0777,6.08,6.08,6.08,6.08,6.08,6.0781,6.0683,6.0602,6.0427,5.9958,5.9012,5.8267,5.7776,5.7327,5.6915,5.6389,5.6376,5.6753,5.7586,5.8836,5.9591,6.009,6.0849,6.1493,6.1531,6.1554,6.1581,4.669,4.6819,4.6789,4.6899,4.7048,4.7191,4.728,4.7435,4.7666,4.8343,4.9143,4.9322,4.9926,5.0832,5.1139,5.1867,5.2875,5.4055,5.4797,5.5082,5.5163,5.5249,5.5294,5.5301,5.5282,5.5294,5.5301,5.5301,5.5307,5.5314,5.5339,5.5389,5.5402,5.5438,5.5498,5.551,5.552,5.559,5.5626,5.5682,5.5791,5.5776,5.5811,5.5865,5.5836,5.5836,5.589,5.5836,5.5805,5.5857,5.6444,5.7599,5.8738,5.9181,5.951,6.0148,6.042,6.0475,6.0521,6.0494,6.0476,6.0591,6.0825,6.0758,6.0901,6.0923,6.0976,6.0886,5.9642,5.8611,5.8355,5.7141,5.6101,5.5938,5.5861,5.5817,5.5801,5.5817,5.6393,5.8104,5.9713,6.0584,6.0597,6.0597,6.0623,6.0667,6.0697,6.0747,6.0794,6.08,6.08,6.08,6.0781,6.0768,6.0477,6.0153,5.9848,5.9405,5.8274,5.7374,5.7125,5.6753,5.6546,5.6137,5.6182,5.6559,5.7045,5.8237,5.9167,5.9789,6.0646,6.1415,6.1515,6.1536,6.1578,4.6393,4.6542,4.6625,4.669,4.6719,4.6783,4.687,4.6962,4.7138,4.7492,4.7861,4.8036,4.8421,4.9022,4.9649,5.0285,5.0879,5.2406,5.3708,5.4594,5.481,5.493,5.5014,5.5021,5.504,5.5021,5.5021,5.505,5.5092,5.5106,5.514,5.5182,5.5196,5.5236,5.5301,5.5345,5.5395,5.5462,5.551,5.5556,5.561,5.559,5.5596,5.5607,5.5602,5.5602,5.5613,5.564,5.5912,5.6381,5.6648,5.7456,5.8828,5.9668,6.0074,6.0237,5.9845,5.9632,5.9613,5.9266,5.9104,5.9174,5.9226,5.9577,6.0086,5.9794,5.9851,6.0184,5.8955,5.7936,5.7705,5.6941,5.621,5.6001,5.5955,5.5914,5.6014,5.6799,5.7845,5.8806,5.9939,6.0508,6.0505,6.0499,6.0565,6.0636,6.066,6.071,6.0783,6.08,6.08,6.08,6.0768,6.0556,6.0081,5.9507,5.8954,5.8555,5.7617,5.6882,5.6594,5.6407,5.6181,5.6106,5.6152,5.6448,5.6915,5.7715,5.8784,5.9598,6.0462,6.0996,6.1376,6.152,6.1546,4.6105,4.6174,4.6265,4.6301,4.6314,4.6362,4.6441,4.659,4.6725,4.6905,4.7127,4.7272,4.7461,4.7827,4.8475,4.9074,4.967,5.0865,5.2215,5.3661,5.4324,5.4541,5.4702,5.4717,5.4741,5.4764,5.4745,5.481,5.4886,5.4894,5.4912,5.4978,5.4995,5.5052,5.5121,5.5208,5.5255,5.5294,5.5314,5.5377,5.542,5.5407,5.545,5.5492,5.548,5.5629,5.5853,5.5923,5.6172,5.6728,5.7181,5.815,5.9323,5.9951,6.0148,5.9753,5.9392,5.9055,5.8777,5.8457,5.8235,5.834,5.8378,5.8703,5.9226,5.8928,5.9087,5.9306,5.8431,5.7591,5.744,5.6783,5.6281,5.6126,5.6042,5.6085,5.64,5.7736,5.8723,5.9357,6.0061,6.0417,6.0451,6.0431,6.0505,6.0584,6.0642,6.0717,6.0771,6.08,6.08,6.08,6.0781,6.0339,5.9627,5.888,5.8099,5.7571,5.6985,5.654,5.6222,5.6162,5.6029,5.6094,5.6137,5.6565,5.7056,5.8,5.8975,5.9649,6.0359,6.0955,6.1455,6.1493,6.1519,4.5782,4.58,4.5795,4.5851,4.5859,4.5968,4.6075,4.6198,4.6345,4.6554,4.6754,4.6922,4.7086,4.732,4.7673,4.825,4.9052,4.9575,5.0592,5.2092,5.3228,5.3976,5.4337,5.4399,5.443,5.4462,5.447,5.4538,5.4638,5.4673,5.4705,5.4791,5.4849,5.4931,5.4985,5.5045,5.5113,5.5107,5.5114,5.517,5.5301,5.5269,5.5339,5.547,5.5536,5.5842,5.6338,5.6648,5.6749,5.6935,5.818,5.9212,5.9874,6.0045,5.96,5.8996,5.8894,5.8389,5.7975,5.7673,5.775,5.7849,5.7947,5.8394,5.852,5.8448,5.8432,5.87,5.7956,5.7451,5.7289,5.6789,5.6362,5.6349,5.6304,5.6506,5.7252,5.8627,5.93,5.9555,6.0093,6.0552,6.0424,6.0403,6.0472,6.0565,6.061,6.0673,6.0765,6.08,6.08,6.08,6.08,6.0089,5.9352,5.88,5.7973,5.694,5.6479,5.6275,5.6039,5.6023,5.5993,5.6062,5.6269,5.6699,5.7298,5.8184,5.9062,5.9833,6.0511,6.1156,6.1418,6.1456,6.1504,4.5641,4.5671,4.5757,4.5812,4.5812,4.5846,4.5871,4.593,4.6137,4.6284,4.6393,4.6613,4.6836,4.7082,4.7191,4.7558,4.8171,4.8876,4.9484,5.0386,5.1867,5.3095,5.3897,5.4136,5.4189,5.4216,5.4233,5.4241,5.4337,5.4432,5.4508,5.4571,5.4686,5.4783,5.486,5.4905,5.4997,5.5035,5.5092,5.5107,5.5142,5.5155,5.5169,5.5253,5.5806,5.6205,5.6596,5.761,5.8231,5.8354,5.9167,5.9747,5.989,5.9389,5.891,5.8518,5.7613,5.6994,5.6763,5.637,5.6191,5.6283,5.6608,5.685,5.7651,5.7203,5.7287,5.7566,5.7198,5.6744,5.6699,5.6544,5.6604,5.7012,5.7052,5.7472,5.8623,5.9265,5.9651,6.0188,6.0444,6.0494,6.0444,6.041,6.0451,6.0558,6.0629,6.0668,6.0759,6.08,6.08,6.08,6.0646,5.9838,5.9121,5.8621,5.7794,5.6535,5.6093,5.6111,5.5987,5.6003,5.6012,5.6029,5.6346,5.6761,5.7415,5.8185,5.9061,6.0134,6.0727,6.1346,6.1396,6.1452,6.1482,4.5459,4.5528,4.5607,4.5645,4.5645,4.5645,4.5671,4.5731,4.5867,4.6018,4.6142,4.6332,4.6578,4.6842,4.6996,4.7232,4.7605,4.8209,4.8811,4.96,5.122,5.2617,5.3532,5.386,5.3926,5.3981,5.4018,5.411,5.4171,5.4233,5.4321,5.4434,5.4526,5.4608,5.4678,5.4756,5.4841,5.4909,5.4975,5.4992,5.5045,5.5052,5.5339,5.5581,5.6197,5.6609,5.7421,5.8607,5.9259,5.9371,5.9684,5.9888,5.973,5.8983,5.8353,5.7934,5.6799,5.6091,5.5777,5.5429,5.5358,5.551,5.5651,5.6054,5.656,5.6342,5.6493,5.687,5.66,5.6452,5.646,5.6647,5.7334,5.8218,5.8334,5.8694,5.9647,5.9865,6.0152,6.0476,6.0552,6.0525,6.041,6.0403,6.0472,6.0558,6.0617,6.068,6.0771,6.0788,6.08,6.08,6.0608,5.9915,5.9063,5.8467,5.7632,5.6386,5.5981,5.5951,5.5964,5.6008,5.6008,5.6083,5.6446,5.6959,5.773,5.8578,5.9655,6.0547,6.1079,6.1345,6.1395,6.1428,6.1461,4.5261,4.5384,4.5384,4.5397,4.541,4.5427,4.5489,4.5581,4.5615,4.577,4.5985,4.6117,4.6362,4.659,4.6842,4.7053,4.7287,4.7612,4.843,4.9534,5.0986,5.231,5.3346,5.3619,5.3707,5.3765,5.3907,5.3963,5.4018,5.4064,5.4154,5.4281,5.4349,5.4432,5.4532,5.4614,5.4713,5.4783,5.4841,5.4871,5.4949,5.5016,5.5375,5.614,5.6737,5.7551,5.8577,5.9425,5.9776,5.9823,5.9807,5.9714,5.9485,5.8779,5.7904,5.7094,5.6266,5.5464,5.5004,5.4959,5.5013,5.5097,5.523,5.5568,5.5682,5.5771,5.6001,5.6392,5.6341,5.6439,5.6705,5.7185,5.8164,5.9197,5.9674,5.9841,5.9933,6.0344,6.0667,6.0604,6.0513,6.0479,6.0424,6.041,6.0425,6.0571,6.061,6.0673,6.0753,6.0794,6.08,6.08,6.0492,6.0089,5.9179,5.8313,5.734,5.6338,5.6092,5.5983,5.5981,5.6008,5.6008,5.6164,5.6593,5.7346,5.8312,5.9258,6.0188,6.0835,6.1296,6.1377,6.1403,6.1405,6.144,4.5127,4.5247,4.523,4.53,4.5384,4.5414,4.5423,4.545,4.5567,4.568,4.5846,4.5968,4.6191,4.6441,4.6637,4.6812,4.7086,4.7409,4.8305,5.0024,5.053,5.1771,5.2897,5.3388,5.3529,5.3599,5.3705,5.3773,5.3812,5.3944,5.4028,5.4074,5.4236,5.4368,5.4415,5.4508,5.4606,5.4723,5.4779,5.4799,5.4852,5.4988,5.545,5.6391,5.7529,5.8614,5.9417,5.9746,5.9738,5.9678,5.9608,5.952,5.9147,5.7947,5.7077,5.6572,5.5515,5.4706,5.449,5.4213,5.3995,5.4114,5.3972,5.3933,5.4752,5.5017,5.5439,5.5942,5.6229,5.6524,5.7206,5.792,5.8749,5.9592,6.0208,6.0494,6.0513,6.0581,6.0629,6.0558,6.0505,6.0472,6.0403,6.0403,6.0458,6.0565,6.0629,6.0667,6.071,6.0794,6.08,6.08,6.0666,6.0185,5.8877,5.7965,5.7004,5.6319,5.6111,5.6001,5.5999,5.6008,5.6008,5.6334,5.6805,5.7659,5.8552,5.9444,6.0274,6.0886,6.1396,6.1396,6.1403,6.1399,6.1425,4.4978,4.5113,4.5163,4.523,4.53,4.5388,4.5414,4.541,4.5476,4.5576,4.5718,4.5846,4.6055,4.6308,4.6518,4.6743,4.7014,4.7312,4.8392,4.988,5.0444,5.1403,5.2727,5.3162,5.3297,5.34,5.3539,5.3617,5.3715,5.3802,5.3888,5.3982,5.412,5.4228,5.4323,5.44,5.4474,5.4581,5.4638,5.4697,5.4763,5.5211,5.6159,5.7281,5.8567,5.9495,5.9828,5.9772,5.9686,5.9589,5.9464,5.9365,5.9,5.7679,5.6771,5.6379,5.5189,5.4178,5.3837,5.3662,5.3454,5.3157,5.2971,5.3248,5.3785,5.4256,5.4821,5.5363,5.5877,5.6548,5.7738,5.8159,5.8954,5.9975,6.0491,6.069,6.0623,6.0597,6.0597,6.0512,6.0472,6.0438,6.041,6.0403,6.0472,6.0571,6.0597,6.0648,6.0728,6.08,6.08,6.08,6.08,6.0165,5.8671,5.7558,5.6648,5.6189,5.6039,5.5983,5.5999,5.6003,5.6008,5.6373,5.6753,5.7647,5.854,5.9452,6.0328,6.1006,6.1396,6.1396,6.14,6.1398,6.1431,4.4845,4.4995,4.51,4.515,4.5203,4.5314,4.5384,4.5414,4.5414,4.5485,4.5602,4.5749,4.5942,4.6191,4.6483,4.6743,4.7048,4.7365,4.8345,4.9615,5.0177,5.1184,5.2382,5.2892,5.3109,5.3266,5.34,5.3519,5.3636,5.3685,5.3793,5.3935,5.3991,5.4083,5.4219,5.4308,5.4368,5.4458,5.4524,5.4732,5.4985,5.5605,5.6724,5.8254,5.9279,5.9761,5.9861,5.9744,5.9624,5.9598,5.9428,5.929,5.8822,5.7698,5.6641,5.651,5.5107,5.4008,5.3334,5.3134,5.29,5.2279,5.2214,5.2461,5.2784,5.3566,5.4235,5.481,5.5422,5.6565,5.8063,5.8272,5.9072,6.0153,6.0603,6.0553,6.0473,6.0432,6.0425,6.0479,6.0444,6.041,6.0403,6.0403,6.0492,6.0558,6.0584,6.0642,6.0747,6.08,6.08,6.08,6.08,6.0069,5.8627,5.7157,5.6253,5.6087,5.5953,5.5984,5.599,5.6003,5.6046,5.624,5.6745,5.7619,5.8513,5.9421,6.0282,6.1064,6.1396,6.1396,6.1396,6.1396,6.1438,4.4692,4.4831,4.4858,4.5009,4.5177,4.5217,4.53,4.5397,4.5414,4.5476,4.5607,4.5761,4.5884,4.611,4.6447,4.6807,4.7093,4.7359,4.7958,4.9082,4.9836,5.0962,5.1799,5.2674,5.2984,5.3106,5.3235,5.34,5.3538,5.3646,5.3706,5.3822,5.3926,5.401,5.4102,5.4192,5.4281,5.4359,5.4526,5.4892,5.5415,5.6025,5.6927,5.8557,5.9485,5.982,5.9896,5.9824,5.9723,5.9626,5.9529,5.9374,5.8915,5.7576,5.6697,5.6182,5.5025,5.3816,5.3007,5.2481,5.1963,5.1315,5.0902,5.1047,5.1699,5.2702,5.3648,5.4504,5.5292,5.6365,5.7871,5.8105,5.8802,5.9827,6.0313,6.0268,6.0215,6.02,6.0258,6.0389,6.0389,6.0396,6.0396,6.0417,6.0479,6.0552,6.0591,6.0667,6.0771,6.08,6.08,6.08,6.08,5.9781,5.8569,5.706,5.5938,5.5971,5.5914,5.5942,5.5964,5.5995,5.6085,5.6201,5.6678,5.7486,5.8399,5.9335,6.0259,6.1087,6.1273,6.1396,6.1396,6.14,6.1434,4.4256,4.4692,4.4762,4.4913,4.5069,4.5163,4.5274,4.5384,4.5414,4.5437,4.5554,4.5693,4.5851,4.601,4.6416,4.6795,4.7048,4.7261,4.7809,4.8676,4.9676,5.0675,5.1518,5.2452,5.2842,5.3031,5.317,5.3287,5.3371,5.343,5.3579,5.3725,5.3821,5.3897,5.4,5.4092,5.4193,5.4293,5.4725,5.5216,5.5797,5.6473,5.7834,5.8896,5.9549,5.9836,5.9869,5.9841,5.9765,5.9686,5.9589,5.9474,5.8905,5.7856,5.6687,5.6295,5.5062,5.3601,5.2636,5.2035,5.1536,5.0421,5.0005,5.0101,5.0835,5.1897,5.3239,5.4499,5.546,5.6441,5.7615,5.8025,5.889,5.9745,6.008,6.0057,6.0057,6.0049,6.0167,6.0296,6.0318,6.0347,6.0396,6.0431,6.0479,6.0532,6.0584,6.0686,6.0788,6.08,6.0781,6.0666,6.055,5.9588,5.8511,5.7267,5.5966,5.586,5.59,5.5923,5.5969,5.5986,5.6003,5.6046,5.6687,5.723,5.819,5.9072,6.0072,6.1006,6.123,6.1396,6.1396,6.1407,6.1441,4.3876,4.4598,4.4706,4.4831,4.4981,4.51,4.5251,4.5357,4.538,4.5414,4.5437,4.5671,4.5812,4.5947,4.6326,4.6731,4.6968,4.7176,4.7646,4.8317,4.9479,5.0521,5.1249,5.2225,5.2835,5.2944,5.3063,5.3209,5.3289,5.332,5.3449,5.3608,5.3675,5.3763,5.3907,5.4243,5.4214,5.4596,5.5229,5.5732,5.6357,5.7542,5.8812,5.9638,5.9759,5.9799,5.9847,5.9824,5.9801,5.9757,5.9686,5.9589,5.9265,5.7887,5.6907,5.649,5.5179,5.356,5.2348,5.1914,5.1312,4.9939,4.9775,4.9776,5.0211,5.149,5.3084,5.4689,5.5676,5.6417,5.7267,5.8069,5.8887,5.9552,5.982,5.9844,5.9918,5.9993,6.0052,6.0156,6.0235,6.0296,6.0368,6.0417,6.0458,6.0545,6.0617,6.068,6.0771,6.0794,6.0742,6.055,6.0185,5.9338,5.8434,5.7613,5.6466,5.5844,5.588,5.5909,5.5956,5.5996,5.5995,5.6008,5.6111,5.6701,5.7757,5.8727,5.9622,6.0393,6.1036,6.1377,6.1396,6.1407,6.1431,4.3876,4.4584,4.4612,4.4709,4.4845,4.4964,4.5113,4.5217,4.5357,4.5414,4.5423,4.5667,4.5812,4.5972,4.6374,4.6672,4.6876,4.71,4.7339,4.7816,4.9178,5.007,5.055,5.1939,5.2607,5.2846,5.2966,5.312,5.3235,5.3269,5.3369,5.3509,5.37,5.376,5.3976,5.4631,5.5034,5.5221,5.6005,5.6818,5.7576,5.8568,5.9167,5.9463,5.9581,5.9659,5.9763,5.9782,5.9782,5.9782,5.9793,5.9723,5.9351,5.8005,5.7211,5.6478,5.5294,5.3596,5.2265,5.189,5.134,5.006,4.9653,4.9648,5.0278,5.1322,5.2911,5.4409,5.5343,5.611,5.6906,5.7709,5.8563,5.9162,5.9564,5.9652,5.9774,5.9828,5.9918,6.0068,6.0152,6.0256,6.0335,6.0396,6.0444,6.0532,6.0617,6.0692,6.0753,6.0783,6.08,6.0627,6.0377,5.9588,5.8761,5.7882,5.7024,5.6128,5.5909,5.5933,5.5966,5.5992,5.5995,5.6016,5.6042,5.6268,5.7188,5.8137,5.9056,5.9978,6.0865,6.1241,6.1396,6.141,6.1424,4.3152,4.3944,4.4415,4.4665,4.482,4.4954,4.5073,4.5203,4.5344,4.5414,4.545,4.5697,4.5922,4.6142,4.6477,4.669,4.6842,4.7077,4.7227,4.7661,4.9,4.9953,5.0492,5.1717,5.2635,5.2698,5.2828,5.2966,5.3098,5.3222,5.3314,5.3453,5.3883,5.4238,5.427,5.5148,5.5534,5.5939,5.6653,5.7601,5.8379,5.8905,5.9225,5.9383,5.9429,5.9509,5.9642,5.9765,5.9774,5.9791,5.9824,5.9805,5.9351,5.8241,5.7161,5.6858,5.5379,5.3902,5.278,5.2215,5.1327,5.0433,4.9881,4.9823,5.067,5.1755,5.2837,5.403,5.5313,5.6108,5.6743,5.779,5.853,5.9084,5.929,5.9466,5.961,5.9669,5.9761,5.9904,6.0076,6.0193,6.0325,6.0382,6.0444,6.0552,6.0617,6.068,6.0741,6.0794,6.08,6.0762,6.0473,6.005,5.9242,5.8415,5.7596,5.6759,5.5962,5.5991,5.5985,5.6002,5.5995,5.602,5.6046,5.6377,5.6831,5.778,5.8896,5.9876,6.0814,6.1086,6.1319,6.14,6.1428,4.2297,4.3203,4.4178,4.4671,4.4765,4.4899,4.5019,4.515,4.5274,4.5371,4.5459,4.568,4.5998,4.6272,4.6483,4.6649,4.676,4.7014,4.7337,4.8057,4.9014,4.9974,5.0785,5.1912,5.2604,5.262,5.268,5.2828,5.2944,5.3049,5.3127,5.3311,5.4065,5.4457,5.4877,5.566,5.6351,5.685,5.7429,5.8129,5.8726,5.8887,5.9052,5.9159,5.9253,5.9355,5.9528,5.9662,5.9705,5.9757,5.978,5.9744,5.9494,5.8184,5.7247,5.6704,5.5402,5.4278,5.3458,5.2794,5.1885,5.1056,5.0541,5.0609,5.1602,5.2436,5.3154,5.4111,5.5289,5.6096,5.6795,5.7932,5.8573,5.8906,5.9081,5.9262,5.9438,5.9563,5.9717,5.9931,6.008,6.0174,6.0282,6.0354,6.0464,6.0584,6.0629,6.0673,6.0735,6.0794,6.08,6.08,6.0666,6.0262,5.9531,5.8767,5.8025,5.7312,5.6521,5.6015,5.6009,5.6007,5.5999,5.6029,5.6058,5.6215,5.6528,5.7652,5.8736,5.9456,6.0173,6.0891,6.1241,6.1349,6.1421,4.1473,4.2489,4.3975,4.4598,4.4626,4.4748,4.4882,4.5032,4.5163,4.5287,4.545,4.5684,4.5902,4.611,4.6423,4.6613,4.6637,4.6888,4.7491,4.8349,4.9302,5.0206,5.109,5.1923,5.2542,5.2586,5.262,5.2705,5.2783,5.2828,5.2988,5.3314,5.4222,5.4454,5.5117,5.6266,5.7253,5.7739,5.8147,5.8328,5.8629,5.8739,5.8813,5.9003,5.9139,5.9244,5.9327,5.9447,5.9546,5.9589,5.9633,5.9668,5.9367,5.8188,5.7393,5.6723,5.558,5.4589,5.4004,5.3341,5.2632,5.1957,5.1566,5.152,5.2233,5.2512,5.3281,5.4448,5.5506,5.6301,5.7035,5.7865,5.855,5.8752,5.8934,5.9196,5.9383,5.9526,5.97,5.9931,6.0083,6.0167,6.0267,6.0366,6.0477,6.0591,6.0661,6.0704,6.0747,6.08,6.08,6.08,6.08,6.0396,5.9665,5.8965,5.8372,5.7631,5.682,5.631,5.5994,5.6011,5.6008,5.6042,5.6094,5.6149,5.6265,5.7104,5.7931,5.8748,5.9574,6.0506,6.1172,6.1405,6.1463,4.1405,4.2405,4.3436,4.4144,4.4615,4.4751,4.4855,4.5005,4.5136,4.531,4.5541,4.5723,4.5871,4.6067,4.6398,4.6602,4.6637,4.6876,4.7589,4.8406,4.931,5.0246,5.1184,5.1993,5.2533,5.2531,5.2542,5.2581,5.2665,5.2749,5.3173,5.3708,5.4547,5.5261,5.6054,5.689,5.777,5.8109,5.8349,5.8448,5.8491,5.8516,5.8593,5.8811,5.8852,5.8982,5.911,5.9244,5.9337,5.9401,5.9464,5.9528,5.9431,5.8346,5.7625,5.701,5.5773,5.4981,5.4321,5.3583,5.2643,5.1983,5.1942,5.2317,5.265,5.3183,5.3823,5.478,5.5719,5.6603,5.704,5.7857,5.8505,5.8635,5.8833,5.911,5.9327,5.95,5.9708,5.9947,6.0057,6.0159,6.0267,6.0366,6.0484,6.0597,6.0667,6.0741,6.0777,6.08,6.08,6.08,6.08,6.08,6.0146,5.9446,5.8751,5.8021,5.7235,5.6749,5.6337,5.602,5.6036,5.6073,5.6114,5.6172,5.6306,5.6539,5.7324,5.8499,5.948,6.0381,6.0932,6.1415,6.1492,4.1096,4.2033,4.2777,4.3673,4.453,4.4696,4.4831,4.4991,4.51,4.53,4.5537,4.5705,4.5833,4.603,4.6381,4.6602,4.6672,4.6936,4.7733,4.8569,4.9467,5.038,5.1337,5.2067,5.251,5.2498,5.248,5.2531,5.2588,5.2806,5.3469,5.4261,5.5053,5.5809,5.6465,5.7457,5.802,5.8042,5.8088,5.8219,5.8242,5.8275,5.8404,5.8572,5.8646,5.875,5.8894,5.9032,5.9139,5.9206,5.93,5.9365,5.9129,5.8676,5.7954,5.7111,5.6186,5.5252,5.4581,5.3771,5.3009,5.2595,5.267,5.2807,5.3013,5.3777,5.4417,5.4969,5.6059,5.694,5.7228,5.8061,5.8473,5.8625,5.8835,5.911,5.9355,5.9545,5.9742,5.9955,6.0049,6.0148,6.0296,6.0408,6.0518,6.061,6.0704,6.0759,6.0783,6.08,6.08,6.08,6.08,6.08,6.0704,5.9888,5.9141,5.8895,5.8123,5.7323,5.6848,5.6532,5.616,5.6082,5.6126,5.6191,5.644,5.6766,5.756,5.8541,5.962,6.0792,6.1033,6.1491,6.1504,4.045,4.1275,4.2049,4.3213,4.4479,4.4598,4.4762,4.4991,4.5046,4.5211,4.5446,4.5697,4.5808,4.596,4.6386,4.659,4.6714,4.7001,4.787,4.9072,4.9708,5.0764,5.1692,5.2357,5.2475,5.2498,5.2498,5.251,5.2539,5.3167,5.3964,5.4816,5.5565,5.6219,5.6502,5.7212,5.7589,5.7619,5.7673,5.7815,5.7944,5.8008,5.8163,5.8342,5.8432,5.8511,5.8687,5.8799,5.8892,5.9003,5.9023,5.9072,5.9008,5.8455,5.7969,5.7641,5.6286,5.5492,5.5193,5.4447,5.3926,5.3496,5.3418,5.3522,5.3509,5.4126,5.4995,5.5647,5.6466,5.7282,5.7818,5.8283,5.8465,5.8656,5.8874,5.9101,5.9346,5.9536,5.9734,5.9963,6.0064,6.0155,6.0306,6.0457,6.0558,6.0642,6.0735,6.0763,6.0781,6.08,6.08,6.08,6.08,6.08,6.0666,6.0094,5.957,5.9407,5.8992,5.8192,5.7649,5.7372,5.6923,5.6404,5.6579,5.7009,5.703,5.7048,5.8133,5.9254,6.0338,6.1269,6.1431,6.1509,6.152,4.0399,4.1271,4.1995,4.2963,4.401,4.4533,4.4845,4.5022,4.5198,4.5371,4.5541,4.5749,4.5876,4.606,4.6338,4.6602,4.672,4.7589,4.8537,4.9317,4.9978,5.1018,5.1904,5.2311,5.2417,5.2475,5.2498,5.2516,5.2528,5.3403,5.4146,5.4961,5.6114,5.6835,5.7091,5.7468,5.7595,5.7595,5.7625,5.7661,5.7733,5.7756,5.7881,5.8111,5.8179,5.829,5.8473,5.8566,5.8654,5.8762,5.8811,5.8843,5.8925,5.8516,5.8301,5.7936,5.6862,5.6424,5.5945,5.5269,5.4704,5.4208,5.4037,5.4203,5.4183,5.5349,5.6004,5.6422,5.7035,5.7716,5.813,5.832,5.8473,5.8685,5.8902,5.9149,5.9364,5.9518,5.97,5.9936,6.0091,6.02,6.0347,6.0465,6.0591,6.0642,6.071,6.0757,6.08,6.08,6.08,6.08,6.08,6.08,6.0633,6.0285,5.9997,5.9784,5.9547,5.9085,5.8634,5.8236,5.7994,5.7613,5.7738,5.7905,5.8049,5.8305,5.9063,6.0064,6.0903,6.1389,6.1469,6.1507,6.1514,4.0298,4.0916,4.1946,4.2707,4.3412,4.4347,4.4899,4.5086,4.5287,4.5476,4.5607,4.5731,4.5871,4.6085,4.6386,4.6602,4.6726,4.7695,4.8579,4.9365,5.0265,5.1149,5.1814,5.2216,5.2335,5.2428,5.2523,5.2589,5.3023,5.3766,5.4762,5.5848,5.6645,5.7057,5.729,5.7382,5.7443,5.7425,5.7443,5.7461,5.751,5.7547,5.7637,5.7822,5.7939,5.8061,5.8227,5.8338,5.8396,5.8548,5.8604,5.8656,5.8781,5.8718,5.8522,5.8089,5.7497,5.6866,5.6085,5.581,5.5183,5.4549,5.4746,5.488,5.5069,5.5967,5.6448,5.695,5.7627,5.7993,5.8253,5.8393,5.8561,5.877,5.8993,5.9244,5.9428,5.9579,5.9742,5.9994,6.0121,6.0229,6.0356,6.0485,6.0617,6.0655,6.0697,6.074,6.08,6.08,6.08,6.08,6.08,6.08,6.0823,6.0756,6.0473,6.0185,5.9982,5.9795,5.9445,5.9052,5.8929,5.8765,5.858,5.8594,5.9161,5.9639,6.0002,6.045,6.1052,6.1385,6.1473,6.1518,6.1524,4.0096,4.0341,4.1826,4.2486,4.2792,4.4228,4.4995,4.522,4.5357,4.5476,4.5632,4.5761,4.5902,4.6073,4.6423,4.6661,4.6986,4.7885,4.8722,4.9537,5.0497,5.1256,5.1777,5.215,5.2275,5.2346,5.2489,5.286,5.3639,5.4526,5.5667,5.6681,5.7025,5.7232,5.7226,5.7251,5.7282,5.7276,5.7276,5.7313,5.7363,5.7388,5.7474,5.7625,5.7745,5.7881,5.8008,5.8122,5.8271,5.836,5.8404,5.8415,5.8415,5.8422,5.8393,5.8153,5.7554,5.6896,5.6348,5.6234,5.611,5.5783,5.586,5.5816,5.593,5.6484,5.698,5.7301,5.775,5.8094,5.8382,5.8558,5.8721,5.8934,5.9149,5.9355,5.9545,5.971,5.9869,6.0029,6.0118,6.0229,6.0363,6.0499,6.0623,6.0648,6.0704,6.0752,6.08,6.08,6.08,6.08,6.08,6.08,6.0829,6.0869,6.0856,6.0543,6.0673,6.0519,6.017,5.9897,5.9829,5.9599,5.9161,5.9279,5.9968,6.0338,6.0527,6.0978,6.1324,6.1406,6.1487,6.1528,6.1549,4.0255,4.0352,4.1414,4.2228,4.3061,4.4549,4.5278,4.534,4.5397,4.5511,4.5744,4.58,4.5935,4.6159,4.6447,4.6902,4.7642,4.8502,4.9394,5.0198,5.0913,5.1481,5.186,5.2066,5.2204,5.2329,5.2532,5.3012,5.3892,5.4943,5.612,5.7025,5.717,5.7188,5.7188,5.7188,5.7188,5.7188,5.7188,5.7226,5.7251,5.7264,5.7338,5.7449,5.7613,5.7751,5.7851,5.7997,5.8141,5.8238,5.8271,5.8275,5.8411,5.8411,5.8371,5.8246,5.7965,5.77,5.7415,5.7344,5.7241,5.7138,5.7198,5.6947,5.6925,5.7053,5.7572,5.7757,5.791,5.8224,5.8473,5.8656,5.8833,5.9042,5.9244,5.9428,5.9607,5.9772,5.9929,6.0083,6.0178,6.0258,6.0398,6.0519,6.0629,6.0642,6.0692,6.0765,6.08,6.08,6.08,6.08,6.08,6.08,6.0841,6.0886,6.0949,6.0978,6.1011,6.1032,6.0789,6.0598,6.0642,6.0483,6.0154,6.0381,6.0927,6.108,6.0981,6.1152,6.1458,6.1482,6.1501,6.1541,6.1573,4.0375,4.0502,4.1301,4.2393,4.3632,4.4867,4.5406,4.5476,4.5476,4.5589,4.5795,4.5859,4.5998,4.6209,4.6512,4.7027,4.7818,4.8763,4.9662,5.0447,5.1315,5.1615,5.1858,5.1968,5.2108,5.2294,5.2773,5.3447,5.4351,5.5613,5.6844,5.7116,5.7188,5.7188,5.7188,5.7188,5.7188,5.7188,5.7188,5.7188,5.7188,5.7188,5.7251,5.7338,5.7504,5.7637,5.7733,5.7892,5.8031,5.8118,5.8129,5.8152,5.8231,5.8219,5.8219,5.8111,5.8074,5.7985,5.7836,5.7861,5.7953,5.7978,5.7978,5.7721,5.7574,5.7641,5.79,5.8108,5.8216,5.8364,5.854,5.8721,5.8924,5.912,5.9309,5.9491,5.965,5.9797,5.9985,6.0152,6.0263,6.0342,6.0451,6.0564,6.061,6.0642,6.0698,6.0771,6.08,6.08,6.08,6.08,6.08,6.0806,6.0852,6.0891,6.096,6.1013,6.107,6.108,6.1123,6.1124,6.1009,6.1105,6.1212,6.1327,6.1299,6.1343,6.1324,6.146,6.1512,6.152,6.1539,6.1554,6.1583,4.0522,4.0603,4.1479,4.2673,4.4195,4.4954,4.5385,4.5589,4.5632,4.5705,4.5833,4.5952,4.6073,4.627,4.653,4.7216,4.805,4.8983,4.9894,5.0572,5.1315,5.1715,5.1758,5.1845,5.198,5.2372,5.3021,5.3881,5.51,5.6228,5.7025,5.7188,5.7188,5.7188,5.7188,5.7188,5.7188,5.7188,5.7188,5.7188,5.7188,5.7188,5.7201,5.7264,5.7455,5.7625,5.7685,5.7815,5.7978,5.8008,5.8008,5.8001,5.8031,5.8031,5.8001,5.8001,5.8031,5.802,5.799,5.7978,5.7978,5.7978,5.7978,5.7923,5.7868,5.7914,5.8111,5.8242,5.8331,5.8494,5.8667,5.8823,5.9013,5.9197,5.9382,5.9563,5.9712,5.989,6.0045,6.0299,6.0643,6.0733,6.0955,6.112,6.1384,6.1045,6.0941,6.1038,6.0858,6.0858,6.0916,6.0896,6.08,6.0806,6.0835,6.0886,6.0965,6.1029,6.108,6.1099,6.1099,6.1199,6.1306,6.1349,6.1382,6.1389,6.1381,6.1405,6.1415,6.1469,6.1504,6.1536,6.1573,6.1583,6.1588,4.066,4.0729,4.1596,4.2561,4.353,4.4361,4.5057,4.5598,4.5821,4.5927,4.5965,4.6015,4.6135,4.635,4.6613,4.7399,4.8673,4.9244,5.0149,5.0959,5.1637,5.1672,5.1715,5.182,5.1943,5.2286,5.3056,5.4399,5.5666,5.6651,5.7188,5.7188,5.7188,5.7188,5.7188,5.7188,5.7188,5.7188,5.7188,5.7188,5.7188,5.7201,5.7226,5.7338,5.751,5.7649,5.7745,5.7904,5.7967,5.799,5.799,5.799,5.799,5.7978,5.7978,5.7978,5.7978,5.7978,5.7978,5.7978,5.7978,5.7978,5.7978,5.7978,5.8013,5.8088,5.8197,5.832,5.8462,5.8633,5.8809,5.8952,5.911,5.929,5.9491,5.9643,5.982,6.0045,6.0213,6.0615,6.1034,6.1289,6.1524,6.1752,6.1991,6.1985,6.1848,6.171,6.1229,6.1089,6.1243,6.1185,6.0858,6.0831,6.0835,6.0905,6.0971,6.1029,6.1075,6.109,6.1099,6.1204,6.1326,6.136,6.1393,6.1396,6.1407,6.1395,6.1425,6.1478,6.1515,6.1546,6.1578,6.1588,6.1588,4.0793,4.0891,4.1669,4.2519,4.3341,4.4143,4.4981,4.5708,4.5935,4.6035,4.6073,4.6097,4.6191,4.6534,4.6896,4.7754,4.9118,4.9685,5.0554,5.1387,5.169,5.169,5.1728,5.1783,5.2185,5.2584,5.392,5.5278,5.6317,5.6814,5.7188,5.7188,5.7188,5.7188,5.7188,5.7188,5.7188,5.7188,5.7188,5.7188,5.7188,5.7213,5.7264,5.7388,5.7522,5.7661,5.7792,5.7927,5.7967,5.7978,5.7978,5.7978,5.7978,5.7978,5.7978,5.7978,5.7978,5.7978,5.7978,5.7978,5.7978,5.7978,5.7978,5.7978,5.8122,5.8208,5.8275,5.8396,5.8548,5.8706,5.8912,5.9072,5.9262,5.9455,5.9691,5.9896,6.0365,6.0814,6.1229,6.1826,6.2082,6.2175,6.2354,6.2448,6.2656,6.2708,6.261,6.2589,6.207,6.1589,6.1666,6.1608,6.1377,6.0979,6.0818,6.088,6.1001,6.1039,6.107,6.1142,6.1177,6.1245,6.1322,6.138,6.1396,6.1396,6.141,6.1425,6.145,6.1478,6.1518,6.1554,6.1561,6.1588,6.1588,4.0935,4.1033,4.1621,4.2471,4.3429,4.4096,4.499,4.5885,4.601,4.6085,4.6189,4.6202,4.6295,4.6687,4.7373,4.8322,4.9184,4.9946,5.0905,5.1506,5.169,5.169,5.169,5.1738,5.2362,5.3401,5.4739,5.582,5.6879,5.7087,5.715,5.7176,5.7188,5.7188,5.7188,5.7188,5.7188,5.7188,5.7188,5.7188,5.7201,5.7232,5.7313,5.7425,5.7534,5.7685,5.7815,5.7909,5.7978,5.7978,5.7978,5.7978,5.7978,5.7978,5.7978,5.7978,5.7978,5.7978,5.7978,5.7978,5.7978,5.7978,5.7978,5.8065,5.8197,5.8286,5.8353,5.8494,5.8643,5.8791,5.8993,5.9196,5.9383,5.9703,5.9954,6.0437,6.1067,6.1622,6.2185,6.2839,6.299,6.3057,6.3185,6.328,6.3405,6.3431,6.338,6.3353,6.3179,6.2737,6.2545,6.2397,6.2166,6.1685,6.1152,6.1001,6.1166,6.1029,6.1065,6.117,6.1268,6.1289,6.133,6.1391,6.1396,6.14,6.1428,6.1441,6.1485,6.1487,6.1528,6.1561,6.1583,6.1588,6.1588,4.1082,4.1157,4.1296,4.2177,4.3412,4.377,4.4663,4.5888,4.6127,4.6172,4.6184,4.6209,4.6331,4.6601,4.7398,4.8328,4.9304,5.0179,5.0959,5.1583,5.1672,5.169,5.1815,5.2065,5.2779,5.3936,5.5145,5.6003,5.6804,5.7015,5.7105,5.7194,5.7188,5.7188,5.7188,5.7188,5.7188,5.7188,5.7188,5.7188,5.7239,5.7301,5.7455,5.7565,5.7679,5.7815,5.792,5.7985,5.7978,5.7978,5.7978,5.7978,5.7978,5.7978,5.7978,5.7978,5.7978,5.7978,5.7978,5.7978,5.7978,5.8008,5.802,5.8088,5.8219,5.8331,5.8451,5.8643,5.8779,5.8882,5.9062,5.9234,5.9438,5.9999,6.0387,6.1373,6.2201,6.2479,6.2837,6.3331,6.3695,6.3893,6.4149,6.4345,6.4654,6.459,6.4334,6.4243,6.3839,6.3602,6.3448,6.3275,6.307,6.2493,6.1999,6.1442,6.1383,6.1202,6.1065,6.117,6.124,6.1289,6.1337,6.1394,6.14,6.1407,6.1438,6.1453,6.1487,6.1509,6.1544,6.1588,6.1588,6.1588,6.1588]}]]